GFSGBSN_500_spd_000.txt.gz
Wind_Speed
29 27 26 26 25 24 24 26 27 28 29 32 32 34 31 28 26 30 30 33 32 35 40 43 46 46 48 48 47 50 52 55 60 63 61 59 60 61 57 56 52 45 39 38 40 41 35
31 30 27 27 26 25 26 27 28 29 30 32 34 35 32 29 27 31 31 32 33 39 41 43 45 49 49 47 44 50 53 57 61 65 65 63 59 62 59 57 53 44 41 41 45 41 36
37 34 31 29 28 28 28 28 29 29 31 32 35 37 33 30 27 31 30 32 36 38 44 45 49 46 44 41 43 48 54 58 59 62 64 65 61 65 61 57 54 49 46 45 45 41 36
42 41 37 33 31 30 30 30 31 31 31 32 34 37 33 32 31 30 34 35 43 44 44 46 44 41 36 40 45 45 50 49 55 56 63 65 64 66 64 59 54 52 50 50 41 39 36
45 43 43 38 34 32 32 31 32 31 32 33 35 37 32 32 32 33 37 41 43 42 41 41 39 38 38 40 44 47 48 57 60 60 55 65 67 67 64 62 57 56 54 45 42 37 40
46 44 44 43 39 35 34 33 34 31 32 34 36 37 32 30 31 32 34 38 39 39 37 38 40 38 34 38 42 46 50 47 50 55 61 63 67 67 66 63 64 60 54 43 38 39 39
48 45 44 45 43 39 36 34 34 32 33 34 37 36 33 30 30 32 35 37 38 41 37 39 39 37 35 38 44 44 41 39 45 50 58 59 66 69 66 62 59 54 44 40 37 40 39
53 47 43 45 45 42 39 36 34 33 32 34 37 36 34 30 31 32 34 38 40 41 38 38 37 37 35 35 38 35 37 37 40 45 53 57 64 64 43 58 55 51 47 41 41 38 36
54 53 44 45 45 43 40 37 35 33 32 34 36 36 34 31 32 33 34 34 38 40 35 35 36 34 32 33 29 29 33 37 35 43 51 49 62 64 54 57 47 53 46 42 37 34 35
58 55 49 44 45 43 40 38 35 34 32 33 36 34 34 30 31 31 33 34 37 29 38 41 36 34 33 26 21 28 30 36 36 43 44 51 60 60 58 52 48 49 45 43 35 34 34
56 52 54 45 45 44 40 39 35 35 31 31 35 34 34 28 28 31 36 32 34 27 39 36 32 28 28 22 16 23 26 36 40 43 54 47 59 50 52 49 42 45 46 40 36 35 32
57 56 57 45 45 44 40 39 36 35 32 30 34 32 32 27 27 31 34 31 34 29 38 32 31 23 20 15 21 21 26 35 43 50 53 52 53 49 53 43 42 49 46 41 35 33 30
58 56 55 47 45 44 41 39 37 34 32 29 32 29 30 28 28 31 29 31 32 25 29 26 21 25 19 19 24 23 26 42 43 51 52 56 46 51 52 42 44 49 43 37 34 34 27
52 57 55 49 43 44 42 40 36 33 31 27 31 26 30 28 26 31 26 32 28 26 25 25 23 22 21 27 26 25 36 43 31 56 46 48 44 43 61 43 45 49 43 39 34 29 27
47 53 56 51 43 43 42 39 35 33 30 26 29 24 28 24 21 23 25 27 19 21 23 31 19 16 22 28 27 32 41 33 42 59 47 48 46 37 49 51 40 44 43 39 33 27 27
47 53 49 51 43 43 41 38 33 31 29 25 26 21 26 20 17 17 18 18 14 16 15 15 7 16 25 27 31 40 45 31 51 58 49 38 43 37 47 46 41 39 38 37 32 27 26
51 50 58 51 44 43 41 36 33 30 27 23 23 19 22 19 16 11 14 15 10 15 7 5 13 17 25 28 35 40 43 42 51 51 42 46 44 53 43 41 45 46 42 38 31 30 28
51 47 56 52 49 43 41 34 33 29 25 23 21 17 19 16 14 11 11 11 7 13 4 8 10 20 22 30 37 38 39 41 44 48 40 40 40 46 46 43 36 38 38 31 35 33 27
50 47 56 46 50 42 39 33 32 29 24 21 19 16 18 13 10 8 8 12 10 6 6 11 14 18 21 29 34 34 39 40 43 42 41 39 40 42 43 45 46 47 29 29 27 27 30
51 50 51 44 45 43 37 32 30 28 23 21 18 15 16 13 10 8 8 14 11 4 4 11 13 17 21 26 32 36 39 38 35 33 38 39 37 39 38 36 36 30 30 29 29 31 27
52 51 51 53 43 41 36 32 30 27 23 20 17 16 13 12 11 8 6 10 12 12 6 8 12 14 14 25 32 32 36 37 36 30 29 32 34 35 35 34 37 38 38 38 34 31 31
50 53 53 50 48 40 36 33 31 27 23 20 16 16 15 14 15 11 5 6 8 11 15 12 15 14 15 17 19 26 34 35 33 33 31 28 29 30 31 34 36 40 41 38 36 34 29
50 55 52 49 48 45 34 32 30 27 22 19 18 16 14 14 17 12 7 5 7 9 14 18 17 18 18 23 28 24 27 30 23 20 19 25 27 31 32 34 36 37 40 38 36 34 30
50 44 54 53 54 47 45 36 30 26 23 21 19 16 14 15 18 12 11 4 5 12 15 16 22 18 25 31 34 27 31 32 28 24 22 21 23 28 29 35 37 33 33 36 36 34 32
55 45 46 55 55 55 49 38 32 28 25 22 20 17 15 16 19 13 13 3 10 13 15 16 24 20 25 33 34 30 28 34 29 30 24 25 20 19 20 24 26 26 28 28 26 23 25
54 48 44 48 54 56 46 37 32 29 27 24 21 18 17 19 20 17 16 10 12 11 17 18 23 24 26 39 33 27 24 25 30 34 25 25 23 20 26 16 18 19 22 24 25 22 22
56 52 44 50 52 51 46 43 33 30 28 25 22 21 19 22 22 20 20 15 15 16 21 20 22 26 26 33 36 35 30 29 26 27 28 25 32 24 22 20 21 26 25 25 26 21 20
54 52 45 52 47 44 42 38 35 33 30 28 23 22 22 25 25 25 24 18 16 23 20 19 19 23 30 17 20 21 23 31 28 26 22 22 26 24 22 24 23 26 30 27 26 26 27
55 53 46 49 56 50 46 38 37 34 32 28 25 25 23 27 28 26 27 21 19 27 21 19 18 20 21 25 17 17 20 22 23 25 24 27 24 22 23 24 22 17 18 20 25 29 31

GFSGBSN_500_spd_003.txt.gz
Wind_Speed
38 37 33 32 31 29 29 27 26 27 28 29 28 30 29 30 32 35 35 33 34 33 38 39 41 41 42 44 46 47 49 47 51 53 54 52 54 54 51 52 55 54 45 44 42 42 44
41 40 38 35 34 32 31 30 29 28 27 31 30 31 30 30 31 34 34 34 36 36 37 38 39 41 43 45 48 49 51 54 54 55 56 57 56 57 55 53 57 54 47 46 46 47 46
41 43 44 41 38 35 33 33 32 31 29 31 31 31 31 31 31 34 36 35 38 39 38 39 41 47 48 48 48 52 53 53 53 53 55 58 56 60 58 56 55 55 51 49 49 49 47
44 45 45 46 44 41 38 36 35 34 32 31 32 32 30 31 33 35 38 35 38 42 42 44 48 50 48 47 50 50 51 54 54 51 52 56 57 59 61 61 58 59 55 53 49 49 46
49 48 48 47 48 48 41 40 39 37 35 33 34 33 30 32 34 37 39 36 38 39 38 43 45 47 48 43 46 49 53 53 54 53 53 56 60 59 60 60 59 58 60 54 53 51 46
56 56 53 51 48 48 48 41 43 41 38 36 37 34 32 31 34 38 42 38 37 37 41 42 45 46 45 42 45 48 49 49 50 50 54 54 56 64 64 64 66 59 59 56 53 54 47
49 56 59 55 53 48 50 46 43 44 41 38 37 36 33 31 33 38 43 38 41 42 43 42 43 46 41 41 43 45 45 46 49 46 49 52 59 59 57 62 60 55 58 55 51 50 48
54 54 57 59 54 51 48 49 45 45 43 40 38 37 34 32 34 37 42 40 42 43 44 41 46 44 41 42 43 44 47 46 49 53 53 60 67 61 54 63 65 62 57 51 49 52 45
63 60 57 59 57 54 49 48 45 44 43 41 39 36 34 33 35 38 38 39 40 41 44 45 45 45 40 43 45 43 43 42 44 51 51 53 52 54 62 66 61 61 52 52 51 52 42
69 68 65 62 59 54 56 45 43 43 42 41 38 35 33 33 35 37 35 36 41 46 48 48 44 39 42 41 40 41 38 37 36 37 38 45 45 55 58 64 58 58 57 41 53 47 42
66 73 71 67 61 55 53 48 44 44 41 39 37 33 32 32 34 35 34 37 43 44 46 47 40 33 34 29 32 34 27 30 30 30 41 41 43 51 58 59 57 52 33 53 54 46 44
51 63 71 63 59 56 54 50 42 43 39 37 34 32 31 31 34 34 35 39 46 40 47 44 39 33 33 30 22 27 22 24 28 35 33 41 40 50 59 54 60 51 47 45 49 47 42
59 49 55 57 57 56 52 50 44 41 38 36 33 30 29 30 30 33 35 38 38 39 37 32 33 29 27 23 22 17 16 22 29 28 45 34 46 51 57 62 55 48 53 56 49 45 39
48 51 50 51 54 57 53 52 44 40 37 35 31 28 27 28 30 32 31 35 33 35 31 30 32 28 20 21 20 20 19 25 33 29 33 37 51 49 54 64 47 61 40 43 51 43 36
45 49 46 46 50 58 56 51 45 40 36 33 27 25 24 26 27 28 29 30 29 31 28 29 33 21 15 19 19 21 20 23 34 26 33 45 44 47 41 50 44 50 36 48 45 40 32
50 57 40 45 50 54 56 50 44 38 34 29 24 23 23 23 25 26 28 26 26 24 23 26 22 6 7 14 23 19 21 35 44 41 39 47 41 48 51 51 52 39 41 44 43 35 29
42 44 52 42 44 48 51 48 41 36 31 26 22 21 23 21 23 21 26 21 22 21 22 15 7 7 9 16 17 19 40 34 44 43 33 30 36 41 32 51 48 46 41 42 38 34 28
41 48 48 44 41 48 52 50 39 35 31 25 21 20 21 20 21 17 22 17 19 17 18 6 3 5 7 13 20 26 23 32 49 43 36 26 21 43 42 50 46 24 41 38 35 32 29
62 50 48 47 42 48 44 46 38 34 30 25 20 20 18 19 18 14 18 12 14 16 14 3 6 12 13 22 31 25 28 47 45 39 25 19 24 42 29 48 43 46 26 34 32 32 30
54 52 49 51 45 48 42 42 37 34 30 26 21 20 17 17 18 16 19 10 12 13 8 2 11 14 20 20 26 30 31 41 46 29 28 31 28 38 32 27 27 27 27 32 29 28 32
50 59 46 47 44 49 39 41 37 35 31 27 21 20 17 14 16 15 19 11 10 14 5 4 11 12 20 21 24 28 31 33 37 36 26 33 28 29 37 34 35 36 32 29 32 27 26
46 55 47 50 48 52 45 42 37 36 33 27 22 19 18 16 16 17 19 8 4 12 16 6 9 14 13 18 22 29 30 31 32 33 30 29 28 27 27 27 29 36 35 35 33 29 27
54 49 51 49 53 51 45 45 37 35 30 25 23 21 19 17 16 15 18 13 8 14 13 15 12 14 18 22 24 30 31 23 25 29 26 27 28 28 29 30 31 34 34 36 33 32 32
56 52 56 53 54 44 40 40 37 35 31 28 23 20 18 17 16 14 17 13 13 16 14 20 18 19 23 26 27 30 35 33 30 26 27 24 26 28 29 29 31 32 32 33 36 36 35
52 57 54 53 55 54 45 40 38 35 33 28 25 21 18 17 16 14 15 16 15 12 22 23 27 24 27 28 28 28 29 30 30 29 25 23 23 26 27 28 27 27 28 30 33 33 38
56 57 57 54 56 56 53 44 35 36 33 29 26 22 18 17 15 17 15 15 11 10 19 20 20 28 31 29 35 28 30 32 35 30 29 28 26 25 24 24 21 20 23 28 31 26 26
64 60 54 54 51 54 47 47 45 38 31 30 27 23 20 19 16 20 19 16 8 10 16 20 26 27 25 31 34 31 30 25 31 29 26 26 25 24 23 20 17 17 21 23 25 24 26
64 59 56 52 50 55 53 45 40 35 33 34 29 25 21 20 19 22 23 17 11 14 16 20 24 26 21 33 35 30 28 19 22 27 26 28 25 23 27 22 20 19 23 24 22 24 29
66 62 57 54 46 48 54 54 49 42 38 34 30 27 23 21 21 25 25 19 14 21 21 17 18 23 23 25 30 31 31 27 29 28 26 32 29 28 26 19 21 21 21 24 26 28 29

GFSGBSN_500_spd_006.txt.gz
Wind_Speed
34 33 36 37 37 37 35 34 33 34 33 31 30 30 29 30 29 28 29 29 29 31 34 36 37 37 34 35 33 39 43 41 43 44 46 49 49 49 49 49 50 47 45 45 42 42 45
40 37 37 39 41 40 38 37 37 36 35 34 32 31 31 31 28 28 29 29 30 31 35 38 39 39 38 37 37 40 40 42 43 45 47 48 49 50 50 52 54 50 49 46 45 43 46
47 44 41 40 42 45 44 40 39 38 37 36 36 34 34 31 31 29 29 29 31 31 35 39 41 40 41 36 39 43 46 45 48 47 48 50 54 56 55 56 57 55 54 50 47 48 46
45 49 47 45 44 45 47 47 44 43 41 37 37 37 37 34 33 31 31 29 33 30 36 38 39 42 43 43 46 46 48 50 51 51 53 56 58 60 60 60 58 57 53 52 44 51 49
36 41 47 50 50 49 48 49 50 48 46 44 39 40 39 38 35 34 33 32 33 30 36 40 40 40 42 42 44 49 48 48 51 51 52 55 58 59 58 57 57 59 58 49 48 50 51
47 48 47 46 48 51 53 51 50 50 50 48 44 41 41 40 38 36 35 35 34 32 35 38 40 42 43 44 45 45 47 49 50 51 53 54 55 56 58 59 61 58 59 53 50 47 49
56 56 56 55 53 50 52 56 53 50 51 50 49 42 42 42 40 37 36 37 37 36 38 40 43 43 46 44 43 45 48 49 48 48 48 50 53 57 55 52 50 50 54 52 50 47 50
65 64 66 65 62 58 53 53 56 53 50 50 49 44 42 42 41 38 36 37 38 37 42 42 42 42 46 44 43 46 47 46 44 44 45 51 55 48 48 50 52 52 52 48 49 44 49
73 74 74 75 73 66 60 55 53 54 51 48 47 46 43 41 40 38 36 37 36 38 45 44 42 47 44 45 44 42 42 42 43 44 47 51 44 44 47 51 53 51 50 44 47 42 45
77 77 80 82 82 72 66 59 54 52 50 50 44 45 45 40 39 38 35 34 35 39 47 46 48 41 41 42 39 35 40 44 43 39 44 51 46 53 54 50 50 55 46 46 51 47 53
74 71 70 76 78 74 69 63 58 52 51 53 41 43 42 39 36 35 34 34 36 41 48 45 48 44 41 33 32 33 37 40 39 40 43 42 45 51 58 55 53 57 48 59 54 37 48
66 65 61 62 63 55 64 65 60 53 50 48 42 42 40 36 36 33 31 33 37 41 46 47 42 41 36 34 34 32 34 32 32 35 38 38 38 41 43 52 60 56 58 61 43 49 56
53 53 52 56 55 47 55 53 57 51 49 46 44 40 39 34 32 30 31 33 38 38 41 42 41 39 39 38 30 30 30 29 28 28 31 31 28 33 37 36 54 66 58 56 46 46 36
44 46 48 49 50 43 46 37 44 48 49 44 42 40 39 33 28 28 30 34 36 35 41 39 39 39 38 38 25 23 25 21 20 19 20 21 26 32 38 44 52 65 61 45 51 47 56
36 40 42 45 51 36 46 43 49 48 48 45 44 40 33 31 24 28 29 30 31 33 36 37 34 36 34 14 15 19 20 18 16 20 18 5 27 30 30 42 50 60 56 43 21 23 39
32 34 32 49 47 34 42 46 48 47 46 47 44 38 30 29 23 25 27 28 28 30 31 30 30 25 17 6 9 15 16 12 14 21 18 16 22 21 30 44 57 51 42 36 28 35 32
27 26 34 53 55 42 42 42 43 36 47 48 42 36 30 26 23 22 22 23 24 24 26 26 19 17 10 5 5 11 10 14 20 24 8 15 27 31 38 45 30 41 39 46 22 35 38
20 25 40 46 44 46 44 41 48 48 50 45 40 36 29 25 22 20 19 20 18 17 21 21 9 10 10 7 1 6 6 11 19 8 22 26 27 30 54 50 35 31 37 38 32 36 36
22 34 43 36 47 41 36 43 43 44 42 42 38 35 28 22 18 18 18 17 14 14 19 12 2 3 4 13 11 15 14 14 17 19 14 23 10 28 23 32 35 39 35 31 36 34 30
24 43 45 43 43 33 32 36 30 38 40 39 39 33 25 18 19 19 17 16 14 13 14 8 5 6 8 16 11 14 13 14 23 20 13 10 25 13 22 34 30 31 36 31 33 33 28
32 50 43 47 49 42 34 40 32 32 39 40 37 30 23 20 20 18 16 14 13 13 13 6 5 13 12 11 12 15 15 26 31 24 15 13 11 22 23 29 32 28 19 24 32 28 26
32 47 43 56 53 41 42 38 30 41 45 41 35 30 22 22 21 19 15 13 10 10 14 6 7 15 16 14 15 17 24 27 25 17 13 14 15 20 23 17 23 22 22 23 27 26 26
34 52 50 55 51 45 38 33 29 42 44 39 34 28 25 23 20 17 15 13 10 11 14 13 10 16 20 18 18 18 16 18 21 21 12 13 15 19 21 20 19 20 23 22 21 19 26
36 56 50 49 51 45 39 32 34 47 42 38 32 29 27 22 20 16 16 14 13 12 12 17 14 15 21 21 20 24 20 20 21 21 15 13 17 15 16 16 18 19 20 24 26 29 25
42 58 53 55 51 47 48 29 36 49 41 37 33 31 27 21 21 16 14 15 16 18 16 18 19 21 19 25 23 27 28 26 26 25 22 19 18 16 21 21 20 19 22 24 25 28 31
41 56 64 60 50 45 52 42 43 45 39 39 34 31 26 22 20 16 15 14 13 12 13 20 27 21 18 19 27 27 31 29 26 26 25 25 23 21 22 21 19 18 17 20 23 25 28
44 65 63 57 54 48 53 50 43 46 41 37 34 32 26 22 19 16 16 15 14 9 10 25 28 28 26 26 25 24 27 28 28 26 24 22 22 24 18 17 19 15 18 18 19 22 25
45 64 57 54 55 47 45 33 37 44 40 37 34 30 27 22 20 18 17 15 14 12 15 21 21 25 26 27 25 25 21 20 22 26 24 21 20 21 19 15 13 17 17 14 15 18 23
40 60 57 58 55 51 53 35 39 46 41 36 33 29 26 22 20 18 17 21 14 16 12 18 20 21 25 23 22 28 27 21 14 21 26 23 20 22 20 13 19 15 21 15 17 19 19

GFSGBSN_500_spd_009.txt.gz
Wind_Speed
32 40 40 35 32 33 36 38 36 36 35 36 34 33 32 32 31 32 33 33 30 28 27 28 27 26 28 31 34 36 30 30 32 36 38 40 42 45 46 45 45 42 42 41 36 38 40
32 32 44 44 38 35 37 40 41 40 38 37 38 35 35 34 32 32 32 33 31 29 28 28 29 28 29 30 35 40 37 34 34 34 36 37 40 44 45 46 48 46 46 43 42 39 41
39 34 34 44 48 43 39 40 42 43 43 41 38 38 37 36 34 33 31 33 32 29 29 28 29 33 27 34 36 41 43 39 38 37 38 40 43 44 46 47 48 48 48 46 44 43 42
45 42 38 35 40 50 47 44 43 44 45 45 43 40 39 37 36 35 34 34 33 31 29 31 29 34 28 34 36 40 44 43 43 45 44 44 45 46 47 47 46 47 50 50 48 47 45
51 50 48 45 41 40 47 50 49 47 46 47 47 46 44 42 39 37 35 35 36 34 33 33 32 35 32 34 36 39 42 43 45 46 47 48 48 46 47 49 51 53 54 55 52 49 49
49 55 56 53 51 49 47 46 49 51 51 49 48 48 48 46 44 42 38 36 37 38 36 35 34 37 36 34 36 40 40 42 46 45 43 43 46 46 48 52 54 54 55 56 54 48 51
58 57 57 58 60 61 57 54 52 50 51 53 51 49 47 48 47 45 42 37 39 40 39 38 38 36 37 33 38 38 40 41 42 44 44 44 47 52 48 45 45 47 49 51 51 50 51
62 63 64 65 67 67 65 63 60 56 52 50 54 51 48 47 47 45 44 39 40 41 42 39 37 37 36 37 38 42 44 43 43 45 49 52 53 45 43 44 48 49 51 51 51 49 52
71 69 69 69 72 72 71 71 68 62 57 52 49 52 49 48 46 45 45 39 40 43 43 40 37 39 37 38 42 37 41 42 46 50 50 51 50 43 46 46 47 49 51 47 49 45 46
73 72 69 68 66 69 71 67 68 67 60 55 50 49 48 45 44 42 43 40 40 42 44 43 41 31 34 41 42 38 42 44 46 44 44 49 46 46 47 48 47 49 43 42 42 43 45
74 71 64 59 59 59 60 59 51 54 58 56 51 47 48 46 49 40 42 38 36 42 45 43 40 40 41 42 43 39 39 40 42 42 45 45 45 42 46 39 42 38 41 43 41 44 43
64 59 55 51 49 51 57 59 44 41 46 53 51 47 45 46 46 39 39 33 37 42 43 43 42 40 42 43 42 41 42 39 38 38 42 43 43 45 42 42 44 43 40 43 41 44 47
59 54 47 42 41 46 53 57 56 44 43 49 50 47 45 46 44 38 36 32 38 36 37 41 40 39 42 41 41 39 39 34 35 35 41 41 38 38 39 41 43 50 49 44 44 47 56
54 43 36 31 34 38 47 52 61 47 41 37 46 46 45 42 42 38 33 34 35 33 35 37 37 38 38 37 36 34 27 24 24 28 33 33 30 33 35 42 43 47 50 49 50 58 44
45 33 26 23 23 27 35 39 46 41 42 40 44 43 42 38 41 35 34 33 27 30 33 32 33 33 29 29 27 18 13 20 21 21 20 19 14 20 20 27 36 45 56 46 47 46 45
38 26 14 10 16 21 38 48 39 43 37 41 40 41 39 38 38 34 32 25 24 30 28 28 27 24 23 22 15 12 10 9 12 13 19 18 18 11 10 25 32 44 50 55 51 41 51
31 14 6 7 12 27 48 31 37 39 40 34 35 39 39 39 36 35 25 22 23 24 23 23 20 18 19 16 5 4 4 8 8 14 20 7 10 15 20 17 31 38 54 59 58 24 34
25 9 17 21 23 34 49 26 42 38 37 43 38 42 40 40 38 28 25 22 19 18 21 21 16 15 14 8 5 4 3 4 9 12 5 4 4 4 11 15 30 20 40 64 56 20 21
21 14 17 22 27 34 34 42 36 35 43 32 36 41 39 38 33 25 23 20 15 15 18 12 13 9 1 11 1 5 5 8 13 8 5 10 8 3 16 19 29 37 47 54 36 18 32
20 12 14 20 33 35 52 36 34 35 37 42 45 38 40 38 28 28 24 16 13 18 16 6 9 6 4 8 5 7 6 6 9 9 12 13 11 11 22 26 25 28 33 37 15 14 30
20 13 13 37 36 49 42 32 35 32 36 33 36 43 35 32 30 29 23 14 14 16 15 4 7 8 6 4 2 2 7 10 5 16 16 12 10 28 29 22 20 22 28 35 17 25 26
15 14 32 39 41 47 36 32 35 36 30 40 35 33 35 32 28 27 16 13 15 16 14 9 12 13 11 11 8 5 7 12 9 8 14 11 23 24 16 18 20 17 14 16 22 21 22
9 28 40 35 51 43 43 35 35 39 36 36 34 37 36 34 27 22 16 17 17 16 16 11 14 13 13 13 14 15 15 17 14 2 4 9 22 18 18 12 12 7 5 11 15 25 21
11 35 39 56 44 37 34 30 37 40 37 37 38 34 33 31 27 21 18 16 16 14 16 16 18 17 17 19 17 15 15 16 16 6 10 10 13 14 15 10 13 13 13 17 19 18 17
12 39 49 49 43 41 40 33 34 40 32 33 41 38 34 29 24 22 18 14 17 20 16 16 22 23 20 21 20 18 19 20 18 16 7 9 10 8 9 10 10 10 11 15 17 20 21
10 39 54 47 50 50 38 36 36 35 29 29 42 38 34 29 25 21 17 15 16 17 18 15 23 27 24 23 22 23 23 23 24 20 16 11 11 11 8 11 11 11 12 14 17 20 21
10 38 53 55 56 48 44 36 34 28 32 40 38 36 34 29 24 20 15 14 18 14 13 11 23 26 22 22 21 19 26 22 19 17 15 14 13 10 9 11 11 11 12 13 14 17 19
13 38 54 57 56 51 47 41 39 28 34 40 38 40 34 28 24 20 15 14 15 13 12 11 26 27 22 23 20 17 20 26 23 18 17 16 15 11 9 9 9 13 15 14 14 15 17
13 33 59 58 57 51 46 43 41 30 36 43 42 40 32 26 23 20 16 14 20 8 15 17 22 25 26 20 15 17 16 16 17 17 18 17 14 12 10 12 10 11 11 12 11 12 14

GFSGBSN_500_spd_012.txt.gz
Wind_Speed
48 42 39 33 32 42 40 34 33 36 36 35 34 32 31 31 31 29 28 29 30 31 31 32 29 28 28 29 29 26 23 27 32 33 34 36 41 44 42 43 41 40 39 38 36 34 36
38 44 44 39 34 33 45 43 37 35 38 39 37 36 35 33 33 32 30 29 29 29 30 31 30 29 30 32 32 31 27 26 31 35 35 37 37 41 44 43 45 43 42 43 42 38 38
42 39 40 45 41 37 34 44 46 41 38 41 42 40 39 37 35 34 34 31 31 30 29 29 31 30 30 33 33 33 32 29 30 36 40 39 40 39 39 40 43 43 43 42 44 44 43
49 47 42 40 45 43 40 38 41 48 45 41 42 44 43 41 39 36 34 33 31 32 31 31 31 31 30 32 33 33 36 32 33 35 40 43 42 42 41 41 42 43 44 44 44 46 48
48 49 48 47 45 46 47 45 44 42 47 49 46 44 45 45 43 41 37 35 33 31 32 32 32 31 30 30 33 35 37 36 35 36 38 43 47 46 46 46 47 48 46 46 47 48 48
53 55 54 54 52 51 51 53 49 50 45 47 51 49 46 45 46 45 43 40 38 36 34 34 33 34 34 33 34 35 36 38 38 37 38 39 46 50 50 49 47 47 47 46 48 45 48
56 57 60 62 60 60 59 57 55 53 53 51 47 51 51 48 46 46 45 44 42 39 40 38 36 34 32 34 35 37 38 39 40 39 38 40 46 48 45 45 47 49 47 47 49 53 53
66 67 65 61 63 64 66 63 60 60 60 57 55 50 49 52 50 47 44 44 45 44 41 39 38 37 39 37 35 37 40 41 42 40 43 46 45 43 47 49 49 49 49 48 50 53 55
74 75 73 66 61 61 61 63 64 60 63 62 59 56 52 50 52 47 46 43 43 43 44 40 42 40 40 41 40 38 38 42 42 43 44 44 44 47 50 52 54 53 53 51 51 48 54
79 75 69 64 62 56 55 57 60 57 61 58 60 59 55 52 47 47 45 43 41 40 44 41 43 43 40 38 40 44 45 43 44 42 44 48 47 49 49 51 51 50 47 46 46 48 51
73 67 60 55 51 48 44 50 53 55 53 53 53 58 56 52 48 43 45 42 39 40 44 44 43 40 40 42 45 42 44 47 44 43 45 47 45 47 53 46 45 47 43 46 47 48 49
67 58 51 47 43 41 37 41 47 44 39 37 47 48 56 51 47 43 41 40 40 41 44 42 39 40 43 43 44 44 45 46 45 44 46 47 50 50 48 47 48 46 44 45 47 46 52
59 54 50 39 33 31 27 35 42 45 44 46 35 39 46 51 47 43 40 40 39 41 39 37 37 38 40 42 42 43 45 41 38 40 42 41 40 39 41 41 43 45 46 45 46 49 58
55 53 40 28 23 16 11 23 38 51 49 50 36 40 42 48 46 41 40 39 39 38 33 34 37 37 38 39 39 38 39 35 34 32 32 34 34 41 38 37 38 41 43 46 47 47 45
55 48 30 13 14 6 17 17 37 59 45 39 31 31 35 42 42 41 40 38 32 32 31 35 33 36 34 34 35 36 33 26 18 16 20 23 31 33 36 37 37 34 43 35 45 42 37
55 42 17 8 11 5 15 15 34 55 51 40 27 31 40 40 39 41 39 34 31 30 33 31 31 30 27 29 29 26 24 17 16 16 19 17 20 24 31 32 34 38 33 42 45 46 44
54 37 12 13 12 10 11 12 38 65 50 45 41 42 39 36 39 41 36 29 29 32 30 28 26 24 21 17 6 7 9 5 4 9 14 16 22 24 28 26 27 33 41 37 42 46 44
53 35 17 17 20 20 24 23 49 51 46 47 46 38 35 39 39 39 34 29 30 27 27 24 21 19 8 6 5 4 7 8 10 11 14 14 14 11 15 24 20 25 33 37 43 46 35
51 32 18 14 15 13 20 27 42 62 47 46 43 39 38 36 37 37 27 28 27 25 24 21 17 14 9 13 9 11 13 19 19 14 17 11 3 6 3 12 9 20 36 43 40 43 31
47 28 14 5 11 21 32 37 43 47 42 51 46 41 38 43 35 32 29 26 25 24 22 16 16 13 10 16 14 10 12 17 18 11 8 14 9 3 3 5 12 7 23 38 42 43 42
44 23 10 9 21 31 37 49 48 47 46 41 40 43 40 44 36 29 29 26 24 22 18 18 18 11 10 16 13 6 8 14 12 8 3 9 23 18 4 10 10 10 22 32 42 42 24
39 20 10 18 38 40 42 43 41 43 37 35 36 42 34 31 31 30 28 22 24 22 19 23 17 12 8 9 9 8 8 1 8 11 10 17 27 16 16 16 13 15 17 27 23 18 11
35 11 11 30 36 35 38 42 42 35 45 37 38 33 26 28 28 27 25 25 25 19 22 21 15 12 12 15 11 6 9 5 5 10 18 23 22 15 4 12 14 11 15 16 15 23 37
29 5 23 35 31 34 35 32 35 43 44 38 33 31 35 31 30 25 24 27 21 18 23 18 16 13 20 17 14 14 15 10 7 3 13 20 24 21 17 12 15 19 18 14 21 24 18
25 10 31 39 37 42 32 27 31 37 32 40 32 29 30 29 30 28 26 23 20 20 20 15 16 17 21 19 19 16 16 12 7 8 8 15 18 13 12 14 15 16 15 17 22 20 20
22 17 40 45 37 39 32 29 31 32 34 33 30 31 31 30 29 28 25 21 20 20 23 20 18 22 25 23 19 18 16 14 12 7 3 6 8 9 8 10 12 12 10 10 12 13 14
20 18 45 44 42 44 39 34 30 28 35 27 30 33 37 31 29 28 24 22 18 17 20 18 15 22 31 25 20 20 19 20 21 16 12 6 3 5 6 4 5 8 10 11 15 14 16
19 15 50 48 52 49 38 37 34 32 32 31 23 30 34 33 29 25 22 19 17 18 16 14 15 22 30 24 17 17 15 18 18 17 15 11 9 6 1 4 3 5 7 9 10 12 13
17 15 43 53 59 52 43 36 29 35 31 31 26 28 32 31 28 25 21 18 15 18 13 16 14 20 26 22 15 16 14 13 18 16 14 13 12 10 10 7 7 7 7 9 9 9 11

GFSGBSN_500_spd_015.txt.gz
Wind_Speed
40 41 40 38 37 38 41 36 35 43 39 34 37 38 35 33 31 29 27 27 26 26 29 29 29 29 29 31 31 29 27 28 29 29 31 32 33 37 36 44 47 47 39 38 35 33 33
38 40 40 40 39 38 35 39 35 36 46 40 35 40 39 36 34 31 29 28 27 26 26 27 28 28 28 30 31 28 27 28 30 30 31 32 34 36 37 36 44 47 47 44 43 38 38
41 43 44 44 41 37 37 37 40 39 37 47 41 38 40 40 37 35 33 31 28 28 26 26 26 27 28 29 28 29 29 30 31 31 33 34 33 35 37 37 40 42 47 48 46 43 42
42 43 44 45 45 45 41 40 38 45 41 39 48 44 39 42 41 39 36 34 32 31 29 27 27 26 27 28 27 27 28 28 30 32 34 35 35 36 40 40 42 42 44 46 47 46 46
46 48 49 50 47 47 47 48 44 44 46 45 42 49 47 42 42 43 41 38 36 33 31 29 27 26 27 28 29 27 28 30 32 33 34 36 38 36 37 42 46 45 44 43 45 45 48
51 53 56 57 57 56 52 51 52 50 48 48 50 44 51 50 45 43 43 42 39 38 35 31 29 29 29 28 29 30 30 30 31 33 34 37 39 39 40 38 42 45 48 49 50 51 51
59 62 65 67 67 66 62 59 54 56 54 52 53 53 49 52 51 48 44 43 42 41 38 36 35 32 32 31 31 32 32 32 33 34 35 38 40 41 40 38 41 47 54 55 54 54 54
66 70 74 76 75 71 68 65 58 57 58 57 56 57 55 50 50 53 49 44 43 43 41 40 39 36 34 33 33 34 34 34 36 37 39 40 40 42 44 44 46 48 51 53 54 53 56
70 76 81 77 72 69 64 58 59 56 59 60 59 59 59 54 52 49 49 48 47 43 42 41 40 39 39 39 38 36 38 37 38 41 43 43 41 45 49 49 49 48 50 52 53 52 53
78 85 79 69 64 59 56 52 48 54 56 57 58 58 57 60 57 50 44 47 48 44 45 41 40 41 41 41 42 43 39 39 41 43 47 48 46 47 48 49 49 50 49 52 54 57 57
85 84 72 63 56 51 50 46 44 47 51 53 46 50 49 62 58 50 46 48 44 44 45 41 40 40 40 41 42 42 43 44 44 47 50 49 48 50 52 51 55 56 53 54 56 58 60
88 77 63 57 53 44 36 34 32 40 48 52 48 49 46 50 58 52 51 47 43 41 44 40 39 38 40 41 41 41 44 47 48 51 51 50 51 53 51 52 56 55 54 55 56 57 64
84 69 58 55 42 27 15 14 19 32 45 62 46 45 41 41 40 48 51 47 44 42 37 38 37 38 40 41 40 38 42 47 49 49 49 48 47 49 51 51 54 54 50 51 53 57 67
76 60 57 46 29 7 2 5 14 24 44 72 50 42 38 42 34 47 51 48 45 39 35 36 36 38 36 34 34 40 45 43 43 45 45 47 49 44 42 42 40 42 41 46 50 54 58
71 57 54 34 1 12 7 18 8 16 41 64 45 41 50 41 42 43 49 48 41 35 36 35 36 35 31 31 37 36 35 39 38 33 28 27 27 23 26 31 34 40 41 33 40 46 47
67 56 50 14 8 3 14 13 10 24 46 62 57 50 48 37 36 37 46 45 39 36 34 34 33 29 28 32 29 23 20 16 9 12 16 20 22 24 29 34 36 38 37 34 37 38 43
64 54 47 20 15 11 10 12 13 29 52 56 60 35 43 40 35 37 47 41 38 34 34 33 27 26 29 26 13 8 10 6 10 15 18 21 21 16 25 23 27 32 34 39 39 42 37
63 52 45 25 17 16 13 17 17 27 52 54 28 37 44 35 37 28 37 38 36 34 34 27 26 28 23 16 14 14 12 20 19 20 19 23 27 26 28 33 32 35 32 34 41 36 40
63 52 41 23 10 7 9 15 18 44 52 49 41 24 36 39 33 30 32 31 33 32 28 24 27 20 16 13 17 20 14 20 23 26 20 19 26 29 22 19 23 33 38 34 33 32 36
63 51 40 22 9 9 18 15 24 47 53 49 28 24 32 35 38 22 27 29 29 27 25 26 20 15 14 18 23 20 15 17 19 19 16 20 23 26 23 21 16 15 14 18 34 34 23
63 50 38 23 7 16 22 19 30 45 49 40 24 21 24 41 31 31 30 30 27 25 27 23 15 13 14 16 21 23 14 17 12 9 8 15 24 24 14 1 9 10 6 11 23 15 25
60 47 32 17 7 17 18 20 51 50 40 32 21 33 29 32 23 26 24 24 24 26 23 16 14 15 12 14 19 15 12 15 5 12 13 17 27 13 5 10 10 1 8 12 18 22 24
57 42 25 7 16 15 22 38 54 44 35 36 39 31 33 24 26 27 22 20 23 20 18 15 18 13 11 21 15 13 9 10 13 16 12 17 22 17 6 8 8 5 12 20 22 22 11
54 35 12 12 24 24 33 45 48 45 33 32 37 28 29 26 26 26 20 20 20 16 16 18 22 15 15 17 15 12 9 2 9 9 13 17 21 17 10 13 11 13 18 9 10 3 17
55 30 11 23 31 35 40 44 45 44 34 35 29 29 27 29 26 22 23 19 17 19 19 18 16 15 14 14 16 16 15 11 3 6 9 11 13 16 13 14 16 19 17 17 23 23 25
62 32 16 30 35 36 35 33 36 38 28 39 30 27 31 26 26 24 24 22 20 17 19 16 17 13 15 17 17 15 13 9 7 6 7 5 7 11 11 10 14 14 11 19 22 16 15
65 32 17 36 37 37 36 27 23 23 35 34 26 29 22 25 26 24 24 21 17 17 16 17 20 21 19 18 19 17 17 14 12 10 7 6 6 7 8 7 7 8 10 12 11 13 14
62 33 14 44 42 37 35 24 23 36 36 34 26 27 22 22 24 23 22 19 18 17 16 17 17 19 19 18 23 16 19 20 19 16 13 9 8 8 7 6 7 6 4 3 3 6 8
60 36 15 45 46 42 37 33 27 29 31 33 26 29 26 23 27 22 21 21 19 16 14 19 21 18 19 17 19 16 17 18 21 20 17 11 9 9 8 5 5 5 7 9 9 9 9

GFSGBSN_500_spd_018.txt.gz
Wind_Speed
33 35 36 37 37 37 36 32 32 35 36 40 36 40 35 36 38 36 35 33 31 29 28 31 33 33 33 31 30 29 30 30 30 27 30 27 27 28 28 29 32 36 36 42 38 37 37
37 38 38 40 40 40 40 39 38 39 35 41 37 37 41 35 38 38 36 35 34 31 29 28 29 31 31 31 30 27 26 28 29 28 29 27 27 27 28 29 31 33 35 35 43 40 39
38 38 38 39 41 43 43 43 41 41 39 33 41 38 42 41 37 40 39 38 35 33 29 27 27 27 27 29 28 27 27 27 27 28 29 30 30 30 28 28 31 32 35 35 37 40 42
43 42 42 43 42 43 45 45 44 44 43 41 37 42 40 44 41 39 42 40 38 35 32 29 26 25 25 25 25 25 25 25 26 28 29 29 30 30 32 32 32 34 34 35 36 39 45
47 49 50 51 54 55 54 53 51 47 46 44 44 43 45 42 46 43 41 43 41 38 35 31 28 26 25 24 23 24 23 24 24 26 28 28 29 31 33 34 34 34 34 35 38 42 46
52 55 56 59 62 64 64 63 59 55 51 47 48 48 50 47 45 49 45 43 43 40 38 34 31 29 27 26 26 25 25 24 24 25 26 27 29 31 33 34 35 36 38 39 39 43 49
57 60 62 65 70 76 77 71 64 57 53 51 52 53 52 53 51 47 51 45 42 43 40 37 34 33 30 29 27 26 26 25 25 27 27 28 29 29 31 34 36 39 41 44 44 43 49
61 65 69 73 77 75 69 67 66 58 55 53 55 56 60 57 55 53 49 50 44 42 42 41 38 35 33 32 30 29 28 29 30 30 30 31 31 32 36 39 41 42 44 47 48 47 48
64 68 73 78 83 74 62 54 51 50 47 53 56 60 62 54 50 58 51 49 50 46 42 41 39 37 37 35 33 33 33 34 34 35 37 37 37 38 42 44 45 46 46 48 51 51 52
68 73 80 85 78 62 56 52 47 43 41 42 53 61 61 48 38 58 56 50 48 48 47 41 39 38 37 36 36 36 38 38 40 40 42 42 39 43 46 50 52 51 52 53 55 56 55
73 79 85 83 68 59 54 41 34 31 31 35 48 58 57 52 46 53 50 51 47 44 48 45 42 37 36 36 35 36 37 39 41 41 43 44 45 47 50 50 55 55 54 56 56 58 58
77 84 88 77 63 58 39 15 10 15 24 34 42 53 64 58 44 44 44 49 49 47 45 41 41 37 36 36 36 36 36 38 39 42 43 43 47 51 52 52 55 56 56 58 60 61 65
81 88 87 68 60 48 19 2 11 14 18 28 37 42 53 63 51 42 46 47 50 49 42 34 32 34 36 35 35 35 36 37 37 40 44 48 51 54 54 53 54 54 53 55 59 63 66
83 89 81 63 59 37 11 4 16 9 19 19 37 47 47 58 49 47 42 43 50 47 41 35 31 30 31 32 33 31 31 31 38 44 48 50 52 50 50 48 48 52 51 50 52 59 63
84 88 77 59 52 27 12 13 17 6 16 22 49 45 56 60 44 38 40 42 48 45 39 34 31 30 29 31 28 27 28 32 36 38 38 34 25 25 23 26 30 34 42 39 44 45 47
85 88 75 56 47 28 24 16 14 5 10 27 62 45 59 53 49 40 36 34 41 42 37 35 32 29 31 26 25 26 27 28 24 20 22 24 26 24 29 29 29 31 33 31 36 44 48
85 87 72 55 46 27 22 16 9 4 9 28 61 45 48 37 41 43 27 27 37 40 38 36 33 32 25 24 25 25 23 22 18 19 24 26 28 34 33 33 35 37 36 34 37 44 45
86 84 68 53 44 24 13 11 5 11 4 18 64 34 40 29 39 33 28 28 33 37 38 35 33 30 22 25 23 23 23 23 16 21 26 32 42 36 34 34 36 35 39 42 41 36 36
85 81 65 51 38 18 7 7 9 9 9 30 36 29 35 40 34 28 28 25 35 36 36 35 32 24 25 21 21 24 25 22 19 25 30 31 38 36 30 32 32 34 31 29 41 40 39
84 79 61 48 30 13 8 14 10 11 14 50 32 32 42 39 41 25 22 28 32 31 31 30 25 25 19 18 22 22 20 17 20 23 29 26 24 28 33 34 32 35 31 22 22 29 18
84 77 56 43 21 8 3 13 10 14 42 36 32 36 44 45 31 21 22 24 25 24 25 24 24 19 16 17 19 16 15 12 18 15 15 20 18 21 14 13 16 17 12 11 3 3 13
83 75 50 34 13 4 6 14 20 45 43 26 28 37 37 36 25 30 21 21 20 20 21 23 17 17 17 10 14 9 10 9 18 14 13 9 16 14 12 16 20 14 9 9 6 8 7
82 72 42 24 8 7 9 13 25 34 31 24 26 21 19 27 22 26 19 19 20 20 16 17 17 17 11 10 8 11 8 10 12 11 6 10 13 14 18 16 19 15 2 9 8 14 13
81 69 37 17 8 4 9 16 27 36 26 24 15 16 20 13 21 21 24 15 16 17 14 14 17 15 13 9 10 12 8 10 8 8 11 14 13 15 19 18 25 20 14 3 5 9 15
78 68 38 11 6 3 11 31 34 38 32 25 18 14 17 22 14 21 20 11 14 11 10 10 12 13 14 10 10 11 11 6 5 7 6 9 11 13 16 18 20 20 23 22 17 24 35
73 68 40 10 7 7 32 40 41 36 25 20 23 21 18 17 17 20 17 14 16 12 11 9 14 12 9 9 7 9 10 8 7 1 2 5 8 10 12 15 16 18 20 21 23 23 24
71 68 43 10 19 24 41 39 31 31 21 18 20 25 18 19 24 22 14 18 17 16 5 7 13 12 12 10 7 10 12 14 14 9 3 1 1 5 7 11 10 10 13 13 13 19 19
69 69 49 10 28 29 43 40 33 31 32 24 25 24 22 20 19 19 17 18 17 15 9 11 12 13 14 14 11 12 13 15 14 15 10 4 2 1 3 6 7 7 6 4 6 10 11
70 70 53 18 28 36 40 34 32 35 33 32 28 26 23 15 20 22 16 18 16 15 12 12 14 14 10 11 11 13 16 15 18 20 16 11 9 7 3 4 4 5 3 4 6 7 6

GFSGBSN_500_spd_021.txt.gz
Wind_Speed
35 33 34 34 35 37 37 35 35 34 33 32 34 34 34 41 40 38 35 36 38 35 34 34 33 33 35 36 37 38 40 37 35 32 31 32 31 29 27 25 25 24 23 23 25 30 32
37 37 37 37 38 39 39 40 39 39 38 38 35 38 38 41 39 41 36 38 39 37 36 33 32 32 32 34 37 35 35 34 33 32 31 31 30 29 26 24 25 25 24 24 24 25 30
40 41 41 41 40 41 42 43 45 46 45 42 41 39 39 39 43 39 41 38 39 38 36 34 31 30 30 33 35 34 34 35 33 32 31 31 31 30 27 25 24 26 25 24 23 24 27
43 44 45 47 48 47 47 48 49 51 50 50 48 43 41 40 46 41 45 38 40 38 37 35 32 29 28 29 31 33 33 33 30 29 29 28 28 28 29 29 29 29 29 25 25 25 25
48 47 49 50 51 53 57 60 60 59 57 53 52 48 44 44 45 45 41 45 39 40 38 36 34 30 27 27 27 28 28 29 29 28 27 27 27 27 28 29 29 28 28 28 29 29 28
52 53 53 56 56 58 64 70 74 75 71 55 52 51 50 47 47 50 46 44 43 40 40 36 34 32 29 27 26 26 24 25 24 24 24 24 25 27 27 27 28 31 32 33 33 31 32
54 55 58 59 65 70 74 76 75 71 66 59 50 55 55 53 54 51 53 46 47 40 39 37 37 35 32 30 28 27 25 23 21 21 22 25 25 24 26 28 30 31 33 34 36 36 35
56 57 59 61 68 74 79 76 63 54 48 46 41 54 61 60 58 41 54 48 42 45 40 41 40 36 35 32 29 27 25 21 21 21 22 23 24 25 27 28 31 33 35 37 40 41 47
59 61 63 69 76 83 81 62 56 48 41 38 35 47 60 61 58 57 56 52 46 45 45 41 40 39 37 35 32 29 26 24 24 24 24 26 29 31 34 36 38 39 42 45 48 49 50
62 64 69 77 84 88 67 57 44 28 18 16 28 37 52 58 64 61 45 48 48 45 49 44 39 40 38 36 34 31 29 28 27 27 29 32 33 37 40 42 44 48 48 50 53 57 58
66 68 75 84 88 80 58 47 29 14 10 21 19 34 41 54 54 43 44 39 45 47 45 48 43 37 35 36 33 31 30 30 30 31 32 33 36 39 43 44 48 50 53 55 58 60 62
68 73 82 88 88 67 53 34 17 9 17 30 27 27 38 48 53 46 41 41 46 47 48 43 45 40 36 33 30 31 30 29 28 31 33 36 41 43 43 46 50 53 56 58 60 61 65
69 77 86 92 83 59 48 29 19 14 8 22 17 12 36 50 60 56 33 50 44 45 47 41 35 38 36 33 31 31 30 29 31 33 35 37 37 40 44 49 53 57 59 61 63 65 67
71 80 89 92 77 54 42 22 21 14 13 19 11 8 35 66 64 56 33 46 37 38 43 39 31 32 32 33 31 30 30 30 30 31 32 33 35 39 40 37 34 30 32 37 42 49 56
74 83 92 90 74 49 35 19 18 6 6 18 10 20 43 68 63 49 34 36 33 31 35 39 34 28 24 23 24 25 26 24 24 26 28 31 30 25 21 25 36 37 39 35 39 37 42
75 85 94 91 67 43 28 13 6 1 12 11 14 30 42 73 52 50 34 35 39 27 31 37 36 30 26 24 22 22 21 21 23 25 26 23 18 19 27 34 41 46 45 42 43 42 46
77 87 95 89 56 35 22 5 12 8 10 10 25 37 35 50 46 39 43 37 27 25 31 37 32 29 27 26 25 18 18 21 23 25 21 22 23 23 32 39 44 43 45 47 48 49 50
78 88 93 84 47 28 18 20 12 12 11 10 31 43 42 54 45 42 32 31 28 24 33 35 35 32 32 29 18 17 19 25 24 22 23 24 28 33 31 33 36 34 33 39 43 40 45
77 86 91 78 39 27 18 18 19 10 6 15 37 34 50 50 43 38 35 25 19 26 34 37 35 34 31 21 19 18 23 25 24 21 20 25 31 27 24 22 25 32 31 34 37 36 34
74 83 88 71 34 29 16 20 22 18 11 18 27 28 42 39 39 33 26 22 17 24 33 34 34 30 23 19 19 21 23 22 16 18 19 21 22 24 20 20 25 25 19 20 22 28 18
73 80 85 65 31 30 16 11 15 20 25 26 22 28 30 41 33 31 22 19 18 23 27 27 26 25 20 18 20 20 19 14 13 12 15 19 13 15 11 17 19 12 14 9 6 5 2
71 77 80 62 26 25 15 15 12 33 35 28 23 24 32 34 33 24 20 20 23 22 21 21 23 20 18 18 17 15 11 9 7 7 11 10 8 9 14 16 15 13 6 6 4 5 2
68 74 76 62 23 22 17 15 33 28 26 24 22 27 27 28 26 16 17 17 19 20 19 19 19 17 18 17 13 12 9 5 3 5 3 3 8 10 15 17 20 9 2 1 1 1 7
67 71 74 62 20 16 19 31 32 23 21 19 22 23 21 26 20 19 18 18 20 19 16 12 14 16 16 16 11 11 8 7 1 5 5 6 8 11 16 21 24 18 5 7 9 7 11
65 68 73 63 18 9 17 22 23 24 23 20 21 21 19 21 16 20 19 19 14 14 13 10 10 10 13 14 11 11 11 8 4 4 2 6 8 13 17 22 25 28 22 18 11 10 16
64 66 71 64 21 6 14 26 26 24 20 20 19 14 15 19 17 22 21 14 17 17 12 7 6 7 12 12 11 12 12 10 6 4 1 3 6 9 11 18 21 21 20 16 18 26 23
63 63 67 65 24 8 11 28 31 26 19 19 17 16 11 12 13 19 20 13 20 18 14 9 6 8 8 14 9 10 14 11 9 8 4 1 3 5 6 11 13 14 14 16 18 21 23
62 60 64 65 31 12 16 29 29 28 22 17 17 14 10 6 16 12 16 10 19 18 9 4 4 8 8 10 6 11 16 14 11 11 8 4 3 1 4 5 5 8 8 6 8 9 11
61 59 61 65 42 17 21 36 32 29 29 16 15 14 16 9 11 15 18 7 19 20 16 10 7 9 7 7 7 11 17 18 17 17 16 14 8 4 3 2 2 2 4 5 4 3 5

GFSGBSN_500_spd_024.txt.gz
Wind_Speed
45 39 34 34 35 33 34 35 36 37 36 37 35 34 33 33 34 32 37 36 37 35 34 34 34 35 36 38 39 38 40 40 41 43 43 38 37 37 38 34 31 30 28 26 26 27 29
47 42 39 39 39 39 38 38 37 39 39 41 41 41 40 37 37 37 35 38 38 35 34 34 34 33 33 36 39 37 39 39 40 42 41 38 37 37 37 35 31 29 27 26 25 24 26
49 48 45 45 45 43 43 42 41 40 43 44 43 45 46 43 41 39 40 38 37 37 36 36 35 34 33 38 37 35 37 38 39 41 40 38 37 37 35 34 33 29 28 27 25 26 24
50 48 48 47 46 46 46 46 47 47 48 48 51 51 51 48 46 44 42 39 38 41 36 38 36 35 35 34 34 36 38 39 39 39 38 37 36 35 34 34 33 32 31 28 25 26 26
53 51 50 50 52 52 51 51 52 59 63 64 60 55 55 55 50 50 46 44 43 40 39 40 37 35 36 32 31 33 35 37 37 37 37 36 35 34 33 34 34 34 33 31 31 31 30
56 55 52 52 53 55 61 67 71 73 72 74 71 65 52 55 54 55 45 45 47 40 44 38 38 36 35 32 31 29 30 32 34 35 34 33 33 32 31 31 31 34 34 32 32 31 32
62 59 56 55 55 59 66 73 78 77 72 60 54 52 45 49 60 58 46 41 50 48 43 37 37 37 35 33 29 26 27 29 31 32 30 30 30 28 27 27 28 28 29 31 31 32 34
65 64 59 58 63 70 77 81 76 64 55 48 42 38 41 48 61 58 52 52 49 40 41 42 40 40 37 33 30 26 26 26 26 26 26 27 26 25 23 22 23 26 29 32 34 35 38
70 67 63 66 73 80 85 79 58 49 41 25 15 17 32 45 53 57 56 48 41 43 42 45 41 41 38 35 31 27 26 26 25 24 25 25 24 22 23 24 26 28 32 36 39 42 44
74 71 68 74 81 89 87 61 48 38 14 11 15 13 22 39 46 62 57 49 36 35 44 44 43 40 40 36 33 30 27 25 25 25 24 23 24 24 25 28 32 34 36 41 45 49 52
77 75 74 81 88 94 72 50 39 23 6 8 20 15 13 33 41 66 50 46 41 36 44 42 46 39 39 38 33 32 29 27 26 25 24 25 25 27 29 31 35 38 42 46 50 54 58
78 78 78 85 93 87 61 43 32 12 12 10 13 17 8 25 42 71 58 40 44 42 40 41 43 42 36 36 35 32 30 30 28 26 25 26 26 27 31 36 40 44 48 50 54 58 65
80 80 80 90 98 76 56 41 25 9 10 20 17 14 8 25 55 64 53 44 43 46 37 40 37 40 37 32 33 32 31 28 26 26 25 27 28 31 33 36 40 43 46 50 53 54 60
82 82 84 92 96 68 53 36 15 3 6 3 19 13 9 34 67 61 51 41 40 41 32 32 34 36 38 35 32 30 28 26 26 26 27 29 28 29 31 34 36 38 32 32 40 46 47
81 82 85 92 93 60 48 32 3 7 3 13 14 1 26 47 63 49 44 35 41 39 28 28 33 29 32 35 31 29 27 27 28 28 30 28 25 25 29 26 24 30 36 44 51 52 55
81 81 85 91 89 54 45 19 9 10 10 12 5 9 42 54 64 62 44 37 42 34 25 30 31 27 25 28 31 31 30 30 29 26 25 23 23 20 19 24 30 38 43 44 45 49 50
80 81 84 90 82 51 37 5 7 11 11 13 10 22 57 56 46 48 45 40 35 26 22 30 32 30 26 25 26 26 26 24 22 23 24 21 21 16 20 28 36 38 37 41 42 46 50
79 80 82 89 75 49 26 7 9 10 11 7 15 28 65 49 50 38 39 38 27 26 22 26 32 34 29 25 24 23 20 19 22 20 16 19 17 17 25 30 30 35 36 37 39 38 38
77 79 81 87 67 47 16 8 7 11 14 14 19 31 49 33 42 36 33 34 23 22 21 27 32 34 30 28 27 19 18 21 17 16 17 18 17 23 23 24 30 31 32 31 35 37 38
74 77 79 83 58 41 15 15 13 20 20 26 30 27 54 38 39 32 29 27 22 20 17 29 33 34 33 30 24 19 23 17 14 15 15 19 17 22 21 21 27 31 32 28 29 32 26
72 74 76 80 50 32 20 11 11 17 20 21 26 36 45 31 36 28 25 22 20 16 20 29 34 35 32 24 19 22 17 12 15 14 16 13 15 13 16 17 22 25 29 26 25 25 29
68 71 72 75 44 22 18 14 20 20 21 20 24 37 32 23 24 26 23 19 17 13 22 31 31 27 22 20 19 18 13 14 14 12 11 10 9 6 10 14 18 17 19 14 19 23 24
65 68 69 71 37 15 15 27 19 14 16 20 24 42 26 21 22 28 20 12 12 14 22 25 22 20 20 19 17 13 12 13 12 9 6 5 3 3 7 7 10 17 12 17 15 16 16
62 65 66 66 41 17 17 22 18 11 11 17 26 39 30 30 20 11 9 8 15 19 19 20 20 20 19 18 15 15 14 15 12 8 7 2 2 4 8 10 18 17 17 11 16 9 9
59 61 62 60 58 5 4 11 12 9 10 9 13 22 26 24 16 8 14 19 21 21 19 16 16 16 16 14 15 14 17 15 10 12 6 3 3 7 10 14 14 9 16 20 16 11 6
55 57 60 56 58 20 13 13 16 12 14 10 11 13 17 19 11 16 17 18 20 21 17 15 15 14 10 14 16 15 18 14 12 10 8 4 3 4 9 10 13 15 12 14 16 17 18
53 54 58 54 54 41 7 24 20 19 14 18 17 14 16 16 12 19 21 16 17 20 15 15 13 10 8 14 16 19 18 17 14 11 8 3 2 5 3 5 7 9 11 12 14 16 16
51 52 56 55 51 51 11 23 30 23 16 16 19 19 14 13 15 21 13 15 23 21 16 11 9 5 5 16 19 21 21 20 15 14 11 6 3 3 3 3 4 5 6 6 5 10 12
50 52 56 57 52 53 29 21 37 30 26 22 18 13 9 11 17 21 18 15 20 19 15 14 7 4 4 18 17 19 20 20 18 15 13 11 8 4 2 3 5 6 7 6 3 1 2

GFSGBSN_500_spd_027.txt.gz
Wind_Speed
51 48 50 48 46 44 42 39 39 39 42 43 45 43 40 38 37 36 37 37 36 40 40 39 38 38 39 39 40 39 41 45 45 46 44 42 43 43 46 43 41 38 38 38 35 34 34
51 51 52 53 52 49 48 47 45 43 43 45 46 49 47 45 42 41 40 39 38 37 43 41 38 39 39 38 36 38 39 43 43 44 44 41 42 45 46 45 39 40 40 35 34 31 34
53 51 53 53 54 51 49 47 46 45 46 46 49 51 51 52 49 45 44 42 42 41 40 42 41 40 39 38 35 35 37 40 42 44 44 41 42 43 44 45 42 41 38 37 33 32 32
56 55 57 60 58 55 52 54 53 54 57 57 57 57 58 58 58 53 48 46 44 44 41 41 41 41 40 37 33 33 34 38 40 42 42 41 42 43 42 42 39 41 39 37 36 33 33
59 61 63 65 65 60 59 61 62 70 72 75 76 69 64 63 63 60 56 49 47 45 44 42 42 40 39 36 32 31 32 35 37 40 41 40 41 42 40 39 40 41 39 38 38 35 36
61 65 67 71 72 67 66 72 75 84 80 77 73 67 57 57 61 62 61 51 43 44 46 44 44 40 37 36 32 31 31 32 36 38 40 39 39 41 39 38 38 40 42 40 39 38 37
63 68 71 76 77 75 76 81 81 75 63 52 45 42 38 36 37 50 56 48 47 53 46 42 38 38 35 35 33 30 28 30 34 38 39 39 38 35 35 37 38 38 38 37 37 38 39
64 70 75 80 81 79 82 85 70 57 43 33 26 20 20 25 32 44 54 51 53 47 45 38 39 39 37 35 32 30 28 29 32 33 35 36 34 31 32 31 32 32 32 34 34 36 38
67 72 78 84 84 84 90 78 59 51 32 10 5 1 5 10 32 43 50 56 47 45 49 46 43 43 39 37 33 31 29 28 29 30 30 32 30 27 25 25 26 26 28 29 31 32 34
70 75 81 86 89 89 93 69 57 43 20 6 3 5 7 9 23 41 61 53 53 48 47 43 45 42 39 38 35 33 31 27 26 24 27 28 23 23 22 22 24 25 27 30 33 36 38
72 77 82 87 91 93 89 62 55 35 13 12 7 4 10 12 17 36 70 62 44 41 37 40 45 43 40 40 36 33 29 27 26 25 24 24 21 20 20 23 25 28 30 34 37 41 44
72 78 82 88 92 96 81 61 48 31 11 19 15 12 11 10 16 40 76 51 41 43 43 43 44 42 41 40 37 34 31 28 25 25 24 23 21 21 23 25 27 29 33 37 42 46 49
72 78 84 90 93 97 73 58 44 25 6 11 18 15 13 11 25 50 72 46 47 49 42 34 40 40 40 36 37 35 32 28 27 25 23 23 22 24 25 27 29 33 35 39 44 47 49
72 78 85 90 94 94 66 52 31 9 9 6 9 14 7 15 27 63 54 48 49 47 42 32 33 37 40 34 36 34 32 29 28 26 24 24 25 25 25 29 32 32 34 34 42 44 46
71 77 84 90 94 86 59 36 15 15 12 14 15 3 6 22 40 65 50 46 36 43 37 23 30 34 38 36 30 31 31 29 26 25 25 26 26 26 28 29 29 29 33 36 39 44 51
70 75 83 88 93 79 49 27 20 17 20 15 6 6 10 27 54 61 45 29 31 38 37 25 22 27 29 33 30 27 26 26 26 25 26 25 27 27 26 27 28 33 34 36 41 49 51
68 73 80 86 90 73 43 26 19 18 18 10 7 4 14 33 49 46 41 29 33 37 28 23 22 28 21 26 28 28 28 27 26 27 28 27 27 23 24 27 30 32 35 39 42 46 49
66 71 77 83 86 67 41 30 23 16 14 13 12 20 23 45 56 40 28 27 35 31 26 21 25 28 25 25 28 31 30 29 29 27 24 24 22 21 24 27 30 34 34 37 43 43 50
64 69 74 78 81 62 33 27 26 15 17 15 23 36 35 42 41 37 24 28 28 25 22 25 27 31 27 24 26 26 25 24 22 24 22 19 20 21 24 24 31 30 32 35 43 46 47
60 65 70 73 77 57 26 24 20 17 20 12 31 34 37 36 30 33 28 29 24 19 20 25 32 34 28 25 23 23 19 19 20 17 17 18 18 19 20 24 27 27 28 33 39 45 42
56 61 65 67 71 52 19 20 21 10 11 15 33 27 38 37 34 36 37 28 16 17 15 20 29 32 33 25 23 20 16 16 16 16 17 16 14 17 18 20 22 25 29 33 35 33 38
52 56 60 59 64 47 12 16 23 19 15 22 32 20 30 36 30 29 25 23 18 15 16 19 28 31 29 27 21 18 15 17 17 15 15 12 14 14 14 18 18 17 22 23 23 26 31
49 52 56 53 54 39 16 15 16 18 15 21 34 19 24 23 22 22 17 15 14 13 12 17 25 28 28 24 20 17 16 15 13 13 11 12 10 9 12 12 10 10 17 19 19 19 22
45 48 51 52 47 45 18 6 11 13 6 18 29 15 15 16 20 14 11 10 10 11 10 16 21 22 21 20 18 18 15 12 13 12 12 9 8 6 5 3 7 10 16 18 19 21 18
42 45 48 51 45 47 25 8 4 12 4 18 21 15 11 16 12 5 5 10 8 13 14 17 18 18 18 18 18 16 15 14 13 14 12 8 7 3 7 2 7 7 10 15 16 21 24
41 42 45 47 46 39 39 11 12 13 6 5 22 18 11 10 8 5 8 12 15 16 16 16 17 18 19 18 17 16 16 15 16 14 10 10 6 5 7 2 3 8 8 12 14 17 21
39 41 42 44 47 42 38 25 22 21 18 13 8 20 21 17 11 12 14 16 18 20 18 19 19 19 17 17 18 18 16 17 18 16 13 10 7 5 2 1 1 4 5 8 12 14 19
38 40 42 43 45 44 41 39 15 27 24 18 15 17 21 19 13 13 13 15 18 19 17 17 17 15 12 16 19 19 18 21 20 16 15 11 9 7 5 2 1 1 3 6 8 10 9
37 37 41 44 46 46 44 41 28 33 31 23 22 19 20 18 14 17 17 14 18 20 15 14 14 11 8 14 20 21 21 23 21 18 17 15 11 9 5 3 3 6 7 8 7 5 8

GFSGBSN_500_spd_030.txt.gz
Wind_Speed
53 52 50 52 54 54 58 57 56 51 48 44 41 45 49 48 48 46 43 41 41 39 37 40 38 40 39 38 40 38 41 45 46 47 47 47 47 47 46 45 43 42 45 43 39 38 34
54 52 52 52 54 56 59 62 61 60 50 47 47 47 47 51 52 53 50 46 43 41 41 39 42 38 39 38 39 37 38 42 44 46 47 47 46 46 47 46 44 43 45 44 42 36 34
57 56 55 55 59 62 66 69 70 69 65 60 56 54 57 57 58 57 56 52 48 45 42 41 40 41 38 38 39 37 38 39 41 43 44 46 46 46 47 45 45 44 41 43 44 36 38
59 59 59 61 64 69 71 74 76 74 70 74 75 75 73 71 64 63 61 58 53 49 46 43 41 42 40 38 37 37 36 37 38 38 39 44 45 45 46 45 45 43 45 43 42 40 40
64 61 62 66 70 73 76 81 82 81 82 74 67 63 61 62 62 58 65 63 57 53 48 44 43 40 41 39 36 36 36 35 36 35 37 39 43 44 45 43 43 43 43 42 43 42 41
66 63 66 69 73 76 82 87 87 87 72 55 52 49 45 42 39 42 56 64 60 54 49 43 45 42 37 39 39 36 35 34 32 33 29 36 40 41 42 40 37 39 42 43 41 44 42
67 66 69 71 75 81 87 91 93 74 58 50 40 36 29 24 23 30 43 57 59 53 51 50 43 39 36 38 39 38 35 33 31 32 34 34 34 35 32 36 36 41 41 40 39 40 42
67 67 70 74 79 85 93 96 82 63 51 38 26 7 10 10 10 24 40 50 55 54 53 46 39 40 38 38 36 35 34 32 30 29 32 32 31 28 33 35 34 36 36 35 35 38 43
65 68 71 77 83 90 97 94 75 60 42 28 13 6 3 4 7 14 36 47 52 47 50 48 43 38 37 39 37 34 33 31 29 27 27 28 28 29 30 31 31 33 35 33 34 35 36
65 69 75 79 86 93 98 88 69 49 37 21 13 5 2 7 4 8 31 48 51 46 51 46 45 40 39 41 36 35 34 32 28 26 26 27 27 27 27 26 27 29 30 28 26 28 30
65 70 76 81 88 95 97 81 55 40 30 9 13 2 5 6 8 10 31 63 42 45 46 45 42 39 38 41 36 34 33 29 27 23 22 21 22 24 23 23 24 23 23 23 25 28 29
65 71 76 81 89 96 92 69 50 40 28 7 12 11 5 8 7 11 34 65 42 49 42 46 45 41 39 39 36 34 31 28 24 23 20 21 19 19 19 20 21 20 22 25 28 32 35
65 70 75 81 89 93 87 59 41 32 27 22 14 15 18 13 8 19 46 46 46 37 31 48 43 36 37 35 33 34 29 27 25 21 19 18 18 20 19 19 20 22 24 29 33 35 37
64 69 73 80 86 90 76 54 42 34 32 29 18 10 9 5 16 29 49 47 39 22 22 42 35 33 34 36 33 33 31 29 25 22 20 19 20 19 19 20 21 24 27 29 35 39 42
63 66 70 78 84 86 67 55 44 37 32 23 16 9 8 16 22 33 36 38 22 21 23 28 32 30 34 36 32 33 30 27 25 22 21 21 20 20 20 22 25 25 28 32 36 38 44
61 64 68 75 80 81 59 51 43 36 35 20 14 9 8 18 23 43 38 20 17 27 30 19 20 29 31 34 27 30 29 26 24 23 22 20 21 22 22 23 26 30 29 31 34 40 43
57 61 65 71 76 76 56 48 43 41 34 28 12 9 12 24 35 37 22 13 21 29 26 23 22 22 23 29 25 25 27 25 25 24 23 21 23 20 21 24 26 28 30 32 37 39 45
54 57 62 67 72 71 53 51 42 46 29 29 23 16 38 60 47 32 22 25 32 31 29 17 23 26 28 30 27 26 25 25 24 23 22 23 22 21 23 24 28 29 27 32 38 38 44
51 54 58 63 67 65 48 49 46 39 27 29 24 28 52 43 29 20 23 24 30 25 21 20 24 25 26 28 29 27 24 23 22 22 21 20 20 20 22 27 26 25 29 33 35 38 37
49 51 54 58 62 62 43 45 48 31 23 24 23 29 39 32 26 26 26 27 23 19 15 20 21 26 23 25 27 27 25 23 22 20 19 20 19 22 25 25 21 23 24 28 33 33 34
44 47 49 54 57 57 43 36 43 21 23 26 35 29 23 23 25 23 24 22 13 15 16 18 22 25 20 21 22 21 20 18 17 17 17 18 19 21 22 21 22 18 19 22 27 28 31
40 43 45 49 52 53 45 27 33 16 15 28 25 16 14 16 23 22 21 14 10 10 8 12 21 24 24 20 17 17 16 14 13 14 16 17 17 17 19 18 13 14 15 18 15 20 26
38 40 42 44 46 48 45 25 24 19 17 20 12 10 14 16 22 24 16 13 11 6 5 7 14 21 22 22 17 13 12 12 11 15 15 14 14 13 13 11 10 9 12 13 15 22 29
34 37 40 41 43 44 41 32 16 18 17 12 17 15 16 15 15 12 9 8 7 7 7 8 10 17 20 19 19 15 13 13 13 14 12 10 10 9 10 8 6 8 6 10 14 20 25
34 35 37 38 40 41 39 34 18 6 8 26 8 12 14 16 10 6 5 6 8 8 8 8 10 16 20 18 16 15 16 15 14 10 10 10 11 7 7 4 2 4 6 9 14 17 20
34 33 33 36 37 38 39 34 32 3 9 17 19 12 10 11 8 5 7 11 12 11 9 9 11 15 16 16 17 16 15 13 12 11 11 10 8 7 9 5 5 5 7 10 12 12 17
32 30 31 35 38 37 36 36 30 24 16 19 20 29 23 14 11 8 11 11 14 12 11 13 15 17 16 18 17 17 16 14 11 13 14 10 7 7 10 7 5 3 6 8 9 8 11
32 29 31 35 39 39 38 38 34 28 15 25 25 19 19 20 17 13 10 10 11 14 16 16 17 17 18 18 18 18 18 14 12 14 14 12 9 9 8 5 4 4 4 6 8 11 13
31 31 31 35 39 40 40 40 39 34 28 26 30 28 21 21 25 18 14 10 13 15 16 15 15 15 15 16 18 18 18 16 14 16 17 15 12 11 9 7 6 3 5 7 8 9 12

GFSGBSN_500_spd_033.txt.gz
Wind_Speed
60 63 61 58 54 54 56 55 55 57 59 60 66 56 50 52 48 48 47 47 47 45 42 39 40 43 45 42 39 42 49 51 52 52 50 48 48 49 48 47 48 46 45 44 40 41 42
58 61 62 61 59 59 59 60 63 66 68 72 73 72 65 60 56 53 53 49 49 48 45 43 39 40 43 41 41 38 40 46 49 52 50 49 48 48 48 48 49 48 48 46 43 40 41
59 64 65 65 64 63 66 68 72 75 79 82 79 73 71 64 66 66 60 58 53 50 48 44 42 39 43 39 41 35 36 39 42 45 47 48 49 49 48 47 48 48 47 45 42 40 40
59 64 68 66 66 68 72 75 80 85 87 81 68 59 53 48 44 53 64 68 60 53 51 46 45 39 35 43 38 33 36 35 36 38 41 43 44 46 47 47 47 47 47 45 39 42 42
61 64 70 68 70 74 77 82 88 91 83 68 56 44 40 37 34 36 33 51 67 58 53 48 44 41 36 36 36 33 33 35 36 36 37 38 42 45 45 47 47 48 46 44 41 43 44
61 64 71 71 73 78 83 89 93 83 70 56 42 34 30 26 23 24 25 33 51 61 53 41 42 44 37 34 35 35 32 34 34 32 34 33 38 41 43 46 44 40 43 45 44 45 46
62 65 71 73 76 80 86 93 89 76 59 45 30 24 14 8 10 9 19 29 44 50 56 51 49 43 39 37 36 36 33 32 31 31 32 34 36 33 31 35 40 43 44 42 43 42 44
61 68 71 73 77 83 90 91 78 71 51 41 23 5 6 4 5 8 14 29 45 55 58 52 49 46 40 35 35 36 34 30 29 29 31 32 32 31 31 35 38 41 39 35 37 40 43
63 70 71 74 78 84 91 85 75 67 54 41 18 7 1 4 3 5 11 24 50 69 55 53 47 43 36 33 33 32 32 30 28 28 26 29 30 27 29 31 29 31 34 34 36 36 36
64 69 70 74 78 84 88 79 70 57 52 48 14 3 1 3 8 9 10 18 53 64 55 47 43 43 37 34 35 34 34 32 31 31 31 30 29 30 29 27 26 26 28 27 27 27 31
65 68 70 72 78 84 86 76 65 52 45 36 13 5 5 10 7 6 1 26 55 61 50 45 42 39 37 35 34 35 34 33 30 29 27 26 25 26 25 24 25 22 22 21 23 25 26
62 65 68 70 76 83 84 73 64 51 45 34 25 17 11 13 18 3 21 40 46 52 42 42 45 41 39 35 33 33 33 30 29 27 26 25 25 23 23 21 20 18 18 19 20 21 26
60 63 66 68 74 81 80 71 63 57 43 27 27 18 10 14 3 19 51 44 48 36 37 41 45 41 34 30 32 32 28 28 26 25 21 19 18 20 20 20 17 16 16 18 21 22 25
56 61 64 66 72 78 76 71 63 60 35 23 19 19 12 11 21 48 47 28 29 43 45 44 39 36 30 29 31 30 29 27 25 21 22 20 21 21 19 17 16 16 17 20 23 25 28
54 59 62 64 69 75 71 70 63 50 43 19 14 14 16 20 42 56 39 22 25 38 37 38 40 30 32 30 30 30 30 25 24 22 19 20 20 18 17 17 16 15 18 20 25 29 32
51 58 58 61 66 70 68 67 62 47 44 22 18 17 18 38 44 37 26 24 24 24 31 33 32 29 25 28 28 29 29 26 23 20 21 19 18 17 17 16 16 18 20 22 25 30 33
49 54 55 58 62 66 63 65 60 45 35 25 22 25 46 54 41 25 27 23 30 40 31 29 24 24 26 26 29 26 27 25 23 23 21 19 18 16 16 17 16 18 21 25 27 29 34
46 48 51 55 58 61 56 59 56 39 33 33 37 48 36 29 29 35 26 21 24 29 30 27 24 26 25 24 27 22 26 25 23 22 20 18 16 15 16 15 18 20 22 23 26 28 29
41 44 48 51 54 55 51 52 43 43 48 53 44 32 38 30 32 23 25 26 24 24 21 20 20 26 27 27 25 22 24 24 23 22 19 16 15 15 16 18 19 18 20 24 25 28 24
38 42 43 47 49 50 47 44 35 29 36 32 24 30 26 30 30 24 22 20 17 15 12 16 16 20 21 26 23 20 21 21 22 18 17 15 13 16 18 18 16 18 18 21 22 22 17
40 38 39 42 43 44 42 37 29 21 19 23 22 22 19 24 29 26 19 17 13 10 12 13 18 16 20 22 23 20 19 18 16 15 14 14 15 17 19 15 15 14 16 14 17 16 22
39 35 35 38 39 40 36 31 22 9 11 16 16 16 14 21 21 19 17 10 8 8 7 9 12 17 14 16 19 18 17 15 14 14 14 15 15 15 16 16 12 12 8 9 13 12 16
35 32 33 33 35 36 34 27 22 2 12 9 3 5 10 10 11 10 9 10 9 8 4 2 6 12 14 15 16 15 16 15 13 12 12 12 12 14 16 12 9 8 8 8 8 14 18
31 29 30 30 32 33 32 28 19 2 14 10 4 3 5 5 6 7 5 5 4 3 2 1 3 9 15 18 16 13 13 12 11 11 11 11 12 11 11 6 7 6 4 4 6 11 17
27 29 28 27 29 30 29 29 24 12 12 16 7 5 6 9 10 10 7 6 6 6 6 6 6 8 13 15 17 18 14 12 11 11 9 11 10 9 8 7 5 3 3 1 4 5 11
26 29 28 27 28 29 28 27 26 18 9 20 19 12 13 14 12 10 9 8 8 9 9 8 9 9 13 16 15 15 15 14 13 11 10 9 9 9 9 9 6 4 3 2 4 4 8
30 27 29 27 28 30 29 28 26 25 16 12 29 33 24 19 17 15 13 11 12 13 13 12 11 12 13 16 16 16 16 15 11 10 10 10 10 7 10 12 7 6 5 4 6 9 12
30 25 29 28 28 32 31 31 29 28 27 23 15 35 34 32 32 27 18 11 12 12 12 14 13 14 16 18 18 18 17 16 13 10 11 12 10 9 9 10 7 5 4 5 8 11 13
31 24 29 30 29 31 34 33 32 33 33 33 31 21 39 34 31 31 25 17 13 12 13 13 14 15 17 17 18 18 18 16 15 12 13 13 11 10 10 9 6 4 4 5 8 10 11

GFSGBSN_500_spd_036.txt.gz
Wind_Speed
46 46 52 55 60 65 65 64 66 67 69 72 75 76 77 76 71 66 59 54 53 51 51 48 43 42 42 45 40 40 48 55 54 54 53 51 51 51 51 50 50 49 46 43 41 41 41
49 49 51 58 63 68 68 70 71 75 78 81 73 70 67 64 63 60 67 63 58 54 52 48 45 43 40 35 42 41 41 49 55 53 52 52 49 50 51 52 53 51 50 49 46 43 42
53 52 54 62 66 70 72 73 76 81 82 73 71 61 54 45 40 40 50 63 63 59 52 48 45 44 41 40 42 39 40 41 47 53 51 50 51 51 49 50 51 53 52 50 47 43 44
53 51 55 64 69 72 75 77 83 85 79 75 63 53 40 32 28 29 33 43 66 64 55 49 47 44 40 41 39 37 38 39 41 46 49 51 51 50 49 50 49 51 50 50 44 46 46
49 51 58 65 70 74 77 81 87 83 75 70 59 45 29 21 19 19 22 26 47 69 59 52 46 45 40 39 34 36 38 37 37 38 39 46 48 50 51 51 50 50 50 48 45 46 46
48 54 62 66 71 75 79 85 87 79 70 65 57 37 21 10 9 10 12 21 35 66 65 54 46 42 38 34 36 38 36 37 35 35 34 33 42 46 49 51 50 48 46 47 46 47 47
50 56 61 66 72 74 81 86 85 74 63 60 54 30 6 8 5 6 7 16 26 51 64 55 49 43 39 37 39 36 35 35 32 34 33 34 35 40 43 41 44 46 48 49 46 45 46
52 57 60 67 72 75 81 87 83 72 62 52 48 23 10 6 4 5 5 5 23 47 55 55 49 47 41 36 33 32 37 33 34 31 32 33 31 30 31 33 40 42 44 42 40 44 46
53 58 60 67 72 75 82 87 82 68 60 46 40 31 17 14 10 9 9 4 25 50 53 47 43 42 34 34 33 33 28 32 30 29 26 27 27 29 30 28 30 30 37 37 38 41 41
52 56 59 67 70 75 82 87 83 64 53 36 29 22 12 10 18 12 8 11 39 57 52 42 43 39 37 34 33 33 32 32 29 30 29 28 26 26 26 32 34 32 32 32 33 34 38
49 55 58 66 68 74 81 85 81 58 55 36 22 24 12 9 17 13 5 34 55 68 42 39 42 44 39 33 30 34 31 30 32 27 28 28 26 26 27 28 27 27 26 24 26 30 33
48 54 57 63 65 72 80 84 78 65 49 28 22 23 6 9 14 1 24 63 65 46 40 49 48 45 41 35 33 34 30 32 28 33 31 26 25 24 24 27 26 23 23 22 22 22 28
47 53 55 59 63 70 76 82 75 66 41 26 25 21 11 8 6 17 43 66 45 26 46 38 48 40 37 32 31 32 31 30 28 27 27 24 23 23 23 23 22 20 21 22 21 19 17
47 50 52 56 60 67 73 77 68 55 37 31 27 26 36 34 35 35 34 46 31 35 36 42 43 37 33 31 30 29 28 26 25 23 19 17 21 23 23 23 22 21 21 18 16 15 17
46 45 48 53 58 63 69 72 59 41 34 35 43 45 43 51 49 42 35 31 21 34 26 39 38 32 33 30 28 27 25 27 24 22 22 21 22 20 20 19 19 17 16 16 16 18 20
43 41 46 50 54 59 65 63 39 37 51 49 44 34 39 37 37 34 36 32 26 24 29 31 33 35 28 26 26 26 26 24 23 21 20 22 21 20 19 17 16 16 15 15 16 20 21
40 37 44 45 49 53 56 45 44 50 43 39 33 29 34 43 39 34 29 28 23 27 31 28 27 23 24 22 24 25 23 23 22 23 21 21 20 18 16 17 16 14 14 14 17 21 24
38 36 41 42 42 46 40 29 33 33 34 32 34 28 29 27 31 32 29 24 22 24 26 26 21 21 18 21 21 23 22 24 22 22 20 18 17 18 18 14 13 11 14 17 20 21 20
36 34 37 38 36 40 37 15 19 27 24 29 29 27 14 17 24 30 32 25 22 20 19 18 17 20 20 22 24 22 21 22 21 20 17 16 16 16 14 13 12 14 17 18 19 16 16
39 34 32 33 30 33 35 28 6 12 18 18 17 20 15 8 3 21 22 23 20 18 15 14 16 17 21 20 22 19 20 21 20 18 17 16 14 14 14 14 14 14 16 16 13 13 13
41 37 29 29 26 28 31 28 19 2 5 13 13 13 14 15 12 11 13 17 14 12 10 11 9 15 17 19 21 17 18 20 20 18 15 13 14 14 14 15 12 13 15 13 12 13 9
42 38 31 24 24 22 25 26 23 10 7 4 12 11 7 9 12 6 9 8 10 12 10 6 8 9 12 20 19 17 15 15 15 15 14 14 15 15 14 12 12 13 12 12 9 9 7
34 35 32 19 22 19 20 22 23 18 6 9 8 4 5 4 6 8 9 10 8 4 4 4 4 9 8 11 17 16 16 16 15 14 15 14 13 12 14 14 13 11 10 9 7 5 5
33 33 30 17 20 19 17 19 21 17 11 10 15 10 6 6 6 6 4 1 1 2 2 2 1 6 12 12 14 15 15 15 16 15 13 12 13 14 14 13 12 11 8 8 7 3 5
35 31 31 18 20 19 18 16 18 17 12 11 19 14 15 11 13 13 10 7 7 7 7 7 7 7 11 18 18 16 16 14 13 12 10 12 11 11 10 10 9 7 7 8 6 6 8
35 32 30 27 18 19 19 18 19 17 13 10 17 22 19 15 12 11 13 12 11 12 12 10 12 11 11 16 20 22 18 17 15 13 11 10 9 10 12 9 10 9 8 6 6 8 10
31 33 30 29 20 20 18 20 19 21 19 15 14 20 29 27 23 20 18 16 16 15 13 13 13 14 14 15 19 18 20 21 18 13 12 11 11 13 12 11 12 9 7 5 5 6 8
32 34 29 28 24 22 20 21 20 22 24 24 21 20 21 28 40 31 27 22 18 16 16 16 17 18 16 17 19 20 20 20 17 13 12 13 13 15 11 12 13 9 8 7 6 5 9
34 32 30 29 26 23 23 24 25 28 31 31 31 33 32 27 34 43 38 32 24 21 16 16 18 20 20 20 20 22 21 20 18 16 12 13 15 15 12 13 12 9 9 7 5 6 9

GFSGBSN_500_spd_039.txt.gz
Wind_Speed
55 55 55 49 50 56 60 65 69 71 75 79 82 79 69 65 60 57 59 63 68 64 58 56 52 50 48 42 39 47 44 53 58 56 55 53 50 48 49 47 45 43 44 42 39 40 41
59 57 54 50 54 59 63 69 72 76 82 87 81 70 62 58 44 34 36 44 57 64 61 58 54 53 44 45 49 44 45 41 53 53 54 54 52 49 49 50 48 47 46 45 43 43 43
60 59 53 52 57 59 66 71 76 81 86 82 77 62 56 53 30 23 23 28 40 57 63 59 54 54 50 38 45 42 46 38 43 51 52 50 51 51 49 50 51 51 49 49 46 44 44
60 58 50 54 57 62 69 74 80 85 88 85 64 56 53 38 22 16 17 16 19 45 65 59 55 53 53 39 41 42 41 40 39 46 51 52 50 51 49 50 50 52 52 50 47 46 46
59 55 52 57 58 65 71 78 83 90 91 71 58 45 45 22 13 12 12 17 18 36 64 60 54 52 51 44 39 41 38 41 39 41 45 48 50 50 50 51 49 51 52 51 48 48 49
58 51 52 55 60 66 73 79 87 92 85 67 50 39 24 7 7 10 11 12 15 26 59 58 54 50 46 40 40 41 39 41 36 34 38 43 49 49 49 51 51 50 47 46 46 48 49
56 50 52 56 61 67 74 81 89 91 79 60 44 30 19 14 8 6 7 11 8 22 54 56 52 49 45 40 36 39 39 36 34 33 35 37 38 47 47 47 47 49 50 49 47 46 47
54 50 52 56 60 67 75 82 90 88 75 52 35 25 17 16 15 11 9 6 5 23 52 56 52 45 43 38 31 37 38 37 36 33 32 32 32 34 41 45 45 46 47 47 46 45 47
54 50 52 55 60 67 75 82 89 83 68 40 24 22 18 13 9 16 9 7 8 29 56 54 47 38 41 36 35 34 31 35 35 33 28 31 31 25 26 30 36 41 42 42 42 43 46
53 49 50 54 59 67 73 82 86 78 56 37 27 25 21 9 12 19 11 7 17 48 59 52 45 38 34 35 30 35 26 34 32 32 27 27 29 28 30 27 31 33 33 36 37 38 40
50 48 48 52 58 66 72 80 80 62 49 40 36 26 16 9 12 16 6 18 36 55 58 50 45 35 33 37 33 36 29 32 30 27 29 25 26 28 30 36 33 27 26 26 27 30 34
48 47 45 50 57 63 70 77 67 54 53 52 39 32 18 9 9 5 27 44 49 52 42 48 43 36 35 32 32 32 27 24 33 30 29 27 24 24 25 27 29 27 26 27 26 25 31
43 44 44 49 54 62 67 73 54 53 59 58 56 37 30 19 20 37 57 59 23 42 43 36 35 34 31 31 33 32 26 23 31 32 34 34 27 24 22 22 22 22 22 24 25 24 23
45 42 41 47 50 58 61 60 41 48 54 54 46 51 53 29 40 57 39 30 47 52 34 40 44 39 34 29 27 30 28 23 22 28 25 22 22 21 21 22 21 21 24 23 21 18 17
53 44 38 43 45 53 55 49 36 42 46 53 46 42 33 42 53 32 27 35 30 38 30 41 39 31 31 28 25 30 28 26 25 21 23 24 24 23 23 24 23 23 22 19 17 18 18
47 43 37 37 40 46 47 46 33 38 36 42 48 39 24 28 31 27 27 26 29 23 30 35 30 29 26 25 23 26 26 24 23 24 23 21 21 20 20 19 19 19 19 18 17 18 18
57 46 38 31 35 40 39 38 32 29 38 33 36 41 24 18 21 22 13 18 20 21 24 31 24 21 20 18 20 22 21 23 22 22 22 21 18 17 18 18 19 19 17 16 15 15 16
53 45 37 26 29 32 33 33 25 25 24 33 32 28 30 18 12 11 9 5 13 15 18 19 21 21 16 17 17 20 20 20 22 20 17 18 17 18 19 16 14 13 13 13 16 16 17
50 40 34 33 21 26 27 28 22 16 21 23 27 24 18 22 16 9 10 13 11 12 17 16 17 17 15 17 20 21 19 19 16 16 17 18 18 18 15 14 13 13 14 14 16 17 15
48 39 33 31 16 20 22 22 21 14 16 18 18 21 15 12 13 20 20 16 12 12 11 9 11 13 13 16 17 19 16 18 17 17 18 17 16 15 14 14 13 14 15 16 15 16 15
45 39 32 32 19 13 17 18 17 12 11 13 14 12 13 8 10 12 13 12 10 9 7 5 5 10 12 14 14 16 13 16 16 15 16 16 15 15 14 13 13 16 17 16 15 16 8
42 35 29 32 24 9 13 14 15 14 11 14 11 7 9 8 8 7 10 12 11 10 7 6 6 7 11 13 18 15 15 16 16 16 14 16 16 14 14 14 16 16 15 14 12 10 9
42 32 25 30 29 12 9 12 11 12 10 9 11 6 4 2 3 5 7 7 6 4 4 5 4 3 6 11 18 14 15 15 17 16 16 15 14 15 16 16 16 15 14 13 12 9 8
36 29 26 28 29 24 7 11 10 9 8 7 8 12 13 10 9 7 5 3 0 0 1 2 2 2 6 7 16 16 15 15 15 15 15 16 16 16 17 16 15 14 13 12 11 7 8
33 29 28 24 28 28 14 11 11 10 8 6 7 10 13 14 18 17 17 14 12 7 7 6 6 6 8 12 12 13 20 20 17 16 16 16 15 17 17 16 13 11 11 10 9 7 9
33 30 30 28 27 28 21 12 14 13 11 8 8 9 13 21 17 17 17 17 14 14 14 14 13 12 12 15 18 16 17 18 18 18 17 16 17 16 15 12 11 11 9 8 8 9 8
33 32 32 31 26 28 27 17 15 17 15 13 11 13 15 15 25 26 22 20 19 17 14 13 15 15 16 16 20 24 22 20 19 17 17 17 15 16 14 13 11 13 11 10 10 8 6
34 32 33 35 30 30 27 24 15 19 21 20 18 18 20 20 23 26 33 30 28 24 21 19 17 15 18 18 18 24 27 27 26 22 19 18 15 16 16 14 12 16 13 12 10 8 5
34 30 30 33 31 29 29 26 22 18 24 25 28 27 27 27 28 30 32 41 36 34 28 23 20 20 22 24 22 22 26 25 24 23 21 17 17 17 15 14 15 14 13 13 11 8 5

GFSGBSN_500_spd_042.txt.gz
Wind_Speed
49 55 62 61 58 54 55 57 62 69 75 79 85 85 66 57 53 49 49 51 39 56 65 66 64 60 55 53 47 46 44 49 50 54 53 53 49 47 46 46 45 44 43 42 38 38 40
54 55 61 60 57 55 58 61 68 74 79 87 86 72 54 52 44 42 40 30 25 31 49 59 64 62 56 52 39 45 44 43 42 48 51 52 50 47 46 44 45 45 43 39 35 34 37
55 58 61 58 56 58 60 64 71 78 86 88 81 56 49 44 41 30 19 20 22 25 32 55 64 63 58 54 42 32 47 36 40 39 47 48 49 50 48 46 45 47 45 42 37 35 39
57 57 61 58 59 61 61 68 75 82 88 86 68 47 39 35 21 14 10 12 16 13 18 52 63 60 56 53 43 35 45 36 42 38 44 47 47 49 49 48 46 48 47 45 39 37 41
57 62 59 55 58 61 64 70 76 84 82 69 63 37 30 23 12 12 12 11 9 16 17 41 61 57 56 50 43 28 38 39 36 41 42 47 48 48 50 49 48 47 46 46 43 41 42
57 59 59 57 58 60 65 70 79 82 70 69 58 30 24 18 15 12 8 10 12 17 19 44 57 55 53 51 32 37 38 40 35 37 36 41 48 47 49 50 49 49 47 46 43 43 43
58 60 55 54 57 60 67 71 79 75 70 69 53 30 22 16 13 12 14 10 9 7 20 48 53 52 50 49 35 31 36 34 35 32 25 37 36 48 46 46 46 46 47 46 45 45 45
60 62 54 55 58 61 65 72 75 69 69 69 51 37 26 18 7 12 13 11 11 4 31 53 51 48 48 51 35 30 36 30 33 33 33 30 39 34 47 46 46 47 47 44 42 42 43
59 62 63 56 57 60 63 70 71 70 70 66 52 37 22 17 12 13 15 10 8 12 46 52 48 46 46 44 36 33 36 30 28 34 34 29 28 33 33 43 43 42 43 41 40 41 43
60 58 62 58 55 58 61 68 66 65 76 63 62 37 23 13 11 16 15 6 9 31 54 51 47 45 45 42 32 32 34 29 28 34 31 29 24 26 23 25 38 42 40 38 38 40 42
58 59 57 58 54 55 59 63 57 61 74 57 56 43 31 20 13 9 7 15 29 52 55 46 41 44 39 40 26 34 34 26 28 26 27 27 26 28 26 26 25 31 33 34 35 37 38
53 55 61 63 51 52 55 60 54 58 70 54 48 50 52 47 35 28 29 41 50 52 48 40 37 37 35 35 26 30 31 25 28 26 26 26 24 28 26 29 29 26 26 26 28 28 31
53 54 61 55 50 47 50 52 52 54 61 50 53 51 51 56 47 37 47 49 45 52 46 41 37 37 34 30 29 31 25 25 29 28 29 26 21 24 26 28 28 27 25 24 25 25 26
53 52 57 51 48 42 44 48 46 49 50 41 45 55 51 59 49 32 45 35 41 43 41 31 25 28 34 27 25 28 24 21 30 29 28 28 23 24 23 24 24 23 24 25 24 21 19
54 51 51 51 48 36 38 42 41 42 47 45 37 43 44 51 50 30 25 35 37 33 30 29 28 25 27 24 25 30 25 17 27 24 24 26 24 21 22 22 21 19 20 21 20 19 18
50 45 47 49 43 32 33 35 34 35 39 37 31 34 38 34 38 34 19 24 17 16 23 24 21 24 21 18 22 23 23 19 19 21 23 20 21 20 21 19 20 22 21 21 19 19 18
52 43 42 44 39 31 26 29 29 28 32 34 27 26 29 24 27 24 13 13 17 19 19 20 14 10 14 13 14 19 20 17 18 17 17 20 20 21 21 22 20 21 21 22 20 18 15
56 45 39 42 34 32 21 22 23 25 23 25 25 18 25 26 18 13 12 10 12 15 18 12 10 12 12 11 13 17 18 17 15 16 17 18 18 18 18 17 16 18 16 16 15 14 14
53 44 38 40 31 31 17 16 19 18 19 20 20 16 17 22 25 16 18 8 5 8 11 12 9 10 11 13 16 19 17 17 17 16 16 17 17 16 15 15 14 14 15 15 14 13 13
48 43 41 38 30 27 20 11 13 14 14 14 16 15 14 15 16 20 17 15 12 11 9 9 9 10 10 12 15 18 19 16 14 17 17 16 16 15 14 14 13 14 13 14 13 14 16
45 42 39 35 27 22 25 7 8 10 11 11 11 10 10 10 10 11 10 10 10 7 4 4 6 9 8 13 14 15 13 15 16 15 15 15 15 14 14 14 13 13 14 13 14 16 13
43 39 37 34 25 20 25 11 8 5 8 9 7 5 7 6 2 5 8 8 9 10 8 6 3 8 10 13 14 16 15 17 17 17 17 16 15 13 13 13 13 14 14 14 15 14 13
43 35 33 31 25 22 23 26 10 8 6 7 6 6 4 1 1 2 2 3 5 4 3 4 4 3 5 8 11 15 12 13 15 16 16 16 15 14 13 13 14 14 15 15 15 13 12
39 35 31 31 26 23 21 25 17 12 9 8 8 7 8 11 10 9 7 6 3 3 2 1 1 2 4 5 11 15 13 14 14 15 16 15 15 14 14 15 15 15 16 16 15 14 11
36 34 30 30 26 24 23 23 26 16 15 12 10 10 10 10 11 15 17 16 14 13 11 7 6 4 5 8 10 17 16 15 16 16 15 15 15 16 16 15 16 15 16 15 15 14 11
41 35 30 30 29 28 26 24 26 24 17 17 15 14 13 14 12 14 15 18 18 18 18 17 15 12 11 10 13 15 18 22 20 18 17 17 16 16 16 16 17 15 13 15 14 14 12
41 36 33 33 32 30 31 26 26 27 23 21 20 19 17 16 20 20 21 21 19 19 18 18 19 19 17 15 15 16 18 18 21 22 21 19 19 18 18 17 16 15 16 15 14 12 10
42 36 35 36 37 33 29 30 25 30 27 26 23 24 23 20 24 25 26 28 28 27 24 23 21 18 19 18 16 17 21 22 21 21 21 20 19 19 19 16 17 15 17 16 14 12 11
36 35 36 36 34 30 25 27 28 29 28 28 26 26 28 28 28 30 31 33 32 37 36 32 28 25 21 20 18 18 19 25 28 27 25 24 22 20 18 17 16 15 19 18 15 13 12

GFSGBSN_500_spd_045.txt.gz
Wind_Speed
53 62 62 60 63 59 57 57 60 65 69 74 74 71 69 65 47 42 43 39 39 41 46 57 63 59 66 62 54 51 49 51 51 49 49 53 49 50 52 49 46 51 50 48 44 45 44
57 62 63 63 62 59 58 59 64 69 73 75 74 73 67 40 35 35 32 28 29 33 39 46 57 58 62 63 52 46 47 48 46 46 46 50 50 46 46 51 46 44 46 46 43 44 44
57 60 60 63 59 60 59 63 67 71 74 78 76 67 47 31 30 20 12 10 9 15 20 30 37 56 60 61 53 51 34 45 42 45 47 46 49 47 46 46 47 47 44 41 39 40 42
60 59 61 63 64 60 60 64 67 72 75 83 72 57 37 26 23 14 12 11 5 9 10 18 28 51 57 58 53 49 40 41 41 38 45 47 47 50 49 46 46 47 47 44 39 38 38
62 59 63 63 60 62 61 63 68 70 80 80 73 44 36 22 21 13 10 13 9 10 14 11 24 49 58 57 51 48 39 39 40 32 42 48 49 50 49 49 46 47 43 43 39 36 34
60 60 58 59 63 64 59 63 66 74 77 72 67 40 37 22 17 14 11 12 13 7 19 13 27 53 57 55 53 38 23 35 40 36 40 42 46 49 49 50 46 44 49 41 38 38 37
62 60 59 61 61 58 57 61 62 72 65 70 71 50 31 19 16 11 10 11 10 10 17 21 39 54 54 51 49 39 26 32 33 33 34 35 40 45 45 47 50 44 45 47 41 38 38
61 62 59 61 62 55 55 59 60 67 68 68 72 62 32 16 13 13 11 11 9 10 12 30 50 53 53 49 46 30 29 32 27 29 34 31 34 40 41 42 44 47 46 45 43 40 38
62 61 56 59 60 55 52 55 58 65 60 66 68 66 43 19 14 9 10 7 7 5 25 46 51 51 53 51 39 35 31 31 33 28 27 25 31 39 43 44 44 45 46 46 43 41 40
61 61 58 55 56 54 48 50 54 59 54 59 75 66 54 33 22 15 11 11 19 38 46 46 45 49 53 45 30 35 38 34 31 24 35 24 31 34 33 41 43 42 41 40 39 41 40
65 62 62 51 53 51 45 47 49 55 50 54 72 70 55 45 34 27 27 40 53 54 46 37 41 46 50 44 28 31 31 27 23 23 23 38 34 27 28 22 37 40 38 37 37 39 38
64 63 59 51 50 45 42 43 43 50 45 47 62 68 51 44 36 41 49 57 57 46 39 40 43 38 47 40 29 25 28 23 18 17 23 29 27 25 29 26 24 29 35 39 38 37 35
62 63 58 50 47 43 37 39 38 43 41 44 48 59 48 47 43 46 48 46 39 41 41 43 40 42 39 25 31 29 28 20 19 20 24 21 23 25 19 26 24 21 27 32 34 35 32
62 60 58 48 46 42 33 33 34 36 39 36 38 43 47 35 30 37 40 36 34 35 38 37 35 33 33 22 29 29 24 17 21 22 20 21 20 24 26 26 27 26 23 25 26 26 23
64 60 56 45 41 39 30 28 28 30 32 31 35 32 36 36 33 27 25 25 33 35 27 30 29 27 25 21 21 28 17 15 22 24 22 24 23 21 23 25 25 25 23 23 23 23 21
65 61 53 41 39 39 28 24 26 24 25 27 27 30 24 25 24 19 22 13 16 16 19 21 19 20 17 17 19 23 16 13 22 22 23 26 27 21 22 20 19 20 20 20 19 21 20
64 60 48 39 38 37 27 23 21 20 20 22 22 25 24 17 17 15 11 15 17 16 21 20 20 12 12 10 12 17 15 11 15 19 17 18 23 19 20 15 18 19 20 21 20 18 16
63 53 44 37 34 33 22 21 16 20 16 17 17 19 21 19 18 13 14 17 7 13 14 11 10 10 10 10 11 14 17 13 16 17 18 20 16 17 20 20 22 21 20 20 18 16 16
58 49 42 37 33 32 20 17 13 15 17 13 13 14 14 17 16 17 10 11 11 7 5 5 6 7 8 9 12 17 17 16 16 18 17 16 18 18 17 17 17 18 18 17 17 15 13
55 46 41 37 31 30 21 13 11 11 14 14 9 8 9 10 10 12 14 12 12 9 6 4 4 6 7 8 11 15 16 18 16 15 15 14 16 16 15 15 15 16 15 15 13 13 13
52 46 40 35 30 29 22 14 12 9 12 13 9 5 2 5 6 5 7 8 6 4 4 4 4 6 7 8 11 13 16 14 15 14 16 14 13 14 15 15 15 15 15 13 12 12 10
51 43 37 32 31 28 24 17 13 18 13 13 10 6 2 4 5 5 3 6 7 6 5 4 7 9 9 10 12 14 15 16 16 14 15 15 15 14 14 14 14 14 13 11 12 12 13
47 39 34 31 30 29 26 20 18 16 15 14 11 12 8 7 8 6 5 3 2 4 3 4 6 9 10 11 12 13 14 13 15 15 15 14 14 14 14 14 14 13 13 12 13 13 13
50 43 38 34 29 28 28 21 21 17 17 15 16 14 12 13 12 12 10 8 6 5 4 3 4 6 9 12 13 16 18 15 16 17 17 16 15 15 15 15 15 13 14 14 14 12 13
47 44 39 36 32 32 31 26 24 22 19 23 19 19 16 15 16 17 17 16 15 13 11 11 9 7 8 10 10 16 17 16 15 15 16 17 16 16 16 15 15 15 15 15 15 14 15
50 44 40 35 34 33 33 32 25 27 24 21 24 22 21 20 18 19 19 19 21 20 20 18 17 15 13 12 13 16 19 17 17 17 17 17 17 16 15 15 16 16 16 16 15 16 17
50 42 40 39 34 33 32 30 27 29 28 25 26 26 24 23 23 22 21 20 19 18 17 18 19 20 20 17 15 17 19 21 22 20 19 19 18 18 17 17 17 16 16 16 16 16 17
42 41 41 36 34 36 36 29 25 24 29 28 28 29 29 27 28 27 26 25 24 25 25 23 22 19 20 20 19 17 20 22 21 22 24 24 22 21 20 18 18 17 16 17 17 18 15
36 36 33 33 34 36 33 24 25 25 26 28 29 29 28 29 33 34 33 32 33 34 34 33 30 28 26 23 20 19 17 19 23 24 22 22 23 21 19 18 17 17 18 19 21 17 17

GFSGBSN_500_spd_048.txt.gz
Wind_Speed
54 58 60 55 60 60 56 52 57 61 64 71 69 68 67 47 32 31 30 28 28 31 37 41 49 60 62 75 67 60 58 53 54 54 56 54 56 54 55 57 59 54 51 48 46 44 45
58 63 56 58 57 58 55 52 58 64 66 71 72 71 59 37 32 26 17 14 13 18 25 30 40 38 53 61 66 62 52 56 53 48 54 52 52 53 53 55 59 58 51 47 47 46 46
60 64 62 57 56 59 54 53 60 63 68 70 75 67 45 34 26 23 12 10 9 6 11 22 30 39 43 47 58 58 53 50 48 49 46 51 52 52 50 49 48 59 49 46 46 45 45
61 66 63 59 55 59 54 55 60 63 65 70 78 66 37 35 22 17 13 10 7 4 3 8 16 30 40 47 51 54 50 47 45 43 44 51 49 53 52 47 47 57 44 42 41 43 44
62 66 65 66 55 57 52 55 58 61 64 71 77 62 40 25 20 15 11 11 8 8 8 7 11 23 42 47 51 47 39 43 43 40 38 49 51 52 53 49 47 47 52 41 37 38 42
63 66 64 65 54 57 50 53 55 58 62 74 78 57 40 24 15 17 9 12 9 6 14 13 12 25 48 51 55 51 37 35 40 43 38 40 46 52 55 49 42 42 48 47 38 36 36
64 68 66 63 54 55 49 51 52 56 60 75 76 58 47 26 13 13 9 10 8 6 12 14 20 31 44 48 56 49 42 28 31 33 34 43 39 43 50 49 44 41 37 38 39 39 38
64 67 67 63 51 55 47 48 48 53 59 71 74 66 50 32 15 12 9 11 7 4 14 14 29 51 50 51 51 42 35 35 32 35 30 41 35 40 50 53 47 43 41 42 41 35 35
65 69 66 62 48 52 45 45 45 47 54 64 68 65 54 38 26 17 10 6 5 14 20 32 50 54 42 57 49 38 38 30 36 33 30 31 35 35 46 50 50 46 44 40 40 41 39
66 67 67 63 47 48 43 41 41 41 47 56 59 61 56 48 39 34 31 35 42 49 42 46 49 44 53 54 39 35 27 25 26 30 29 30 30 35 42 46 46 47 46 45 41 38 39
67 67 64 60 47 44 42 36 38 38 40 47 51 50 51 54 53 50 47 50 46 41 38 42 47 52 53 45 37 34 21 26 35 26 22 29 28 33 40 40 43 43 44 45 43 42 40
66 66 62 55 44 41 41 32 35 32 34 39 45 40 38 39 41 38 36 34 37 43 46 48 52 49 40 39 36 35 20 32 30 29 23 24 28 26 27 34 38 38 39 38 38 40 40
63 60 58 50 42 39 38 28 30 26 29 33 33 32 39 42 39 36 33 34 40 49 42 44 52 40 34 32 33 29 17 24 18 18 20 28 32 30 30 27 27 40 40 38 40 41 40
62 57 53 46 39 36 34 25 25 25 22 27 26 21 28 35 35 29 26 31 36 38 40 42 39 27 28 27 18 19 19 12 17 18 21 24 26 26 29 28 24 23 31 40 41 40 37
61 56 49 42 36 34 31 23 19 22 20 21 25 14 19 25 29 24 28 24 25 26 31 37 33 23 21 18 21 19 15 13 14 18 22 22 28 30 27 27 26 26 22 26 32 32 31
59 55 51 43 36 32 29 22 16 18 18 15 20 17 13 17 20 19 13 16 17 22 25 26 23 13 14 19 21 20 13 11 14 18 21 23 22 25 24 23 22 24 25 23 24 24 24
58 55 50 41 35 32 27 22 13 13 15 13 13 16 10 10 17 17 16 10 14 19 20 21 16 14 14 14 21 19 8 7 14 20 20 22 22 21 22 22 22 23 23 26 25 23 22
58 55 49 43 35 31 28 22 11 11 11 12 8 9 11 11 8 15 14 9 12 15 16 16 11 10 10 11 14 16 12 9 11 18 16 16 23 23 17 19 17 20 22 23 22 19 17
56 55 51 43 32 30 29 24 11 8 9 9 7 4 5 8 7 8 12 16 12 13 13 14 12 9 8 9 12 17 16 13 13 17 18 16 15 17 18 20 21 20 19 18 19 20 20
57 55 50 42 31 28 27 27 15 9 10 10 7 5 0 1 4 6 10 13 13 11 11 10 10 9 8 7 8 13 17 16 13 19 19 17 18 18 18 18 20 20 22 21 19 19 19
57 56 48 40 33 25 25 27 18 13 11 11 10 6 7 4 1 1 2 4 7 8 8 8 7 8 8 9 10 13 14 15 13 16 17 15 14 16 18 18 18 17 17 17 18 20 18
57 57 49 41 33 29 26 26 23 15 15 13 14 10 10 11 8 5 2 3 3 5 7 8 10 10 12 11 11 13 14 14 15 16 16 17 16 17 17 18 18 17 16 16 16 14 16
56 57 53 44 28 27 24 26 25 19 17 19 17 16 12 11 16 13 10 7 5 5 5 6 8 11 12 12 12 14 15 16 18 16 15 16 17 17 17 18 18 17 16 15 15 15 16
55 57 56 49 25 29 26 24 28 24 20 20 20 21 17 15 16 18 17 14 11 9 6 7 7 9 11 13 14 15 15 16 17 18 17 17 17 17 17 18 18 16 16 16 15 15 15
53 57 56 46 26 27 24 24 29 29 22 24 24 26 23 19 19 19 20 20 20 18 14 11 9 8 10 12 15 16 18 19 18 18 19 18 17 17 19 18 16 16 15 15 15 15 16
52 56 53 47 31 25 26 26 30 29 22 26 26 26 29 26 23 21 20 22 23 22 20 21 19 15 13 11 12 14 16 20 20 17 19 20 20 20 18 18 18 16 16 16 16 16 16
53 57 50 39 30 26 27 30 33 28 22 24 27 28 27 31 28 25 22 22 23 24 24 26 25 25 22 17 16 14 16 20 19 19 20 20 20 20 20 19 18 17 16 17 18 16 18
48 53 41 30 29 31 35 34 32 28 22 21 25 31 30 29 33 30 28 26 25 26 26 25 26 22 24 25 23 18 17 18 22 23 23 22 22 21 21 19 19 18 18 19 18 19 19
50 44 32 28 30 31 31 27 21 23 24 25 23 28 29 30 30 31 33 33 32 33 30 30 31 29 29 26 24 23 20 18 18 22 24 25 26 24 23 21 20 20 20 21 20 19 19

GFSGBSN_500_spd_051.txt.gz
Wind_Speed
57 61 64 66 63 65 56 54 51 54 59 60 67 72 66 48 37 34 28 28 24 20 23 30 36 40 56 69 76 73 64 62 56 52 50 53 57 57 57 57 54 55 54 57 53 42 42
59 63 67 68 63 61 55 52 50 56 59 62 71 74 64 43 30 29 21 21 16 15 13 19 27 38 38 51 65 73 67 60 55 54 49 48 54 54 54 60 58 56 60 54 49 43 43
62 64 66 68 67 58 55 49 50 54 59 67 72 72 62 40 25 29 21 19 17 10 10 13 18 32 37 30 54 67 61 59 56 51 47 46 53 54 54 55 61 55 61 57 50 44 45
62 65 67 66 67 55 54 46 49 52 58 67 70 72 61 37 23 22 20 14 13 9 6 1 16 26 31 32 42 48 54 53 54 49 45 45 51 52 54 54 54 58 54 56 51 44 43
62 65 69 68 67 54 53 46 46 48 56 64 67 71 66 39 19 17 17 12 14 13 9 3 9 18 29 35 39 46 54 45 49 48 44 45 48 50 54 53 54 53 53 52 50 43 42
62 66 69 67 61 52 52 45 44 47 52 58 62 71 70 49 24 17 16 12 12 7 7 6 10 20 31 40 39 41 48 48 43 43 43 43 40 48 53 56 51 49 48 46 52 43 41
64 67 69 66 54 49 49 42 40 44 49 55 59 65 71 60 32 15 17 12 10 5 1 9 12 27 40 41 39 38 42 45 42 41 39 41 36 38 46 50 51 50 44 42 44 46 41
65 70 69 62 50 47 46 42 36 40 46 52 54 62 66 62 43 20 10 8 5 3 8 9 23 43 51 56 42 38 42 41 37 39 36 35 31 30 44 50 50 49 43 44 42 42 38
66 69 67 55 47 45 43 40 36 36 40 44 51 57 59 55 57 54 30 17 21 24 31 35 44 45 55 40 47 40 44 39 35 35 35 29 28 33 36 49 52 49 42 42 36 45 41
66 67 64 53 45 44 40 38 35 31 35 38 44 53 52 47 40 39 43 39 42 50 47 48 36 42 52 57 46 35 34 33 30 31 28 26 30 32 35 45 49 48 43 42 34 34 37
64 66 62 54 43 42 39 36 31 28 31 33 35 44 44 45 38 34 35 32 40 35 30 37 38 51 23 41 34 31 22 25 26 32 29 25 33 31 32 38 47 50 43 41 38 36 37
62 65 62 53 42 40 38 35 26 28 26 30 29 34 39 35 34 29 28 36 32 24 33 36 45 36 41 40 32 17 19 21 27 29 27 25 26 29 35 41 46 49 44 40 40 38 37
59 63 61 54 40 39 38 34 25 25 25 26 24 27 33 31 33 30 28 27 29 45 48 51 30 23 24 39 28 28 17 18 27 29 21 29 26 27 28 37 41 40 44 39 39 40 40
56 59 62 57 48 39 36 31 22 21 22 22 22 20 23 24 29 24 26 26 31 38 38 30 21 22 20 26 19 10 18 19 22 26 17 20 36 25 25 31 32 36 37 38 40 42 41
55 59 61 59 51 37 34 31 21 17 17 16 19 13 15 16 16 20 14 14 30 34 29 23 21 19 17 13 8 6 6 11 15 18 23 24 27 25 22 25 25 33 39 38 37 40 38
53 57 61 61 55 35 33 32 24 16 14 14 15 12 9 9 9 11 16 9 20 16 12 13 17 14 7 9 11 10 8 8 12 18 19 24 26 33 27 29 25 23 21 25 34 37 37
50 56 60 60 54 37 30 32 27 15 12 10 11 11 9 4 5 8 12 14 23 23 18 15 10 7 8 10 9 9 6 7 12 18 18 21 23 29 29 26 23 23 26 24 23 25 28
49 55 60 59 55 41 29 30 27 16 11 9 10 6 4 5 1 7 8 13 16 15 13 10 6 6 5 7 9 11 8 7 13 16 21 21 20 22 23 24 23 22 24 26 26 24 22
49 55 59 62 57 46 31 27 31 19 15 11 7 5 3 3 3 4 10 12 13 16 16 14 11 9 9 11 15 15 13 9 10 20 20 19 21 22 23 21 19 20 21 24 23 23 22
51 56 60 60 56 47 31 30 28 23 18 15 10 8 6 5 2 2 7 16 13 13 14 15 12 10 10 11 12 14 15 13 10 11 18 19 19 18 24 21 20 20 20 19 19 19 18
51 56 59 61 57 52 31 26 25 24 18 18 16 10 10 9 9 6 6 8 14 14 15 16 15 14 12 12 12 13 16 16 14 13 16 17 18 20 20 22 23 22 24 23 22 20 22
52 54 56 57 56 55 35 27 25 28 19 20 20 17 14 13 14 13 10 9 10 11 12 14 14 14 14 13 11 12 14 15 16 16 17 18 17 17 18 19 20 20 19 18 20 19 20
50 53 55 56 57 56 46 24 28 27 28 17 22 22 19 17 17 19 16 13 10 9 9 10 12 15 15 14 14 14 15 16 13 16 16 17 18 18 17 19 20 19 17 18 20 21 23
51 53 53 56 57 59 48 27 27 27 29 24 22 24 23 21 21 21 23 20 17 13 11 11 11 10 12 14 16 15 16 16 17 17 18 16 18 20 18 19 20 16 19 18 19 20 18
52 50 51 53 57 55 44 22 28 32 31 33 20 27 24 25 24 25 24 25 24 21 18 15 13 11 10 12 14 16 17 17 17 18 19 18 18 18 19 19 18 19 19 19 19 18 19
53 53 54 54 56 54 35 25 31 35 36 36 26 24 31 25 28 27 27 27 27 27 26 23 20 19 16 13 13 15 16 19 21 20 19 20 21 20 20 20 20 16 18 18 18 19 19
52 55 55 52 56 47 33 29 32 33 31 27 22 25 29 32 28 30 29 27 27 27 26 27 26 27 25 22 19 15 15 15 18 21 20 20 22 22 22 21 20 19 20 20 20 18 19
54 56 53 51 46 35 29 29 28 26 27 24 24 23 26 32 33 30 31 30 28 27 27 25 28 26 28 28 28 24 19 17 15 19 21 21 21 21 22 22 23 21 20 21 19 18 19
53 56 55 52 47 33 29 26 27 30 29 30 29 24 23 26 36 34 30 31 32 30 28 27 28 27 29 29 26 26 25 24 21 19 21 25 25 23 24 23 23 22 22 22 21 21 21

GFSGBSN_500_spd_054.txt.gz
Wind_Speed
55 60 65 70 74 68 58 55 54 54 54 55 60 61 67 73 59 32 29 28 17 24 19 17 19 30 36 50 67 69 67 63 57 55 52 49 47 51 55 52 56 48 49 49 49 48 45
57 62 67 72 72 63 56 54 54 52 55 58 60 64 70 73 57 22 26 23 14 21 14 13 11 23 29 40 50 64 65 57 59 55 54 47 45 44 52 53 55 52 50 52 54 49 43
57 63 69 71 70 59 55 53 51 49 55 57 61 66 73 73 50 19 20 21 15 16 13 12 11 19 26 31 46 56 61 56 55 57 52 49 45 44 50 53 52 56 56 54 56 51 49
58 63 69 72 67 57 55 53 48 46 53 55 61 67 75 75 44 18 17 15 13 12 13 8 5 12 22 29 30 44 52 58 46 54 51 47 44 43 45 51 52 54 59 52 54 49 45
59 64 70 73 63 55 54 51 47 44 50 54 58 66 70 66 52 16 17 13 13 11 6 4 3 14 26 29 29 38 42 56 47 43 50 47 43 41 42 47 52 54 55 51 49 50 44
58 65 71 73 62 53 53 51 47 43 47 53 54 62 64 62 59 25 16 14 13 11 5 4 8 14 26 26 35 43 40 48 53 39 42 42 42 41 39 48 47 49 49 51 45 47 48
58 64 70 71 65 53 52 50 47 41 45 50 50 58 58 57 55 33 15 11 8 9 7 7 12 18 27 33 45 39 40 43 46 47 41 39 37 34 29 35 42 46 48 45 43 47 45
57 63 68 71 64 55 53 50 47 39 42 47 46 54 54 52 43 37 26 17 14 13 8 12 18 26 40 37 29 35 41 39 33 42 41 33 31 30 27 36 46 46 45 44 45 44 44
56 61 66 70 67 60 52 51 45 38 40 42 43 47 45 43 37 44 47 35 25 22 23 30 40 46 44 41 35 42 57 42 47 41 35 32 31 29 27 36 42 49 45 45 45 37 35
54 60 65 70 69 67 49 51 45 37 37 38 38 40 39 34 34 42 44 50 45 37 31 39 45 41 31 39 37 39 34 29 29 31 31 32 26 28 26 30 40 46 46 44 43 34 36
52 57 63 69 70 66 49 49 46 36 35 35 31 33 36 32 23 33 39 29 27 24 28 34 26 29 27 13 37 32 32 27 25 24 27 29 25 25 27 23 30 43 43 43 39 39 39
50 55 61 66 70 67 48 44 45 33 32 31 25 27 32 31 22 26 30 32 34 41 34 32 25 25 33 43 32 30 34 30 31 30 26 23 25 24 30 24 29 36 43 41 39 39 37
48 53 59 66 69 66 53 42 46 34 28 27 21 22 22 26 28 30 27 26 31 34 32 25 29 23 31 27 20 20 21 23 27 30 28 22 19 23 26 27 28 30 40 41 41 39 36
46 51 58 64 71 69 55 43 44 35 25 23 22 16 16 17 18 20 25 21 14 24 32 29 15 21 33 23 25 19 16 21 25 24 24 21 20 25 26 29 33 30 33 39 41 38 35
44 50 56 62 67 68 65 47 39 39 24 20 19 15 10 13 13 13 15 15 10 10 15 18 21 16 19 8 14 18 20 14 21 22 19 20 28 25 26 23 26 29 30 35 38 38 36
42 48 53 59 65 66 64 57 36 38 25 19 16 17 7 5 7 10 16 17 10 8 7 4 7 8 6 7 8 12 11 15 19 22 21 16 26 29 22 26 24 26 27 30 32 34 35
40 47 51 58 64 66 63 56 34 36 29 18 14 12 12 3 1 5 10 11 11 4 8 10 7 3 2 4 5 6 8 9 15 17 19 18 17 23 24 23 24 21 23 25 28 29 31
39 44 49 56 61 64 63 58 42 33 34 20 15 12 10 7 4 4 7 14 14 9 6 2 2 3 2 3 6 7 4 5 10 16 18 19 18 28 23 24 22 19 19 19 18 22 21
37 43 49 56 60 64 65 57 52 34 33 25 16 13 11 10 6 7 10 13 21 16 11 10 6 4 2 3 6 8 6 7 11 15 17 19 19 23 27 25 22 18 18 22 23 22 20
35 41 49 55 58 61 62 59 53 34 25 30 19 14 13 13 11 6 9 13 15 17 16 15 13 9 8 7 8 10 11 10 9 14 17 19 19 20 21 20 21 20 21 23 22 25 21
34 41 45 51 59 61 61 61 60 46 26 31 22 17 16 15 16 12 8 14 16 15 15 16 16 14 13 12 11 10 12 13 12 10 12 22 20 20 20 21 23 20 23 22 21 21 23
36 41 45 49 55 58 59 61 59 45 25 29 28 21 19 19 19 19 16 13 15 18 18 18 18 17 16 15 14 13 13 14 15 15 15 15 18 20 22 22 24 27 25 21 23 23 23
40 44 46 47 53 57 57 59 59 42 29 34 30 22 24 22 21 23 20 17 15 15 16 15 17 17 17 15 16 16 14 14 14 15 15 15 17 17 17 19 22 22 20 20 20 21 23
41 42 45 48 52 57 57 56 56 36 30 37 32 26 20 26 26 24 23 24 21 18 16 14 12 12 12 13 15 16 16 16 16 16 14 13 15 17 17 20 19 16 19 19 19 21 20
38 41 45 46 51 55 55 55 53 40 30 34 29 26 22 25 29 26 27 27 28 25 21 18 15 13 11 10 11 13 14 15 15 16 17 17 17 16 18 19 17 17 16 17 17 17 19
42 43 48 48 51 52 53 54 50 38 31 29 27 23 19 21 27 30 31 30 30 30 27 24 21 19 17 15 12 10 11 14 15 16 17 18 19 18 17 17 19 14 18 18 19 18 19
46 46 49 49 52 51 47 50 41 33 29 29 29 23 23 22 27 33 31 33 32 31 29 28 27 25 25 24 21 17 14 12 14 14 19 20 20 18 18 18 17 15 18 18 19 17 18
43 48 49 50 52 53 49 48 36 29 28 31 33 29 26 26 26 28 36 32 35 32 32 29 30 29 27 27 26 25 24 20 17 14 14 17 19 17 18 19 18 18 18 19 18 17 19
42 45 43 49 47 46 47 44 32 27 29 33 36 32 26 22 25 25 31 36 30 36 31 28 27 25 27 27 24 24 22 22 26 22 16 17 20 20 19 18 18 19 20 21 20 20 19

GFSGBSN_500_spd_057.txt.gz
Wind_Speed
57 59 66 71 76 76 68 62 61 60 58 56 58 58 64 71 75 67 21 21 23 18 11 15 19 19 24 39 51 60 66 64 60 55 52 49 48 44 45 50 52 51 48 54 50 49 37
56 59 66 71 76 75 70 64 63 60 56 55 56 60 66 73 71 46 19 20 13 11 11 14 14 16 21 26 37 51 61 60 59 55 48 50 45 42 42 50 52 49 51 51 49 50 43
55 58 64 71 76 75 71 65 64 61 56 52 55 60 66 64 60 35 16 12 12 12 12 10 14 13 16 26 38 39 50 60 59 38 47 48 45 44 41 45 50 53 48 53 42 44 44
55 58 65 71 77 77 72 64 63 59 54 52 54 58 59 61 55 35 17 11 11 11 9 5 5 7 19 28 38 29 45 59 60 55 43 42 44 43 41 40 48 52 51 50 43 41 44
52 57 64 69 75 78 73 63 63 59 51 49 52 54 45 56 63 39 20 15 15 11 7 7 5 7 16 28 33 36 45 54 58 52 42 42 42 42 40 38 41 48 48 49 46 38 42
51 56 62 68 74 78 75 61 61 60 48 47 48 50 38 58 65 44 26 15 14 11 10 10 10 14 22 31 31 43 47 40 47 46 39 43 41 43 41 37 34 35 36 44 45 45 40
49 56 60 66 72 77 76 61 60 57 47 45 45 46 35 53 58 58 34 21 16 13 13 10 15 23 22 32 44 51 53 46 44 42 46 44 39 33 35 32 32 32 37 40 43 45 43
47 55 59 64 70 76 77 69 57 56 43 43 43 43 39 48 42 42 36 30 26 19 15 14 22 22 28 34 42 53 52 57 44 37 39 40 33 35 32 32 33 32 36 39 43 46 46
48 52 57 63 70 75 77 63 54 54 42 39 39 40 41 39 28 31 32 34 32 27 33 31 26 22 38 46 36 37 47 51 52 37 33 24 31 33 32 29 28 29 32 38 43 43 48
46 47 55 61 67 74 76 62 54 53 42 37 33 35 40 34 22 24 30 35 36 46 50 37 36 35 30 26 24 42 48 48 52 39 27 26 26 25 25 22 23 26 33 40 40 40 43
46 46 53 59 65 71 75 69 54 50 44 33 29 27 35 27 26 22 28 38 30 28 39 26 33 20 28 33 42 36 31 36 39 33 28 26 24 24 24 21 20 26 32 37 39 39 41
41 45 51 56 62 68 73 72 61 45 45 33 27 25 27 27 26 25 34 41 27 26 30 30 30 19 30 38 28 35 26 27 30 26 27 25 24 23 23 23 19 23 31 35 39 42 41
38 43 50 53 59 66 70 70 68 47 46 34 27 20 18 13 19 21 24 29 30 25 35 31 33 36 25 19 19 22 21 22 24 25 27 28 26 21 20 22 24 23 23 35 38 42 39
35 39 45 51 57 63 69 71 66 50 41 37 25 20 11 12 13 13 13 19 22 27 29 30 37 28 22 14 14 14 20 24 23 23 23 23 23 24 27 25 23 21 18 25 37 37 37
32 35 42 47 54 60 66 68 68 52 39 38 25 19 7 8 6 5 9 12 13 16 22 15 17 18 23 22 21 19 17 16 20 23 23 22 22 27 24 23 27 22 21 19 24 34 37
33 33 40 44 49 56 64 67 66 58 45 35 29 17 11 2 5 4 3 5 8 11 10 7 6 10 12 17 20 17 18 19 20 21 25 21 20 28 28 24 24 26 29 26 27 29 36
34 34 38 41 46 51 60 65 67 64 52 29 29 18 14 8 7 12 11 11 6 1 4 3 2 5 5 8 12 14 11 14 21 18 18 9 17 25 23 23 21 23 22 26 24 27 29
33 34 36 40 43 47 54 61 65 64 58 27 26 19 14 13 7 11 13 18 16 11 6 0 4 4 5 4 5 8 8 13 15 12 15 12 11 18 28 28 24 23 21 18 22 23 24
34 32 33 37 40 45 51 58 63 64 57 32 28 23 15 16 12 10 12 16 18 15 12 6 4 3 3 3 5 7 5 7 13 16 17 15 17 14 20 21 20 21 18 17 17 15 16
33 32 35 35 37 43 47 55 61 63 60 41 32 27 17 17 17 14 12 14 18 19 18 16 12 8 4 2 3 5 6 5 6 12 18 17 18 19 22 22 21 21 20 20 21 24 18
33 35 35 33 37 41 46 52 56 61 60 47 31 29 22 17 20 18 16 13 17 19 21 23 18 13 11 8 6 8 9 10 10 10 12 16 18 18 18 22 23 23 21 20 16 17 21
34 38 34 35 37 39 44 49 51 58 60 41 31 28 23 15 21 22 19 16 14 18 20 17 17 17 15 12 11 10 10 10 11 13 13 13 18 22 20 20 21 23 24 20 18 20 20
38 40 39 38 39 41 41 48 49 57 58 51 36 29 25 15 17 24 23 20 18 17 18 19 18 18 17 15 16 13 13 11 11 13 15 14 15 17 21 22 24 24 21 24 24 23 25
40 43 41 42 41 44 43 43 49 54 56 52 36 31 23 18 15 19 25 25 23 22 20 18 17 16 16 15 15 14 15 14 13 15 14 14 16 17 18 19 21 18 20 23 23 25 24
42 44 42 44 42 44 47 47 46 53 54 53 36 29 24 20 19 20 25 29 30 27 24 21 20 16 15 13 11 11 12 13 13 14 15 16 15 15 17 18 17 16 17 19 18 21 19
43 46 47 45 47 45 43 47 48 53 58 50 37 27 27 24 23 22 25 31 32 31 28 26 23 21 19 16 13 10 9 9 10 12 13 15 18 17 17 16 17 14 16 15 16 16 15
43 44 44 45 45 48 44 50 58 59 49 38 32 30 31 31 28 25 25 30 32 32 31 30 27 26 24 21 18 16 14 12 10 10 13 15 18 17 17 16 15 14 17 18 16 14 16
38 34 37 40 44 46 49 52 61 57 48 37 32 32 32 36 32 27 25 25 34 32 32 32 31 29 28 26 23 20 19 20 17 16 13 13 13 16 17 14 14 15 16 16 16 18 19
32 30 32 36 40 42 48 55 60 56 47 37 33 34 36 38 30 23 20 22 26 35 29 33 31 30 31 28 26 24 21 20 20 19 19 18 15 14 16 14 14 15 16 17 17 18 18

GFSGBSN_500_spd_060.txt.gz
Wind_Speed
47 54 56 61 71 74 79 82 72 66 60 49 54 55 62 57 66 67 30 15 15 21 20 20 14 19 28 31 30 48 69 63 63 55 59 54 52 51 50 47 48 54 52 51 49 53 51
47 52 56 62 68 73 79 82 72 66 60 51 53 57 55 60 64 52 24 14 12 11 12 15 15 17 17 18 35 39 59 65 63 56 57 52 51 48 49 46 48 46 51 55 54 54 52
43 50 56 65 68 73 79 81 65 66 60 53 52 55 53 51 60 59 33 19 14 12 15 18 17 16 16 23 33 34 54 61 60 56 54 49 48 49 44 45 45 49 51 61 58 50 52
40 49 56 62 67 73 78 81 71 65 60 50 52 49 42 51 55 58 45 23 21 12 7 3 8 11 14 22 40 27 51 59 56 55 49 46 47 46 47 44 45 49 54 58 54 47 53
42 49 53 59 67 71 77 80 74 61 56 48 49 49 36 48 55 54 57 35 21 17 12 8 4 4 14 26 49 38 48 56 51 50 46 47 45 43 46 43 42 46 51 52 44 47 47
40 49 53 59 65 69 77 80 79 62 56 47 44 48 29 44 52 56 48 43 25 17 12 8 10 10 17 32 41 38 52 54 45 41 46 46 45 46 44 44 39 35 33 44 43 41 44
38 47 53 58 64 67 75 78 78 60 53 44 40 46 26 37 45 49 47 39 30 19 14 12 9 15 15 37 36 47 61 59 49 52 50 46 45 43 38 37 34 27 27 37 37 44 43
39 41 51 54 61 66 71 76 77 59 52 40 36 41 29 43 44 42 44 43 42 28 19 16 12 18 33 35 40 46 70 71 49 45 38 34 33 38 34 31 31 27 28 29 36 38 42
39 39 50 54 59 64 69 74 77 63 51 40 33 34 17 35 40 41 41 37 43 44 28 17 19 21 26 33 51 49 51 57 56 45 36 31 30 34 31 34 32 28 26 27 30 35 39
37 38 46 52 56 60 65 72 76 70 51 40 29 27 15 28 31 38 40 36 38 31 28 30 38 30 24 45 46 43 36 39 42 39 46 31 25 31 31 30 29 25 27 26 30 31 33
35 37 42 46 53 56 62 69 75 72 53 40 28 20 8 22 27 35 39 36 32 30 30 21 23 29 21 23 24 17 25 42 43 43 36 33 32 30 30 28 25 23 23 24 27 30 33
34 39 37 47 52 53 57 65 72 74 65 41 24 13 10 13 22 31 34 31 30 33 31 23 33 40 33 26 20 21 34 40 46 39 35 31 30 29 27 26 25 24 24 26 30 31 32
33 39 34 43 49 52 54 62 68 74 70 49 27 15 11 7 13 21 23 26 25 37 36 30 19 24 19 24 20 14 29 27 27 24 25 28 26 26 26 25 24 21 21 22 27 31 33
34 38 33 38 45 48 51 56 64 71 72 58 31 14 6 2 5 10 15 14 13 19 25 27 30 19 19 21 19 20 31 24 27 22 23 21 21 20 21 23 24 20 21 20 23 29 30
34 36 33 34 39 45 47 53 59 69 73 67 46 20 4 6 7 11 8 7 9 8 7 16 18 19 7 10 13 17 23 24 27 22 23 23 24 23 21 23 27 25 20 16 17 19 25
34 36 35 31 36 42 43 49 57 65 71 69 53 30 9 8 15 13 8 3 6 2 9 12 13 14 15 8 12 10 16 19 21 23 23 23 24 24 26 28 24 22 21 18 20 21 19
35 35 36 30 36 40 43 47 53 61 67 69 51 31 17 9 10 19 17 14 9 4 9 7 7 8 9 11 9 9 11 14 16 20 21 21 16 19 27 29 25 21 20 19 21 25 25
36 37 36 31 34 38 41 45 51 59 65 70 57 36 26 12 10 12 17 18 20 15 12 5 1 4 5 7 7 7 12 14 14 14 18 18 14 21 23 22 24 25 24 25 26 25 23
38 40 34 32 34 36 39 42 47 53 60 67 65 47 30 18 13 13 13 17 19 16 13 12 5 2 2 3 6 7 7 11 19 17 18 18 16 14 24 26 28 26 23 22 22 20 19
40 38 33 31 33 35 38 40 45 53 57 65 63 53 38 22 13 15 15 14 16 20 16 14 12 7 3 2 4 7 8 9 13 17 19 18 17 18 15 19 25 28 26 26 25 19 12
42 40 33 32 31 35 37 41 47 52 57 62 65 59 47 23 14 15 17 16 14 15 18 15 15 14 10 7 6 7 9 10 11 11 14 16 17 17 19 19 21 19 21 22 22 20 23
43 42 33 33 32 34 37 42 43 50 54 61 64 61 44 26 16 15 19 18 18 15 15 17 16 13 11 12 11 10 9 10 11 14 14 14 17 19 20 20 21 23 24 23 19 19 18
44 42 34 34 35 35 34 37 43 48 53 58 61 62 52 29 16 15 18 21 20 21 18 18 19 18 15 13 14 13 12 12 12 13 17 18 16 17 20 24 25 24 20 24 23 23 21
44 39 37 35 38 36 36 37 41 45 52 58 60 61 54 34 17 15 19 23 24 26 24 22 19 18 15 15 16 15 15 15 14 14 14 17 19 20 19 21 24 21 21 23 24 23 26
44 38 38 39 40 39 38 39 40 46 52 56 57 60 54 38 25 19 18 20 27 27 28 25 22 19 17 15 14 14 15 16 16 16 15 17 18 17 18 17 16 18 20 22 21 20 22
40 37 38 40 42 42 42 42 43 47 50 56 57 58 58 41 31 24 21 22 22 30 28 30 26 23 20 18 15 13 12 11 13 13 14 15 16 18 16 17 15 14 17 20 19 17 17
36 34 36 39 42 44 44 44 45 46 51 55 60 60 63 53 36 31 23 19 23 24 32 31 30 28 25 22 19 17 15 13 11 11 13 14 16 17 18 17 15 17 17 17 17 15 16
31 31 34 37 37 37 41 42 45 47 51 56 61 65 63 54 40 33 25 19 21 26 28 31 33 34 30 28 24 21 20 20 18 17 15 14 14 16 19 20 17 17 16 17 17 16 16
30 31 34 32 30 32 34 39 42 45 47 55 61 63 62 49 40 32 24 17 15 20 24 32 29 35 35 33 29 26 23 23 22 21 22 21 19 14 14 16 17 16 18 18 18 19 19

GFSGBSN_500_spd_063.txt.gz
Wind_Speed
36 42 44 54 60 67 71 76 81 84 72 61 53 53 40 49 56 62 60 37 19 12 20 22 21 19 21 20 23 29 61 73 65 66 65 67 60 55 57 52 54 55 48 51 52 50 62
34 40 43 53 60 66 71 77 82 83 71 57 51 53 36 46 54 61 59 43 29 16 13 15 19 20 18 21 30 25 52 73 68 67 55 63 59 54 54 53 50 53 56 51 48 48 52
36 39 41 51 59 64 70 75 82 82 75 56 50 52 37 44 53 57 61 51 30 24 19 12 18 18 20 22 30 31 39 68 67 62 51 58 57 55 52 53 51 50 54 56 49 45 45
36 39 41 50 56 62 69 74 80 82 71 55 49 43 37 42 50 53 64 55 35 23 19 13 6 12 17 17 21 31 35 64 63 57 50 49 52 55 52 51 51 51 50 56 58 48 43
35 38 41 49 56 61 67 74 80 83 73 56 47 39 34 41 48 53 56 56 39 28 20 14 8 2 7 14 23 35 35 61 59 53 45 40 51 56 52 50 50 50 49 48 58 53 47
34 39 43 46 53 59 65 72 78 82 73 55 45 41 37 37 45 51 52 52 45 33 23 15 13 6 10 20 42 35 39 57 61 60 42 35 47 53 52 50 43 41 44 39 39 47 53
33 38 42 45 50 56 64 70 77 83 71 54 40 38 34 34 46 51 47 42 44 39 30 24 14 5 12 25 20 28 47 56 62 65 46 31 38 45 49 47 39 33 36 33 36 42 52
33 38 42 44 48 53 61 66 74 79 78 56 35 35 28 32 46 47 41 33 36 42 37 23 14 7 21 26 31 32 51 50 52 54 52 33 33 40 40 39 39 32 31 32 35 39 47
31 35 41 43 46 49 59 61 69 76 78 64 37 32 25 29 41 41 40 36 30 36 39 31 18 25 20 19 27 51 50 47 47 47 42 31 36 37 37 33 33 31 28 30 32 36 43
30 35 41 41 44 46 53 60 68 74 77 73 42 28 24 21 32 38 39 32 33 33 33 32 20 12 12 17 48 56 48 44 36 40 33 33 35 36 37 34 31 33 28 28 26 33 39
30 33 38 40 44 44 51 59 64 71 75 73 48 26 23 15 27 32 35 35 28 39 43 28 33 33 29 35 53 47 42 37 40 43 35 29 29 35 33 33 32 32 27 23 22 24 29
29 32 35 38 42 41 47 55 60 66 74 75 53 29 17 11 19 22 22 30 34 32 31 29 17 23 25 20 14 17 27 33 34 39 31 26 28 33 33 31 32 29 25 25 25 26 27
29 31 33 36 39 40 43 49 56 61 70 74 65 39 18 8 6 14 12 16 20 34 30 22 18 19 22 17 14 17 18 22 27 27 35 25 19 23 28 28 28 28 27 27 26 26 25
26 27 32 37 38 37 39 45 52 58 65 71 73 45 27 10 6 9 12 11 17 19 25 23 16 17 14 18 11 32 33 31 31 22 24 23 23 24 24 28 26 26 23 22 22 22 21
23 28 32 37 38 36 35 42 49 53 62 69 73 58 30 15 12 14 14 7 12 12 18 21 16 3 11 13 13 12 25 23 25 26 25 24 22 22 24 24 25 24 21 20 21 21 23
25 27 31 35 38 35 34 38 44 49 59 66 70 70 39 21 14 17 18 11 8 11 10 15 13 12 6 6 8 9 19 14 19 18 17 20 22 22 21 24 25 26 24 23 22 21 22
23 25 29 37 38 36 34 36 40 47 56 64 70 70 52 23 15 17 17 18 14 11 12 10 6 7 9 7 7 8 13 16 17 21 22 23 26 27 29 29 25 27 27 25 22 21 20
23 28 32 36 37 38 31 33 36 46 52 61 68 71 56 36 19 15 17 18 20 16 14 10 4 1 3 6 9 10 15 16 17 20 20 20 20 22 21 23 26 27 25 21 23 23 24
27 29 31 35 39 38 29 32 37 40 48 57 66 68 64 46 22 14 18 17 16 15 13 11 8 5 4 6 6 9 15 18 17 20 21 22 23 19 18 21 24 24 25 26 25 25 28
27 30 32 37 40 37 29 30 35 39 45 51 62 69 68 60 40 16 16 18 17 15 13 14 15 12 8 8 8 9 7 11 18 21 19 24 24 21 19 17 24 24 24 25 26 26 19
29 32 33 37 40 41 29 29 36 41 44 50 57 66 71 69 48 24 16 19 20 17 13 15 19 18 13 11 9 11 11 9 10 14 17 18 19 20 20 20 19 26 29 31 29 23 25
30 32 36 39 42 43 34 31 38 42 45 49 53 62 73 74 65 34 17 17 22 21 18 15 17 18 18 17 16 14 14 15 15 14 14 16 18 21 21 20 19 20 22 22 21 24 23
33 34 37 42 44 44 37 35 39 43 46 51 55 60 70 75 66 40 19 18 20 24 22 19 18 19 18 18 20 19 17 16 16 18 19 20 19 19 20 22 23 24 20 23 24 25 24
34 36 38 44 45 46 40 36 38 39 45 48 54 57 64 74 69 51 24 17 18 20 27 26 22 20 21 21 21 22 20 19 17 18 19 19 22 23 20 20 21 16 20 25 25 23 26
37 38 39 44 45 46 40 36 37 39 43 47 51 57 61 70 74 51 25 17 21 22 24 29 28 23 22 22 22 22 22 21 20 20 19 20 20 21 23 21 18 17 19 20 21 19 25
39 41 43 47 49 42 35 34 35 39 41 47 50 55 60 67 73 60 29 21 18 23 23 28 28 28 24 23 21 20 19 18 19 17 18 19 20 22 22 22 16 14 17 20 20 18 23
46 44 45 47 44 40 33 34 36 38 41 46 49 54 56 64 73 61 39 25 21 22 21 24 28 30 27 24 23 21 20 18 16 14 16 17 18 18 20 20 16 18 20 19 18 19 19
47 47 46 45 40 35 31 34 36 40 42 46 48 54 56 61 70 63 40 29 19 18 19 23 27 29 31 28 25 24 22 20 17 16 15 15 14 16 18 19 19 20 20 20 20 19 19
46 45 45 39 33 30 32 37 39 40 40 44 47 53 56 60 67 55 40 29 20 16 16 21 25 30 30 32 30 28 25 24 22 21 21 21 21 18 17 17 17 20 23 22 20 21 20

GFSGBSN_500_spd_066.txt.gz
Wind_Speed
31 36 38 44 48 52 59 65 73 82 85 80 80 56 48 41 50 57 54 58 57 49 26 21 24 23 21 21 23 24 37 68 68 53 64 59 61 59 54 54 53 51 57 53 47 46 47
29 35 39 44 49 53 55 64 73 80 85 83 74 54 48 45 50 56 53 55 57 46 32 17 24 23 22 21 23 23 28 58 69 67 65 57 57 59 56 53 52 48 54 59 50 47 41
30 35 40 44 48 54 55 63 73 80 84 84 70 52 45 43 52 55 54 52 57 44 30 21 12 19 18 20 20 19 21 45 66 64 63 54 58 61 56 52 52 50 52 56 41 50 42
31 35 39 42 47 54 55 60 71 77 85 83 74 51 42 43 54 55 54 51 55 47 29 27 23 9 19 20 20 22 24 34 61 59 58 47 52 60 56 53 53 51 53 61 39 42 52
32 34 40 40 47 51 54 59 69 75 82 81 71 48 39 44 50 54 52 50 51 50 30 26 17 9 7 17 19 22 26 36 62 50 55 51 42 59 58 53 54 55 51 53 46 45 40
33 33 38 40 46 49 53 56 66 72 80 81 72 46 37 42 49 50 48 49 47 49 36 27 19 11 3 7 14 23 26 41 52 47 51 51 37 55 60 54 48 41 46 51 53 47 34
31 31 36 41 43 48 52 54 62 69 78 82 76 44 35 38 45 45 45 47 43 47 39 35 19 11 10 19 23 25 22 51 45 50 53 35 39 48 50 50 46 41 46 44 40 47 48
31 31 35 39 41 46 49 54 59 66 75 80 79 49 34 31 38 43 43 45 44 44 40 29 27 15 15 10 6 22 33 51 37 49 53 38 34 42 50 49 47 42 39 42 42 37 39
28 30 34 38 39 43 48 51 56 62 70 77 79 54 30 25 30 35 43 51 45 42 47 26 18 13 8 8 14 22 48 51 53 52 33 31 30 39 48 48 44 39 34 36 39 39 38
27 29 34 35 37 40 45 48 52 57 68 75 78 63 32 19 23 26 31 42 49 37 41 36 23 13 5 3 9 28 46 51 59 50 31 33 30 39 43 45 39 34 30 34 37 36 37
26 29 30 31 36 40 42 45 49 53 63 71 76 73 40 20 17 20 25 35 39 34 33 34 38 26 24 28 32 34 39 45 55 43 23 27 27 37 37 35 33 34 33 31 30 32 35
25 26 27 30 35 36 39 40 45 50 59 66 73 74 50 25 15 14 22 28 31 35 25 30 28 35 34 23 24 24 37 36 37 37 26 15 29 34 35 32 31 33 34 29 26 26 25
23 22 25 29 31 34 37 40 40 47 55 62 69 73 60 35 19 15 17 22 22 29 26 25 24 22 18 13 12 26 31 32 34 36 22 19 26 29 31 35 33 31 32 30 26 25 20
20 21 25 28 29 34 36 36 40 43 57 56 63 69 67 50 28 19 16 17 18 17 25 21 19 21 19 14 9 13 27 33 32 28 19 20 24 27 30 30 30 31 31 32 29 25 21
17 18 23 25 27 33 35 34 36 40 51 53 60 67 71 66 38 21 18 14 14 14 15 19 11 15 18 11 8 5 13 26 32 21 21 17 11 19 27 28 29 28 29 29 26 24 21
17 16 20 26 28 31 34 34 33 39 49 52 57 63 69 71 52 32 19 18 15 12 11 12 13 5 9 11 8 9 12 15 22 14 23 17 16 20 22 26 27 26 25 25 23 24 23
18 15 20 24 27 28 33 35 33 37 47 50 54 60 66 70 64 46 18 18 15 14 13 10 6 8 3 8 7 12 15 15 14 17 22 18 17 17 19 22 23 25 27 28 26 26 24
21 19 22 23 24 26 32 35 39 36 43 47 53 58 64 69 69 51 18 15 17 14 13 14 5 1 1 5 12 13 16 16 14 18 20 19 18 20 21 21 24 26 29 30 32 28 21
23 21 22 22 24 26 29 36 39 40 42 46 50 56 60 64 69 61 28 16 16 14 14 14 12 8 6 5 7 12 19 20 20 18 21 23 23 25 25 26 26 28 29 27 27 24 26
22 21 22 24 26 26 29 35 38 45 40 43 49 52 56 62 68 66 35 16 14 15 12 15 16 14 12 12 11 10 12 18 22 24 23 25 25 24 23 22 21 25 25 25 27 28 27
24 22 23 25 24 26 29 32 37 44 37 39 46 51 53 58 65 65 34 12 16 16 16 14 20 20 18 15 14 15 15 14 17 20 21 22 24 26 26 26 24 22 26 26 27 28 26
23 25 24 25 24 24 26 31 39 40 36 38 45 47 51 56 62 66 44 18 17 14 19 18 19 23 24 21 18 17 17 16 15 16 20 20 20 23 25 26 24 22 21 21 25 26 30
24 25 25 26 24 26 29 34 38 38 34 37 42 45 50 56 59 64 57 27 14 15 18 21 20 23 25 26 24 22 19 19 18 18 19 20 20 22 23 24 24 24 17 20 20 19 22
26 28 25 25 25 28 30 32 37 37 33 36 39 46 48 54 58 62 65 36 11 15 16 22 22 21 25 25 25 26 24 22 20 20 20 20 20 22 20 20 21 16 18 23 25 23 26
29 31 30 27 28 31 32 35 37 38 31 34 40 42 46 52 56 60 63 44 19 13 16 17 24 26 25 26 27 26 25 25 24 22 22 21 21 21 23 24 24 19 18 21 23 22 28
31 34 32 29 31 35 37 38 38 30 29 34 36 40 45 50 56 58 63 49 27 15 15 14 20 28 28 26 24 26 27 25 25 24 23 22 21 22 22 23 22 19 21 22 22 23 25
35 35 35 34 33 38 39 36 37 29 29 32 33 38 42 48 52 55 59 52 34 20 12 12 17 22 29 29 26 25 25 24 24 21 21 22 22 20 22 23 19 21 22 23 22 21 21
38 35 37 36 34 36 33 33 33 28 26 28 32 36 41 46 50 52 56 52 37 27 17 13 15 20 24 29 29 25 24 24 21 19 19 18 17 17 18 18 16 19 22 23 22 22 21
39 37 37 36 38 40 34 34 31 28 25 29 30 35 40 43 47 49 52 49 36 29 21 14 15 17 21 28 30 28 25 24 22 20 19 18 19 18 18 17 17 19 22 25 26 23 22

GFSGBSN_500_spd_069.txt.gz
Wind_Speed
29 30 34 38 43 46 50 52 58 65 73 81 86 87 67 51 50 49 51 55 53 56 44 29 11 21 19 17 25 25 27 50 65 62 57 49 63 67 61 56 53 50 42 56 61 51 43
29 30 33 37 42 47 50 53 56 64 71 80 83 84 64 48 49 48 54 56 51 56 40 26 15 27 27 18 16 18 21 32 55 63 62 42 57 59 64 56 53 51 43 48 55 43 39
29 32 34 36 40 46 50 52 56 64 70 78 82 83 63 45 48 51 53 57 52 58 42 23 17 10 25 23 20 19 20 23 47 57 60 56 51 55 56 57 52 52 47 45 51 58 41
28 31 35 35 38 44 48 50 54 60 68 76 81 84 61 41 44 51 54 54 54 57 45 23 16 12 7 15 20 22 18 21 39 48 54 51 42 43 50 59 53 43 49 42 51 56 44
28 29 33 34 37 42 45 49 52 58 66 75 79 81 60 40 38 46 54 57 53 56 44 28 18 16 5 14 19 22 20 19 41 53 54 50 52 43 47 59 54 45 42 45 42 54 43
27 28 32 32 36 40 43 48 49 56 63 71 75 78 61 38 35 40 49 58 52 55 40 33 26 21 14 2 17 21 22 25 38 55 50 48 42 41 44 58 46 48 45 39 40 47 49
28 27 30 30 34 36 44 47 46 53 60 69 73 76 64 38 33 37 46 55 49 53 34 27 29 24 23 17 3 16 23 39 43 49 46 45 37 42 43 49 47 45 44 41 37 44 41
27 26 27 28 30 34 42 44 42 49 57 65 69 73 71 42 31 35 42 48 48 47 46 23 20 20 21 17 11 15 21 50 47 47 50 48 31 36 43 45 46 45 41 41 37 40 48
26 24 24 26 27 33 40 39 39 45 53 60 65 71 74 50 30 31 38 43 44 42 44 46 27 21 14 13 11 13 47 37 29 40 55 42 29 33 40 43 46 43 37 36 37 35 40
25 22 22 24 25 30 36 37 38 41 49 56 63 69 73 59 38 26 31 38 39 35 35 40 44 33 17 9 14 43 40 23 22 45 48 46 28 28 35 39 43 43 37 32 33 34 38
24 22 21 22 23 28 33 37 36 37 48 53 60 66 71 69 47 27 24 32 33 35 30 29 40 43 39 19 35 42 24 33 41 47 34 30 27 26 31 39 41 39 34 30 29 32 39
23 22 20 21 23 28 31 35 34 36 44 50 57 63 69 72 54 38 22 24 27 32 26 25 30 32 31 24 36 32 31 47 36 29 21 28 23 30 32 37 39 36 33 32 29 28 29
23 22 20 18 22 26 28 30 31 34 40 48 52 59 66 70 62 45 28 17 21 25 27 22 24 28 28 20 24 30 35 40 29 29 25 17 24 29 28 35 35 35 34 33 30 26 24
22 20 17 15 19 23 26 27 29 32 38 46 49 55 61 65 64 50 34 17 14 17 22 18 20 18 23 22 16 22 21 36 30 18 11 18 24 27 31 33 33 35 35 35 33 28 22
19 17 16 15 17 21 23 24 29 34 37 42 48 51 58 61 61 52 35 18 12 13 13 17 12 18 20 16 12 19 18 24 19 17 15 15 23 27 30 29 29 28 29 30 32 29 22
18 15 16 14 13 17 19 23 28 31 38 40 44 49 55 57 60 60 46 23 11 8 8 9 11 5 11 12 14 16 18 20 22 17 17 19 17 20 23 27 30 30 28 29 28 28 26
22 18 19 18 14 16 18 23 29 31 36 37 42 46 51 53 59 61 51 23 12 8 8 8 3 5 4 11 12 15 13 19 19 10 16 16 10 16 23 27 26 28 28 28 27 28 28
23 19 20 22 19 18 21 22 25 30 33 35 39 43 47 53 58 62 57 33 18 7 7 11 7 3 4 8 16 18 17 19 20 14 21 18 17 19 21 21 26 27 29 28 30 28 28
26 20 21 21 20 17 17 19 22 29 32 35 36 41 45 52 57 60 59 40 21 10 11 11 11 10 9 9 12 17 23 21 20 20 21 20 18 17 19 21 23 24 23 25 27 28 29
25 24 23 20 19 16 15 15 23 27 31 34 34 38 44 50 54 58 59 49 25 14 12 13 15 14 14 12 13 15 18 20 21 22 24 24 24 24 24 23 23 22 22 24 27 32 31
27 26 24 21 19 16 13 16 22 27 30 35 33 37 40 46 51 55 58 57 27 16 11 16 17 19 17 16 16 15 16 18 21 22 23 24 24 23 22 20 21 20 20 22 25 28 29
31 26 24 22 19 17 13 15 20 27 30 31 31 35 38 43 49 52 56 54 39 17 11 16 19 21 23 20 18 17 17 18 17 21 25 25 24 25 25 25 24 26 27 24 24 24 28
33 28 24 22 18 15 13 13 19 28 31 28 29 35 37 40 47 51 54 56 44 22 12 12 20 21 25 26 24 22 20 19 19 18 20 24 25 24 24 26 27 27 25 25 22 20 24
34 29 26 22 19 16 16 15 21 27 29 26 29 33 35 38 45 48 52 55 42 22 15 15 13 24 24 25 28 27 23 22 19 20 20 19 21 23 22 24 26 20 20 25 25 23 24
36 32 28 21 20 18 18 18 21 23 26 23 27 31 33 36 42 44 49 52 46 27 16 15 14 18 26 26 26 26 27 26 22 21 20 21 22 23 22 21 23 20 20 21 21 22 24
36 32 30 23 21 21 21 18 19 21 24 22 25 29 31 35 38 42 45 49 49 34 21 13 14 15 20 28 26 27 26 25 24 23 22 22 22 22 22 23 21 18 21 23 24 24 23
34 33 30 28 24 25 24 21 21 23 24 23 24 29 29 31 36 39 42 46 49 41 28 18 12 12 16 23 28 25 25 26 26 24 23 24 23 22 22 23 19 20 21 23 25 23 22
42 35 33 27 26 27 25 23 22 26 25 23 24 27 28 29 33 37 39 43 46 43 32 26 19 10 14 20 25 27 25 24 23 22 22 23 22 19 19 19 16 17 19 21 23 24 23
44 35 31 35 33 28 26 26 22 27 27 23 22 24 24 28 32 34 37 40 43 42 36 26 20 13 8 17 19 26 26 24 23 21 22 21 20 17 15 15 16 17 18 19 20 22 24

GFSGBSN_500_spd_072.txt.gz
Wind_Speed
30 32 30 32 35 36 39 43 46 48 53 59 67 73 77 73 57 47 51 58 64 61 60 39 18 10 15 17 21 28 30 45 65 58 55 50 52 54 63 61 62 55 54 52 51 63 54
32 31 31 33 34 34 37 41 48 47 51 57 65 72 76 70 55 44 51 57 63 61 58 45 20 9 21 18 18 21 26 31 59 59 54 53 45 60 62 62 58 54 51 54 43 56 56
32 30 32 31 35 33 34 41 46 45 50 55 63 69 75 70 55 43 49 56 58 57 52 47 29 15 14 26 18 25 25 24 41 59 56 51 50 47 59 60 58 52 51 45 43 42 55
31 30 31 31 33 32 33 39 43 42 47 53 62 68 74 71 56 43 46 53 55 56 47 37 34 32 8 23 26 19 21 21 26 49 60 51 44 39 52 58 57 54 52 45 43 45 45
30 29 30 30 31 30 31 38 40 39 44 52 60 66 73 74 57 42 43 50 51 53 46 35 31 31 22 1 20 22 20 19 20 43 56 55 42 37 45 54 60 54 53 47 38 43 49
29 29 28 28 27 26 30 37 38 35 42 49 57 64 71 73 58 41 39 46 49 47 48 36 29 28 25 11 13 23 23 22 21 41 48 56 39 34 42 52 56 52 49 45 41 40 46
29 29 25 26 23 23 28 34 35 34 41 47 54 61 68 73 60 42 34 41 45 45 45 43 27 21 19 15 11 22 23 22 47 44 48 54 50 31 38 46 51 53 48 43 43 36 42
26 27 23 23 21 21 27 32 35 36 39 46 51 59 64 70 60 45 29 36 42 43 42 44 27 18 18 15 12 17 24 35 46 33 47 51 45 37 35 45 42 45 45 40 37 39 36
24 26 21 22 19 19 26 32 35 32 36 43 48 55 62 67 64 46 31 30 37 41 40 40 34 17 16 10 13 15 17 46 35 24 50 56 37 29 33 38 38 42 43 44 37 34 34
23 25 21 19 17 18 25 31 31 28 33 39 46 52 59 64 65 51 36 24 31 37 37 35 37 21 17 18 25 32 31 33 40 49 48 54 49 29 29 34 35 41 40 38 35 35 33
24 24 21 18 16 17 23 26 25 27 31 37 43 49 56 60 64 54 41 22 25 31 33 36 32 27 37 38 33 23 25 28 37 41 43 35 32 27 29 35 37 42 37 32 30 32 32
25 25 21 18 15 16 20 23 22 25 29 33 39 45 53 57 63 59 42 22 18 25 27 31 23 28 36 21 25 27 20 29 37 50 38 28 22 23 23 32 37 36 34 31 29 28 29
26 25 20 17 12 14 18 20 20 22 28 32 37 43 49 54 60 62 47 24 13 18 24 24 19 26 26 18 20 26 33 36 40 37 29 24 20 20 29 32 35 35 35 33 31 28 26
27 25 20 18 13 13 15 15 18 22 26 29 34 40 45 53 58 61 51 28 13 9 15 18 16 26 19 16 20 36 38 36 24 21 24 25 25 22 26 25 29 33 34 32 32 29 26
28 27 20 18 15 12 11 13 18 23 23 25 30 36 41 48 54 59 56 31 19 5 6 12 11 17 19 13 18 27 29 27 21 16 16 21 23 25 26 26 30 33 34 33 33 33 26
30 27 20 19 17 12 11 12 18 19 23 24 28 32 37 45 51 55 58 46 22 4 2 4 7 5 12 13 19 17 23 17 10 14 13 16 17 20 23 24 27 30 30 31 31 31 30
33 28 25 21 20 16 15 15 17 17 21 23 26 29 35 41 48 53 56 54 34 12 7 6 2 4 7 14 17 19 20 15 13 9 12 14 17 19 22 25 26 27 30 30 28 29 30
32 30 27 24 22 20 18 15 15 16 18 22 25 27 32 38 45 49 53 56 45 20 6 10 7 6 8 13 21 16 19 17 19 14 19 16 13 16 21 23 24 27 28 27 27 28 28
38 32 27 25 22 20 19 13 12 14 15 21 23 26 31 35 41 45 50 53 48 26 10 11 12 12 10 12 17 23 22 21 24 15 18 22 17 18 20 24 27 29 28 28 29 29 31
40 34 29 28 24 19 18 14 11 12 15 20 22 25 29 34 38 41 47 51 49 34 16 8 14 15 15 15 16 18 20 22 27 21 18 21 20 19 21 21 22 23 26 29 32 32 27
42 36 32 29 26 21 17 14 10 10 17 20 20 24 27 31 36 40 44 49 49 40 23 10 15 17 19 17 18 18 19 22 23 24 24 23 23 23 22 23 22 22 24 25 26 23 29
40 39 32 29 24 22 16 15 11 11 16 19 19 22 25 29 33 38 42 45 48 44 26 11 11 19 20 21 19 19 19 19 20 24 25 27 28 29 28 28 27 26 26 26 25 23 24
43 39 32 30 24 21 15 15 13 11 13 16 17 20 23 29 32 36 39 42 45 46 33 14 8 15 22 23 24 21 20 19 19 18 20 24 26 27 26 26 27 26 24 25 27 25 25
48 42 35 32 25 22 18 16 13 11 12 15 16 19 21 27 29 33 36 39 43 44 35 20 12 9 19 24 25 27 23 21 19 18 19 17 19 24 25 25 25 23 23 25 27 28 28
46 48 39 31 27 23 18 13 9 7 9 14 17 17 20 25 26 31 33 35 40 43 37 26 13 11 14 22 26 26 27 27 23 20 18 20 21 21 22 24 26 22 23 25 28 29 29
52 45 41 30 26 23 16 14 10 8 11 13 18 19 21 24 25 29 30 33 36 41 39 32 18 9 11 15 25 26 25 26 27 26 22 21 21 23 24 25 27 22 24 26 28 29 26
51 47 42 37 27 25 18 14 14 9 12 13 17 19 18 19 22 26 28 29 32 38 38 34 24 16 10 11 18 26 25 24 26 25 24 24 24 23 22 24 21 22 23 23 24 24 24
51 46 41 36 27 25 21 18 15 10 10 13 16 19 18 17 20 23 25 26 29 33 35 35 28 21 15 9 14 19 27 25 23 23 23 24 25 24 25 24 23 23 23 22 23 23 23
56 48 42 36 30 23 22 18 16 13 11 12 16 19 17 16 19 21 22 23 26 30 32 34 31 22 16 12 8 16 20 26 26 23 22 23 22 21 22 22 21 21 22 22 20 21 22

GFSGBSN_500_spd_075.txt.gz
Wind_Speed
31 30 31 31 32 33 34 32 34 41 40 41 49 56 62 68 74 72 55 48 52 56 56 57 51 35 12 13 13 34 19 30 35 60 57 51 54 60 61 60 63 56 55 50 35 47 59
31 31 30 32 31 30 32 28 33 39 37 41 47 54 60 66 72 74 58 46 50 55 53 53 47 35 12 15 16 25 22 29 27 56 57 52 43 59 60 60 56 64 65 62 49 43 49
28 30 31 29 29 31 27 26 32 36 35 40 46 53 59 66 71 72 58 44 49 52 51 51 43 33 28 21 18 18 23 23 24 49 55 50 40 42 56 58 60 65 65 56 46 32 47
28 28 31 27 28 28 24 25 32 34 36 40 45 51 58 64 70 71 59 43 46 50 50 48 41 29 21 6 18 19 20 23 24 43 54 52 43 32 44 51 55 58 65 46 60 48 41
27 27 28 26 25 25 21 24 31 33 36 37 42 48 56 62 68 69 58 40 43 47 48 47 39 22 18 12 26 19 24 23 25 37 53 51 45 41 41 47 41 53 56 54 47 45 49
28 26 27 25 24 25 20 24 30 33 34 34 38 46 53 60 66 67 56 40 39 44 45 46 38 22 15 13 17 24 22 21 17 34 50 50 50 39 34 43 42 48 54 50 47 42 51
30 27 25 24 21 24 20 24 29 32 29 31 36 44 51 56 62 64 56 39 35 41 44 47 39 18 13 14 13 26 25 19 18 29 54 54 46 35 28 33 41 45 48 43 45 43 44
31 28 24 23 21 21 20 25 28 29 26 29 34 40 48 54 61 63 56 38 32 38 42 45 36 16 15 16 10 20 27 23 17 33 51 47 42 29 29 32 40 43 49 46 43 41 35
34 29 25 23 20 21 20 24 26 26 25 27 31 37 44 50 57 61 56 38 29 35 39 43 25 18 15 10 10 17 20 21 24 49 50 46 38 30 29 32 37 38 49 36 39 41 40
34 30 26 24 20 20 20 23 24 23 23 24 28 35 42 48 54 59 56 41 26 30 35 31 27 27 25 15 21 10 14 36 36 32 44 47 35 24 24 29 38 33 40 44 40 34 37
33 32 27 25 21 20 21 20 23 22 20 21 25 32 39 46 51 57 58 39 23 25 29 24 23 27 25 25 23 17 19 22 20 31 45 43 37 21 24 26 32 34 37 43 43 32 33
34 33 30 24 22 20 21 18 19 19 19 20 22 28 35 42 49 55 56 38 26 20 22 21 14 21 26 25 18 13 10 17 26 40 49 35 38 19 17 24 31 35 36 35 34 36 36
37 34 30 26 23 21 20 16 15 15 19 20 20 26 31 39 45 51 54 42 26 15 18 18 9 13 15 14 14 20 20 23 31 39 47 31 28 18 19 22 29 30 32 29 30 31 31
40 35 31 26 24 23 20 16 14 15 17 19 18 23 28 36 42 47 51 45 28 13 13 12 14 12 15 12 14 25 29 34 35 39 31 27 27 23 19 23 23 23 29 31 29 30 29
41 36 32 27 26 24 22 18 14 14 16 18 18 20 25 33 38 44 49 47 35 12 3 8 9 10 13 18 22 27 35 34 30 20 13 15 20 23 21 17 23 26 34 31 33 34 30
41 36 33 31 28 25 24 18 15 16 16 17 17 17 23 29 35 39 45 48 36 19 4 1 3 8 10 21 26 22 23 18 18 14 15 16 17 16 19 22 26 29 30 33 33 32 29
43 38 34 29 28 26 25 19 18 15 16 15 17 15 22 26 31 37 41 47 45 31 8 6 3 6 9 16 14 19 14 12 13 11 13 15 17 17 19 20 20 27 28 31 32 32 27
46 38 38 34 32 29 27 23 18 15 14 15 15 13 19 23 29 33 37 44 47 41 18 8 9 7 10 13 20 15 14 8 4 6 12 15 16 19 19 19 22 25 26 28 29 27 29
45 46 39 26 32 31 26 26 19 14 13 13 12 12 17 20 27 30 34 41 43 43 28 8 11 13 11 15 18 21 25 21 15 12 14 14 13 15 16 19 21 21 21 22 25 27 26
49 40 39 39 33 29 25 19 19 14 10 8 10 9 14 18 24 27 31 37 41 43 34 16 7 15 16 15 19 22 21 22 22 20 18 17 17 17 17 19 21 23 24 25 28 30 26
52 50 51 32 32 30 23 20 20 15 13 9 9 8 11 17 21 25 28 34 39 40 39 24 12 12 17 18 19 21 24 20 23 26 26 19 20 23 20 20 20 20 24 28 31 23 32
55 49 47 29 36 31 29 24 22 17 14 13 11 9 9 16 18 23 25 29 35 38 41 30 16 7 17 20 21 20 22 24 25 25 28 26 22 23 24 22 20 20 21 23 24 22 27
55 52 40 36 37 30 31 24 23 18 14 12 8 8 8 13 16 21 23 25 31 36 40 36 21 9 12 18 21 22 22 23 23 25 27 27 25 26 29 27 27 27 26 28 28 28 29
59 52 42 37 39 30 31 25 22 19 15 10 5 6 7 10 14 19 21 22 28 33 38 38 28 12 9 15 22 23 24 22 22 23 22 21 24 30 32 32 32 30 26 28 29 30 31
63 50 40 36 36 34 32 28 25 19 14 10 5 4 6 9 12 17 19 20 24 31 34 37 35 22 11 11 17 23 24 25 25 22 21 21 22 21 25 30 31 29 26 25 28 32 32
58 47 49 46 36 33 25 23 21 19 11 9 5 4 6 9 11 15 17 19 21 28 31 35 34 29 16 10 14 18 24 26 25 27 25 23 21 22 22 24 24 24 23 25 27 30 28
53 51 44 44 37 30 24 23 18 16 12 6 5 4 5 7 10 13 15 17 18 23 28 32 34 31 23 15 12 16 19 24 24 25 24 26 26 24 23 25 23 22 23 25 26 30 24
63 62 48 43 36 36 28 23 16 11 10 6 4 4 4 5 8 11 14 15 16 20 26 29 33 33 31 21 12 11 17 19 23 23 23 25 26 25 26 28 26 24 25 25 25 25 25
58 63 49 48 42 38 28 22 19 12 9 8 6 7 6 5 8 10 12 12 13 15 21 25 29 32 34 24 18 11 12 17 20 24 23 23 25 24 24 26 26 27 25 24 23 22 22

GFSGBSN_500_spd_078.txt.gz
Wind_Speed
37 31 28 29 28 27 26 29 31 28 33 35 38 42 45 49 55 63 69 69 62 52 52 56 56 55 44 38 12 12 13 15 30 40 45 51 57 54 55 56 58 59 50 55 57 41 60
37 35 30 29 27 29 26 28 28 29 33 35 38 40 43 48 54 61 67 67 59 50 52 54 55 54 36 29 10 16 13 15 26 38 38 54 45 47 52 57 56 45 63 51 50 59 45
38 37 34 29 27 27 27 27 27 30 32 36 35 37 42 46 53 60 65 65 56 50 52 53 54 50 28 24 11 14 19 15 21 27 44 50 51 41 54 55 59 55 67 57 55 50 59
35 37 34 32 28 27 26 26 27 30 31 35 33 35 41 45 51 58 63 62 53 49 50 52 55 43 25 20 11 13 16 18 24 28 49 42 52 38 45 52 55 59 53 51 46 47 52
38 36 36 32 28 26 27 27 27 30 31 34 31 33 39 43 50 56 60 60 51 47 48 51 52 36 22 22 7 14 14 19 18 29 47 45 45 34 46 47 55 53 56 62 38 55 61
45 37 36 34 32 26 28 27 27 29 30 33 30 32 36 41 48 54 58 58 49 46 46 50 46 35 24 21 6 15 18 18 20 26 46 42 37 36 44 42 50 52 49 53 46 41 44
51 45 36 35 32 28 28 26 27 28 29 30 28 29 33 40 46 52 56 54 48 43 45 44 39 29 21 21 8 17 22 18 18 24 46 48 39 41 33 36 38 41 49 47 48 56 53
55 51 41 34 34 30 29 26 27 26 28 27 27 28 31 38 45 50 54 52 45 39 40 36 33 30 24 20 7 20 20 17 15 24 46 49 43 30 35 38 38 36 40 42 46 52 51
58 53 46 35 35 30 29 27 26 24 26 25 26 28 29 36 43 48 52 52 43 33 37 29 30 32 29 25 8 18 20 17 11 24 44 45 43 33 27 26 34 31 32 41 33 45 45
67 57 52 39 33 31 30 28 25 22 24 24 24 26 27 33 40 46 50 53 40 30 31 24 26 26 28 28 27 9 16 19 14 35 38 31 38 30 26 28 26 29 27 35 39 29 40
71 63 53 45 31 32 28 31 25 21 22 22 23 25 24 30 36 42 48 50 39 30 27 25 21 17 20 24 24 17 20 15 20 40 36 31 32 26 24 26 26 23 28 29 30 31 34
73 66 54 49 32 37 28 30 26 20 20 20 22 21 22 28 33 39 46 47 41 26 20 23 15 11 8 10 12 13 6 22 32 29 38 32 28 26 26 26 28 25 22 30 37 30 29
76 67 56 50 34 34 32 31 27 20 20 19 19 19 19 25 31 36 42 43 39 25 22 18 14 15 6 4 2 8 9 15 17 33 37 31 20 17 18 19 27 29 21 25 31 38 33
75 66 58 51 37 40 27 28 28 21 19 16 18 17 16 21 27 33 39 42 39 35 13 14 11 13 12 6 5 11 11 15 22 36 40 32 17 18 13 18 20 25 30 26 26 31 33
72 66 64 49 39 35 27 30 29 23 20 15 17 15 13 18 23 29 35 39 40 35 14 10 9 9 8 9 15 13 13 23 36 35 29 26 21 13 12 14 19 23 26 26 28 28 28
70 70 66 47 40 39 32 30 30 25 20 14 16 13 11 14 20 26 31 36 38 36 15 4 7 8 11 19 20 22 27 30 32 28 22 23 20 19 18 13 17 18 24 26 28 23 24
73 66 61 50 45 43 31 28 31 26 18 13 13 12 8 11 17 22 27 33 38 40 28 3 2 9 13 15 16 13 14 13 6 7 14 18 21 19 17 15 15 21 23 26 28 29 20
72 67 64 49 43 43 29 29 32 29 18 14 12 9 6 8 14 19 24 32 38 39 40 16 5 7 12 14 8 12 9 8 8 5 8 11 14 20 17 15 14 14 24 23 27 25 25
72 69 60 54 43 42 34 31 32 32 20 12 11 7 4 6 12 16 21 28 34 36 42 30 2 12 12 14 18 18 14 11 8 5 6 10 11 12 15 16 18 18 16 23 24 25 25
72 61 57 50 46 45 33 30 32 35 22 12 8 6 4 4 9 13 17 25 33 36 41 40 21 7 16 15 17 19 21 20 17 13 11 11 9 9 11 12 14 15 18 19 23 24 21
74 61 48 53 48 40 34 28 29 32 25 16 9 5 5 2 7 11 15 22 30 33 41 42 35 12 9 17 17 19 20 21 20 19 20 19 16 15 17 16 15 18 21 24 27 19 24
71 52 57 52 50 37 33 31 27 29 25 18 13 8 6 0 5 10 13 18 26 30 38 41 37 25 7 11 17 18 20 23 22 21 23 24 23 21 16 17 16 15 15 18 19 19 23
65 53 60 56 42 36 35 31 26 21 25 19 20 12 8 3 3 8 10 15 21 28 36 39 39 32 17 5 14 19 20 22 24 24 25 25 26 27 26 21 20 18 15 17 18 18 20
63 48 46 47 42 39 33 26 28 23 29 22 19 13 9 4 3 7 9 12 18 24 31 35 37 36 27 11 8 16 20 22 21 22 24 23 24 25 27 27 27 25 21 23 24 22 23
59 36 40 43 42 40 36 28 32 28 31 25 22 12 10 6 3 5 8 9 13 20 25 31 34 37 34 21 10 11 16 23 23 22 21 23 24 22 21 25 28 30 28 26 26 26 26
54 47 42 52 41 42 38 32 33 31 31 28 25 18 11 7 5 4 7 6 9 15 22 25 30 35 36 33 21 12 12 17 23 23 24 23 22 22 22 22 23 24 22 23 25 29 27
53 46 47 51 43 38 31 31 32 32 27 28 25 17 11 9 6 3 5 5 6 10 18 21 27 32 35 34 32 20 13 11 17 22 22 24 24 24 23 24 23 24 19 24 27 28 27
48 44 42 49 43 40 35 29 28 31 29 24 23 15 11 9 6 3 3 3 5 7 13 17 22 27 32 35 37 32 21 11 13 16 21 23 24 24 27 29 28 27 25 25 26 26 25
47 51 53 51 39 37 31 25 24 30 28 25 21 15 10 9 6 3 1 3 4 7 8 14 16 20 27 32 36 37 31 20 12 13 17 22 23 21 23 25 28 29 28 28 29 28 27

GFSGBSN_500_spd_081.txt.gz
Wind_Speed
37 35 36 34 31 31 32 30 30 31 31 33 35 38 40 39 42 47 51 55 63 62 58 54 53 56 54 44 29 12 10 8 20 27 49 47 54 55 44 71 68 66 65 55 55 55 56
37 41 33 34 35 32 32 31 31 32 32 34 35 38 38 38 43 46 50 56 62 61 57 53 54 53 49 34 26 6 7 4 4 27 43 44 51 50 43 59 64 64 66 57 49 47 54
39 39 44 37 31 32 33 32 31 32 32 35 34 37 36 40 41 46 50 56 60 60 56 52 53 49 45 32 21 8 13 16 18 26 32 43 48 47 47 50 58 66 61 69 52 60 41
47 43 44 43 43 31 32 34 33 32 33 36 35 35 36 37 40 46 50 55 59 57 53 50 50 50 41 31 16 9 15 10 12 21 27 41 45 45 36 43 55 65 66 52 63 43 56
58 57 50 45 45 42 33 33 35 33 34 35 35 33 36 35 39 45 49 54 57 55 50 47 48 48 38 32 11 14 11 14 11 27 22 40 44 40 42 40 52 58 56 54 55 52 62
58 60 58 49 46 48 37 34 34 34 34 34 33 31 35 34 38 43 47 53 54 51 45 45 43 43 39 30 4 14 14 15 16 19 25 39 44 39 35 43 40 52 46 48 48 60 65
57 62 62 60 54 50 52 34 33 34 35 33 33 30 33 33 37 41 46 51 51 46 42 41 40 35 41 28 6 14 14 19 17 19 30 36 35 32 34 39 39 40 43 38 50 48 46
62 59 63 67 64 52 51 41 31 34 36 32 31 30 31 31 35 38 43 49 47 44 37 36 33 30 41 36 12 13 16 16 19 16 41 39 22 46 36 38 38 34 37 43 37 48 31
65 66 65 68 69 60 51 50 31 32 37 32 29 29 29 29 32 36 40 46 45 37 34 32 28 27 37 38 11 12 15 14 16 20 40 38 23 33 41 38 33 40 36 42 35 42 33
67 68 70 73 70 67 61 52 35 28 38 32 26 27 26 25 29 33 38 45 42 34 29 27 25 20 28 32 23 5 13 13 8 25 35 33 33 34 34 31 32 31 30 31 38 33 25
71 72 74 73 72 67 65 50 42 33 37 33 24 24 24 21 26 30 35 41 40 34 25 27 24 24 20 21 25 20 9 11 8 24 36 35 30 22 32 30 34 26 26 28 26 31 29
92 82 78 74 74 70 65 49 51 30 32 33 21 22 20 20 22 27 32 38 38 32 21 20 17 22 19 16 18 16 8 17 22 30 27 30 32 25 27 31 25 28 24 21 31 29 30
106 101 95 79 75 73 64 50 53 28 33 32 20 20 17 17 19 23 28 34 36 30 29 18 16 19 19 12 10 15 20 29 34 22 29 28 20 22 28 29 28 25 24 22 26 33 32
114 112 109 84 78 74 64 52 50 30 34 31 19 16 15 14 16 20 25 32 33 34 20 13 13 16 14 10 9 13 15 21 32 30 32 25 25 26 26 27 24 24 28 32 30 25 26
64 65 66 75 78 72 62 53 54 31 31 30 19 14 13 12 13 16 22 28 31 31 22 9 12 12 12 13 11 8 11 22 35 28 29 22 19 21 20 24 27 27 21 24 25 26 29
38 41 54 68 72 70 62 56 49 27 35 29 20 15 11 10 10 12 18 24 29 31 22 7 5 11 15 17 17 16 15 14 30 27 17 12 18 17 16 17 19 24 27 24 25 25 25
24 32 52 61 62 63 58 59 39 30 32 30 21 15 11 9 7 8 15 21 27 35 26 8 1 8 7 9 13 15 18 23 31 30 21 14 12 12 10 9 17 20 23 25 22 22 18
6 26 65 63 59 60 60 53 34 34 32 31 21 15 11 8 4 5 12 20 28 34 34 19 1 9 8 3 4 9 14 14 19 22 22 22 17 16 13 12 14 15 17 21 23 22 23
13 59 69 65 57 62 63 49 37 31 32 31 23 15 12 9 4 2 9 17 25 31 34 32 15 7 12 10 8 8 7 6 6 5 10 13 18 20 19 17 16 15 15 21 21 22 27
27 69 69 63 49 56 59 43 41 35 33 31 23 15 14 10 5 2 9 16 21 29 34 37 29 13 10 13 15 18 15 13 13 11 8 6 9 12 12 14 16 15 18 18 25 25 21
46 71 68 63 67 68 49 26 40 36 31 32 24 17 16 12 7 3 8 14 20 24 32 40 39 27 8 10 16 16 19 21 21 18 16 13 13 10 8 9 10 13 15 17 18 13 22
67 70 66 59 58 57 38 39 39 38 29 35 27 19 16 13 10 7 8 13 17 22 28 35 40 40 24 2 8 17 17 17 19 17 15 16 16 16 13 10 12 14 13 13 13 18 18
71 76 65 53 59 51 37 35 36 33 25 39 31 20 16 15 11 8 9 12 12 18 24 32 37 39 36 20 5 8 18 19 17 18 18 17 19 21 18 19 16 10 14 13 13 13 14
72 64 56 59 42 42 35 35 36 27 36 40 36 21 15 17 14 10 9 10 11 16 21 28 34 38 38 36 24 6 9 18 21 19 19 18 20 21 20 20 20 16 16 18 17 17 17
70 64 63 46 42 39 36 38 36 36 39 36 35 26 18 19 17 12 9 10 10 12 16 22 29 34 39 39 36 22 9 8 16 21 19 19 20 19 19 20 22 23 21 21 23 23 22
66 66 60 46 45 41 37 34 32 33 34 37 35 24 21 20 19 15 11 10 8 9 12 18 25 29 34 37 39 36 21 10 8 14 19 22 21 21 20 18 18 19 19 18 21 23 25
70 63 46 49 44 43 31 27 26 29 31 36 37 28 19 19 20 17 12 10 7 6 8 12 18 23 27 31 35 36 33 24 9 7 13 19 22 23 24 24 22 20 19 18 21 22 22
68 51 44 43 41 38 36 33 33 28 34 36 35 34 24 20 21 17 13 10 7 5 5 8 13 17 22 26 29 32 34 34 31 17 9 10 17 21 24 26 27 28 25 23 24 24 24
64 47 35 39 39 42 36 35 34 33 34 38 34 31 27 22 21 18 15 12 8 4 3 5 9 11 17 21 24 28 31 32 34 33 22 11 9 17 22 25 29 29 28 27 27 28 29

GFSGBSN_500_spd_084.txt.gz
Wind_Speed
39 37 37 39 38 42 39 30 32 33 32 33 34 38 39 39 40 41 42 46 50 59 62 64 62 59 56 50 40 30 1 9 16 26 20 43 45 56 58 55 65 64 62 68 50 62 53
45 44 44 47 48 44 47 39 31 31 34 34 35 38 38 39 41 40 42 46 52 60 62 63 60 57 51 47 40 6 2 11 13 23 23 43 45 51 53 54 61 57 61 68 44 61 56
50 47 47 49 49 48 41 45 41 35 32 34 36 38 38 39 40 39 42 46 53 60 62 61 56 53 49 46 34 16 8 13 8 15 20 39 40 47 51 50 63 69 35 67 53 60 54
53 51 50 49 54 51 48 42 45 46 36 33 35 38 38 39 40 38 42 47 54 59 60 59 52 47 47 44 26 21 5 6 4 17 29 40 30 44 51 45 66 60 58 69 62 38 58
55 55 52 51 51 54 51 47 45 46 46 34 34 37 37 37 39 38 41 46 54 58 58 56 48 40 44 41 10 19 12 9 10 22 20 42 35 46 50 33 61 59 58 62 61 46 50
59 57 55 53 52 51 53 50 48 48 46 38 32 36 37 35 38 37 40 45 53 56 56 52 45 38 39 39 10 14 14 10 9 22 24 37 37 43 42 46 40 62 58 51 57 49 59
60 59 58 56 52 51 52 54 50 48 45 47 32 33 36 32 35 36 38 45 51 53 53 48 40 31 34 39 11 11 15 10 12 21 17 30 33 37 42 33 38 47 56 49 48 54 51
63 60 59 58 55 52 53 48 52 49 46 46 49 32 35 29 31 32 35 42 48 50 48 44 36 29 30 36 18 9 13 14 12 16 18 30 34 34 40 32 32 36 44 50 49 52 51
65 64 62 60 59 54 51 47 46 50 48 45 51 34 34 26 28 28 33 40 45 47 42 38 32 29 26 28 21 8 9 15 15 16 25 26 36 26 38 31 28 34 40 45 52 33 34
76 74 69 67 59 57 52 50 45 43 45 45 50 40 35 22 24 25 30 37 42 42 40 35 27 28 25 24 21 7 6 12 13 17 39 29 21 32 28 36 36 31 30 40 37 26 26
88 90 87 79 72 63 57 52 47 43 42 44 49 40 33 20 20 22 27 34 38 39 35 38 25 27 23 22 20 2 8 9 15 20 34 26 23 28 27 31 27 22 20 25 30 27 33
90 91 95 96 90 79 68 56 50 46 44 47 49 46 30 20 17 19 25 30 35 35 28 25 20 22 21 20 17 13 13 10 13 19 24 26 20 31 31 28 19 19 22 23 22 22 27
79 74 75 82 91 82 71 65 54 52 49 44 49 47 28 18 14 16 22 26 31 32 31 24 17 18 18 16 17 14 12 14 21 27 24 19 28 34 25 29 27 23 22 21 22 24 23
67 63 66 61 66 81 71 70 60 55 50 45 49 38 28 16 12 13 18 22 27 30 26 17 12 16 16 11 15 21 28 27 22 26 19 21 29 30 26 29 25 25 21 19 25 30 20
63 73 51 39 40 58 75 72 67 60 49 45 51 41 28 16 10 11 13 18 22 25 23 11 9 13 20 15 12 12 22 26 25 24 18 20 28 36 37 30 22 21 23 21 22 24 25
67 49 28 29 31 38 66 68 66 61 48 44 53 39 28 16 11 9 8 14 19 21 22 11 6 11 12 17 13 16 30 23 28 23 19 24 28 27 25 23 20 19 22 27 22 26 20
36 10 8 9 10 36 58 63 66 58 51 47 53 37 27 17 12 8 4 8 15 18 23 14 3 8 7 11 17 13 25 26 20 18 15 25 18 17 17 18 24 25 26 24 22 21 21
14 8 9 7 6 53 69 60 61 57 52 57 52 37 27 18 14 9 2 8 13 19 26 18 4 9 6 5 9 17 17 26 19 13 8 8 9 9 10 10 13 20 26 27 26 23 22
18 7 4 18 26 69 48 59 60 55 53 57 48 36 26 21 17 11 5 6 13 22 27 29 11 5 9 6 8 13 18 16 20 17 11 12 11 13 14 12 7 12 18 20 25 25 21
15 8 14 25 73 38 57 54 56 55 62 47 37 37 26 23 19 14 10 10 12 23 30 33 28 15 7 13 13 11 11 15 13 13 13 12 14 12 11 14 15 16 18 19 23 24 22
16 11 22 49 44 44 53 51 56 60 47 37 40 34 29 25 20 16 13 13 14 20 29 33 36 28 7 10 15 17 17 15 14 13 13 11 9 9 11 11 12 14 15 18 15 14 23
15 46 49 51 42 54 57 52 48 50 40 35 43 34 30 27 22 19 16 13 15 19 26 33 36 35 25 8 11 18 18 19 19 17 14 14 15 13 12 10 7 9 11 12 13 16 18
30 41 51 45 48 58 52 47 54 37 35 35 41 35 31 28 23 21 17 14 15 18 25 31 35 37 33 25 13 2 13 17 17 17 16 15 14 15 17 17 14 9 10 11 13 15 18
48 54 62 47 58 53 57 53 45 34 38 36 43 37 33 29 24 22 19 16 15 17 20 27 31 34 35 38 29 17 6 7 15 17 16 16 17 17 17 17 17 15 18 16 15 16 15
46 57 61 48 65 56 48 50 40 34 35 33 42 34 33 30 25 23 21 16 14 15 16 20 24 28 31 32 35 32 22 12 2 11 16 18 19 17 18 19 18 18 20 20 20 22 21
72 70 57 52 59 51 41 34 39 40 31 42 44 35 33 30 26 24 23 18 15 13 12 15 17 20 25 29 32 33 32 31 18 3 7 14 19 21 21 20 20 19 17 18 20 22 24
61 60 59 53 54 41 45 32 37 35 32 50 44 37 33 31 27 24 24 20 15 12 10 11 13 16 19 22 25 29 31 32 29 26 15 4 6 15 20 23 24 23 21 22 21 21 23
61 57 51 50 42 40 40 35 36 32 43 51 41 34 32 31 28 24 23 22 17 12 9 8 9 13 15 18 19 21 26 28 30 30 29 20 10 2 8 17 20 23 26 26 26 26 27
58 53 37 40 43 36 35 37 37 32 50 45 43 35 33 31 29 25 23 22 19 14 9 5 5 7 10 13 16 17 20 22 24 26 26 22 25 19 12 7 9 18 23 26 27 29 31

GFSGBSN_500_spd_087.txt.gz
Wind_Speed
51 49 49 46 43 42 42 45 42 44 45 46 37 36 37 39 40 37 39 41 43 47 53 60 64 66 65 63 59 55 35 12 13 18 21 20 32 35 48 57 59 74 70 53 57 62 62
54 52 51 51 50 49 46 44 42 41 42 44 45 39 37 36 38 37 37 41 44 48 54 60 65 64 62 59 55 59 9 9 16 15 18 20 33 34 43 55 61 76 78 43 59 56 58
54 55 57 54 51 51 52 49 45 44 40 42 41 47 38 36 38 37 36 39 44 49 55 59 64 60 57 55 52 36 3 14 16 17 11 21 36 33 40 52 61 67 85 34 51 54 58
56 59 55 55 56 54 53 50 51 45 44 41 38 43 42 37 37 38 35 37 44 49 54 59 61 56 53 51 49 10 4 10 15 6 21 38 17 34 40 49 60 62 67 40 49 66 53
62 61 58 56 58 57 54 53 51 50 46 44 41 38 45 39 40 37 35 36 45 48 52 58 55 51 50 45 41 12 1 5 11 13 13 35 22 25 41 47 60 54 60 51 41 61 51
62 64 60 56 56 59 57 53 51 51 50 46 41 34 44 42 40 37 34 36 43 47 50 56 49 50 46 38 32 13 6 4 9 14 25 30 21 16 38 45 54 52 59 52 30 65 41
64 65 65 59 62 60 59 56 53 52 52 49 42 35 39 40 42 38 32 37 41 47 49 52 47 46 41 32 26 10 11 3 7 7 17 35 28 12 41 42 44 48 60 48 27 54 52
62 65 66 65 60 63 61 59 56 53 54 51 43 35 34 40 43 40 31 35 39 44 48 47 41 41 37 27 20 4 14 8 7 11 15 34 21 25 34 41 33 30 49 33 42 46 40
65 64 63 64 66 67 65 61 57 55 55 53 44 33 32 37 41 42 31 35 36 42 46 44 37 37 34 22 17 3 11 10 10 8 12 25 20 28 34 39 28 23 42 48 39 36 43
72 73 75 78 80 82 78 72 64 56 55 52 45 36 30 34 38 37 30 32 34 40 43 40 35 30 30 19 13 3 6 12 10 12 16 21 25 30 30 26 17 24 24 49 38 33 29
74 83 80 75 71 69 70 76 75 58 56 52 46 38 29 29 38 36 28 30 31 38 43 34 30 30 23 19 16 3 6 10 13 7 20 23 30 29 32 26 16 23 21 33 36 36 32
85 73 68 65 66 66 69 70 69 68 56 50 47 41 35 28 39 34 26 26 28 35 31 31 26 22 17 17 16 5 12 9 14 11 23 17 23 26 31 22 26 20 16 23 26 24 33
72 68 68 63 55 51 56 60 68 70 62 54 47 43 33 26 33 30 24 22 26 32 33 28 20 16 16 16 14 11 11 12 15 18 19 16 16 22 20 25 22 14 16 26 25 20 23
67 68 59 52 48 56 59 41 58 65 64 55 49 42 34 22 36 26 21 17 22 28 30 22 13 12 13 14 19 17 17 17 20 22 15 22 23 22 20 28 18 18 16 19 17 17 15
71 55 52 51 64 56 22 19 44 64 64 56 50 45 33 31 35 27 19 13 19 24 26 19 8 8 13 10 15 15 18 19 24 15 14 24 27 21 17 18 16 14 13 13 14 16 14
57 57 57 64 34 18 20 23 50 66 65 57 48 43 35 32 33 23 16 10 14 18 22 18 2 4 10 12 18 19 19 20 14 7 22 25 28 29 25 25 21 21 19 18 16 22 23
54 62 55 13 12 9 6 21 64 68 63 55 47 44 35 35 29 19 12 7 9 12 14 13 4 4 7 11 21 21 23 22 11 12 20 19 20 22 24 20 18 16 16 17 14 17 18
55 53 8 6 3 9 5 24 68 65 60 54 49 41 33 35 25 17 12 5 4 6 8 8 4 10 5 10 22 21 22 22 17 21 17 17 14 12 11 10 11 14 17 20 20 18 16
55 14 10 10 6 8 15 36 70 66 61 54 47 37 34 31 25 19 11 4 5 13 15 7 2 12 9 7 12 26 24 24 13 9 13 14 11 7 5 4 5 11 15 18 19 19 19
48 19 15 10 5 18 17 56 68 68 60 54 46 42 37 28 23 19 12 9 9 18 24 21 9 9 12 11 11 17 22 16 13 12 8 6 6 7 9 8 11 9 12 15 18 21 22
25 25 16 14 9 18 53 69 65 56 50 46 43 38 32 30 25 21 15 13 13 20 28 28 24 15 9 12 12 13 16 15 13 9 8 5 2 3 7 8 9 11 12 13 15 17 19
16 21 21 11 27 47 65 46 55 53 45 45 42 34 31 30 28 20 18 17 18 22 28 31 33 28 16 10 17 18 17 17 17 15 13 12 9 7 5 5 6 6 7 10 11 15 18
19 6 19 27 36 45 54 64 53 52 52 42 39 40 30 33 28 24 23 22 22 23 27 29 34 34 28 17 9 11 20 21 21 20 20 17 15 11 10 11 10 8 8 8 10 13 16
23 33 46 32 26 54 67 54 56 54 50 46 40 29 38 34 30 27 24 24 23 22 24 25 28 32 33 34 22 13 8 11 18 20 18 17 17 15 16 16 18 16 17 16 15 13 14
45 49 40 31 52 63 60 49 45 44 47 40 32 34 39 36 32 28 27 26 23 21 22 22 24 26 29 30 32 29 23 14 7 9 15 18 18 17 17 17 18 16 19 20 19 20 20
45 42 36 46 59 54 47 43 41 49 45 38 33 41 41 36 31 29 29 27 23 20 17 17 19 22 25 27 27 28 28 31 22 14 7 7 13 16 19 20 19 17 17 17 18 19 24
42 38 49 53 54 49 42 41 46 44 40 29 40 40 39 35 31 30 29 27 22 18 16 15 15 15 17 20 23 24 24 26 27 28 26 18 9 3 9 14 16 20 20 20 20 21 22
44 50 42 48 52 47 46 46 41 32 39 34 44 42 39 35 31 30 29 27 23 18 16 14 12 13 13 14 15 16 18 20 24 23 22 21 20 16 10 4 8 13 19 21 25 26 26
45 33 37 42 45 40 33 40 41 32 31 37 45 42 38 34 31 30 29 25 21 17 15 12 11 9 9 9 10 10 13 13 14 16 17 18 19 17 15 12 12 6 2 11 18 23 27

GFSGBSN_500_spd_090.txt.gz
Wind_Speed
52 53 51 48 45 48 48 51 49 47 45 45 43 42 41 37 43 46 42 41 41 44 45 48 49 53 58 62 62 64 61 58 43 25 24 24 25 26 23 29 40 48 57 56 59 67 37
54 54 50 49 49 49 52 49 51 50 48 47 46 43 40 38 36 41 45 43 42 44 45 49 51 54 60 61 61 59 56 48 28 26 25 26 23 23 28 30 32 42 54 55 61 61 38
59 57 54 51 52 53 52 53 50 51 50 49 48 45 42 40 39 38 43 43 44 43 45 50 51 53 58 57 56 55 50 28 23 34 32 23 19 19 20 29 30 45 50 56 66 68 33
62 62 57 54 54 55 52 54 52 52 52 50 47 47 46 42 43 33 40 43 46 44 46 49 50 53 54 53 52 48 39 19 20 17 5 8 12 25 19 23 35 44 44 57 70 73 21
63 64 62 60 57 59 59 55 53 51 54 50 46 46 45 44 45 35 37 42 44 42 45 48 49 53 51 48 45 41 26 13 14 4 7 21 19 20 10 25 39 41 43 55 66 49 13
67 65 63 60 59 60 60 63 59 52 54 55 51 45 46 45 44 37 34 39 47 44 46 47 48 49 47 44 40 34 20 8 7 6 17 17 14 12 19 30 37 39 40 49 68 38 32
64 64 62 60 61 62 63 63 61 58 53 56 54 50 46 46 45 41 32 29 45 46 41 45 45 50 43 38 36 27 14 8 6 7 16 13 2 7 19 25 30 36 40 49 54 18 41
65 65 63 62 62 61 63 65 64 59 57 57 54 53 48 47 44 40 29 29 43 44 42 44 46 39 39 35 34 23 12 12 9 6 25 20 14 4 27 20 26 29 41 45 44 27 13
68 69 67 65 67 69 71 72 71 68 68 59 55 52 50 47 46 42 29 31 40 42 41 42 44 35 32 34 29 20 10 9 9 7 24 22 12 5 20 24 24 28 37 41 30 30 14
71 70 68 71 76 82 78 71 65 66 68 73 60 53 53 45 46 35 29 31 41 39 40 45 30 30 28 33 25 17 7 8 7 3 10 13 17 12 12 22 19 24 27 35 42 20 18
74 71 72 76 79 67 61 62 62 61 61 51 66 55 54 46 44 32 23 25 38 38 42 33 33 26 26 29 25 14 6 8 7 8 3 16 16 22 19 17 17 15 16 26 41 16 15
76 74 78 73 64 62 57 53 52 54 55 50 54 59 55 47 40 30 25 25 37 36 38 34 26 19 25 26 21 8 9 9 8 4 10 14 16 21 17 16 15 14 9 16 38 22 9
76 79 74 67 57 47 45 48 44 45 45 51 55 61 58 42 36 31 29 29 33 32 32 30 21 14 23 22 8 11 14 15 9 18 15 14 21 25 19 21 19 16 16 17 17 19 16
79 77 66 58 49 51 58 44 39 48 49 46 62 64 54 42 34 25 24 27 29 29 31 27 13 11 17 14 15 20 17 17 17 11 19 13 12 25 19 19 13 22 24 24 20 15 16
79 68 59 49 38 57 57 48 33 32 30 38 66 62 50 41 28 23 25 23 24 26 26 23 7 6 10 6 12 18 17 18 16 10 16 20 18 19 15 16 14 18 21 22 21 18 17
74 63 48 45 42 49 26 16 12 16 20 56 63 57 47 38 34 27 25 18 23 20 23 17 5 2 6 11 14 17 16 15 12 14 19 21 21 15 16 14 12 17 14 14 20 13 10
71 58 42 36 47 16 7 5 6 12 27 59 60 54 46 41 37 30 17 17 18 17 18 13 4 2 4 15 16 15 14 12 19 22 20 22 18 13 16 14 11 13 15 14 12 13 15
66 55 36 38 17 11 14 15 6 11 37 60 57 52 45 40 32 21 16 17 9 12 14 8 4 5 7 18 20 19 13 15 17 16 15 16 16 14 14 11 8 7 8 10 12 14 15
65 48 42 23 14 12 6 4 14 20 58 59 54 49 43 36 27 17 15 13 6 8 9 8 5 11 10 20 19 17 12 10 14 17 14 14 11 12 9 8 8 7 7 6 11 13 13
61 48 31 16 16 3 8 4 29 43 60 57 52 50 42 33 22 17 17 9 5 2 4 5 6 13 14 17 25 16 14 18 17 15 15 10 4 3 2 2 2 2 4 6 10 12 11
58 30 16 21 5 12 9 5 36 59 58 51 51 44 32 25 19 19 16 10 6 5 3 6 10 15 16 13 11 26 19 17 10 8 7 9 6 5 2 1 3 6 6 4 6 8 10
23 7 24 10 2 5 5 10 55 58 56 52 43 38 31 26 24 22 15 13 11 10 7 19 17 16 17 18 17 21 25 23 14 12 12 8 4 2 1 1 2 3 4 5 7 9 11
17 20 21 17 14 7 14 38 63 57 51 45 38 32 29 24 24 20 18 19 18 18 22 25 24 20 17 14 19 20 20 19 16 14 14 13 10 8 7 5 4 4 4 3 3 4 7
25 23 16 24 13 19 37 58 56 54 48 39 36 34 25 23 25 24 24 24 25 24 27 30 29 28 25 21 13 12 16 20 21 22 20 21 20 18 14 11 11 11 10 9 9 8 9
19 19 19 20 21 48 52 54 53 49 41 38 37 27 26 27 28 23 23 24 23 23 24 25 29 29 30 29 25 22 16 11 10 12 18 20 20 16 16 16 14 13 16 16 15 17 18
18 26 28 20 37 45 50 44 45 43 33 28 35 28 24 28 26 24 26 25 24 22 22 23 23 25 27 27 27 27 25 24 20 15 9 6 7 9 14 18 18 18 17 17 18 20 23
15 19 21 29 39 44 42 42 40 41 39 36 26 26 29 28 26 25 26 26 23 21 21 20 19 20 21 22 22 22 22 23 23 23 22 19 14 11 3 5 10 17 22 23 22 22 27
17 17 30 37 35 30 38 38 34 37 28 26 23 29 30 28 27 28 28 26 23 19 18 16 14 14 15 16 16 16 17 17 18 18 18 17 16 15 13 5 1 2 8 14 14 17 23
21 29 34 34 28 30 31 28 27 28 27 25 24 32 32 28 27 29 28 25 20 18 15 12 12 11 11 11 11 11 12 11 11 11 11 13 11 10 12 7 7 7 4 1 4 10 14

GFSGBSN_500_spd_093.txt.gz
Wind_Speed
58 59 54 51 51 51 50 46 49 50 49 50 50 49 48 44 42 40 41 40 44 41 41 46 48 45 46 47 51 52 58 61 59 57 46 40 39 36 27 27 33 38 34 46 59 56 56
60 61 58 55 56 55 54 51 49 52 53 52 51 49 49 45 45 42 41 41 41 40 42 45 48 48 45 49 48 53 55 56 52 45 35 41 44 39 26 23 23 22 29 38 46 55 48
63 60 58 59 60 60 60 60 55 54 55 55 51 49 50 47 44 42 41 39 40 38 40 48 51 49 45 47 49 51 51 48 43 33 37 35 21 15 17 15 17 17 26 28 38 50 45
62 61 61 62 61 61 61 60 60 56 56 54 51 51 48 49 42 43 41 38 40 44 35 48 49 51 45 47 49 46 44 39 32 26 14 10 3 7 14 19 12 12 26 29 43 50 51
64 63 63 62 62 63 62 61 58 61 59 57 54 52 47 50 45 42 42 38 39 44 37 52 52 48 45 45 43 40 39 30 23 9 7 9 13 17 14 12 12 18 26 28 41 46 51
65 66 66 67 68 67 65 61 58 57 57 58 57 54 51 47 48 41 44 40 38 40 38 48 47 47 42 42 37 37 33 26 10 5 6 7 7 5 4 11 11 16 21 29 36 43 57
69 70 72 72 72 68 64 61 55 51 51 55 59 57 51 50 48 44 42 43 38 37 37 46 47 45 45 35 33 33 27 23 8 10 8 3 3 6 4 8 17 16 19 24 28 42 58
72 73 73 70 69 66 60 57 54 55 56 57 63 62 58 49 48 47 42 43 40 39 37 43 45 44 34 33 31 30 22 19 13 8 11 15 5 12 10 9 13 16 20 21 25 39 52
75 75 73 71 69 64 61 63 65 67 65 64 66 66 63 51 48 48 44 41 40 38 37 42 44 31 34 31 29 25 17 10 7 7 8 12 7 6 12 10 10 12 18 20 18 47 40
77 78 76 72 66 65 67 66 64 61 55 48 46 44 51 58 48 48 45 38 36 38 40 41 32 32 31 28 27 19 10 4 5 4 8 3 9 3 6 11 9 9 11 20 26 31 31
82 82 76 72 68 67 62 58 58 48 44 39 41 40 37 45 50 48 40 35 35 35 35 31 30 30 26 27 27 14 2 7 4 4 3 5 7 10 11 7 7 8 11 18 29 16 17
85 79 76 72 71 63 53 47 42 34 30 32 34 38 43 40 51 47 38 34 34 29 34 28 25 28 21 24 17 6 8 12 5 5 9 11 10 13 14 17 17 13 12 18 32 17 1
83 79 76 74 65 48 36 40 41 34 40 44 27 34 41 44 45 43 38 33 27 25 28 25 23 16 15 12 9 12 16 12 7 11 16 16 9 13 18 18 16 10 14 24 20 19 6
82 81 78 72 54 43 35 37 36 46 53 42 27 28 51 44 42 42 38 29 22 27 27 23 21 6 7 7 12 16 14 10 12 11 15 17 17 11 20 23 24 12 15 18 15 24 10
85 85 78 62 45 37 35 42 43 30 16 15 28 25 51 43 44 41 34 28 24 25 22 18 12 3 7 5 8 16 15 13 11 16 21 15 16 14 16 16 27 19 15 15 12 17 17
90 86 70 50 37 31 33 24 19 6 5 9 18 41 55 51 43 39 30 23 22 20 18 16 1 4 10 10 10 13 13 9 15 17 20 21 20 12 21 12 23 23 21 19 20 19 13
93 88 56 32 32 23 28 14 13 11 8 9 17 51 56 47 44 34 24 18 14 16 14 10 8 5 12 15 11 11 11 14 15 21 24 20 20 18 19 18 18 21 20 20 16 17 17
94 66 42 34 18 21 8 13 15 10 4 11 38 54 53 49 40 30 21 10 8 15 13 4 11 7 11 16 12 15 17 20 18 19 18 15 18 18 16 16 17 19 17 15 15 15 16
65 52 36 18 3 4 8 6 3 1 11 37 49 55 47 41 33 23 16 9 8 11 12 4 14 8 21 19 17 15 15 13 18 21 19 16 17 16 13 14 15 16 14 11 14 16 17
46 33 22 21 10 3 4 10 8 3 32 56 57 51 45 37 28 22 15 8 5 8 8 5 16 11 23 20 17 13 16 20 19 22 19 16 12 9 9 11 11 11 11 12 13 11 13
38 34 32 22 14 11 13 3 3 25 55 56 50 45 36 29 21 16 11 6 1 3 5 6 14 16 16 21 16 14 19 20 18 15 9 11 11 11 9 7 7 9 11 11 10 10 12
35 39 32 26 15 7 6 3 29 53 54 48 40 36 29 24 21 15 11 8 4 5 3 7 13 18 17 18 21 21 16 16 8 6 12 10 10 10 9 8 7 8 8 7 8 9 8
37 44 30 28 26 13 13 36 50 49 47 44 38 29 24 20 17 15 15 12 11 10 15 8 14 19 18 15 11 21 22 18 14 9 11 6 6 5 4 4 5 8 8 6 5 6 9
26 37 29 26 16 16 33 49 45 43 41 40 34 28 19 15 14 17 15 16 15 16 18 19 14 15 15 11 12 19 21 21 18 14 12 10 8 7 6 6 5 4 6 7 8 8 9
29 33 31 18 15 26 43 43 40 35 34 30 27 21 13 13 16 16 17 20 23 22 21 24 27 27 24 19 13 9 10 9 15 18 15 15 15 13 14 14 13 9 11 11 11 12 13
23 24 17 21 28 33 40 35 32 31 28 23 25 19 13 18 16 15 20 23 23 26 25 25 29 29 27 26 23 22 20 19 16 14 13 8 6 7 6 12 14 14 15 16 17 18 19
15 16 21 21 18 21 27 27 24 22 16 18 14 10 13 18 16 19 22 21 21 23 24 24 23 25 26 26 26 25 24 24 24 23 22 20 16 14 12 9 5 2 7 10 12 12 16
6 11 12 11 13 17 24 23 19 17 10 11 7 9 16 18 18 21 23 23 22 21 20 20 19 19 19 20 20 20 20 19 19 18 17 17 17 16 14 11 9 6 3 3 1 5 9
5 7 7 7 10 12 15 20 18 12 13 10 9 12 19 20 20 23 24 22 20 18 16 15 16 14 15 15 15 15 15 14 13 13 11 12 10 10 9 8 6 4 1 2 3 6 9

GFSGBSN_500_spd_096.txt.gz
Wind_Speed
53 56 57 58 57 55 53 51 51 51 52 52 52 52 53 54 54 50 48 46 44 41 40 41 37 33 42 45 46 48 44 42 42 45 49 54 57 57 52 50 48 43 33 36 33 45 56
57 59 60 61 60 56 53 53 54 54 54 54 54 54 55 56 54 52 46 45 42 40 38 37 38 44 40 47 49 44 42 41 39 42 46 48 50 49 44 41 40 34 33 36 37 35 50
60 59 61 62 59 56 57 57 57 59 60 59 58 57 55 53 53 51 45 43 41 40 37 36 36 41 43 50 48 47 41 37 37 37 41 41 39 37 24 13 16 23 23 27 27 32 46
64 65 66 66 64 63 62 63 62 61 60 62 63 59 56 51 46 46 42 43 41 39 36 34 36 39 44 51 50 43 34 31 31 30 29 22 18 3 4 6 7 5 6 3 13 25 40
67 69 69 66 65 67 69 70 70 66 61 59 60 59 57 52 43 42 41 41 39 40 36 35 35 39 46 46 41 33 31 27 23 20 12 6 10 10 8 2 3 10 7 4 13 20 38
69 71 70 69 68 71 72 73 68 62 57 55 54 56 54 50 44 42 41 38 39 39 35 34 35 39 44 50 37 29 26 24 19 10 8 7 6 4 9 6 9 2 4 10 10 24 35
73 73 72 73 74 76 75 68 61 56 51 48 46 49 50 47 44 42 40 38 38 39 34 33 35 39 43 39 30 28 23 20 15 11 11 7 4 8 7 5 7 8 9 12 9 26 34
78 76 75 77 79 75 66 60 56 53 49 50 49 55 54 49 46 47 43 41 39 35 34 32 33 37 42 29 26 24 23 17 12 14 18 14 8 14 4 6 7 7 9 12 6 18 30
80 78 80 80 76 67 65 64 61 53 50 48 47 51 52 53 54 51 46 42 41 33 32 31 33 42 28 26 22 22 18 13 7 10 11 9 5 4 5 8 5 10 9 7 6 22 41
80 82 81 78 72 72 74 63 52 44 39 37 33 28 32 31 37 48 50 45 37 33 29 29 33 25 23 18 20 18 12 3 3 5 2 2 3 4 5 8 9 10 6 11 7 17 22
84 83 84 79 77 82 60 48 36 33 29 24 19 13 15 25 29 29 43 43 35 28 26 24 27 15 12 18 17 8 1 7 6 2 7 7 3 8 11 11 8 13 13 25 18 22 23
88 87 84 84 87 68 47 35 30 32 24 22 21 15 12 18 28 28 30 34 31 25 20 20 14 9 11 16 15 9 13 10 7 8 13 10 7 13 13 14 10 16 23 24 26 18 7
88 88 92 94 66 36 28 27 28 26 27 25 28 22 26 22 32 25 27 28 25 20 14 12 9 7 8 16 20 18 14 7 10 15 17 14 16 17 17 15 16 20 19 18 18 14 17
84 98 96 54 30 19 16 22 26 24 27 34 35 35 30 24 32 26 23 25 21 14 14 8 11 7 8 16 13 12 9 13 12 16 17 11 18 12 18 16 19 17 19 22 21 7 11
93 83 72 40 23 13 16 21 23 19 11 8 10 18 20 30 31 27 25 21 19 14 10 7 13 8 11 11 9 12 14 12 18 18 16 13 12 29 22 17 21 22 23 16 17 10 7
66 69 57 33 13 16 16 20 13 12 13 8 2 16 27 33 30 29 26 22 16 4 5 14 16 12 14 10 10 9 12 17 20 18 16 16 18 20 22 22 24 27 23 19 14 16 8
63 66 59 29 7 14 10 9 12 10 14 10 4 15 35 37 33 31 27 20 10 5 14 18 17 19 13 12 9 12 16 18 22 20 20 14 20 17 28 24 24 26 24 20 16 11 13
53 53 46 37 27 17 12 16 15 13 9 14 27 28 44 38 34 30 23 13 13 9 11 19 18 23 16 11 14 21 21 27 26 21 20 21 20 24 22 27 25 24 25 20 16 17 16
51 50 39 34 28 24 24 20 28 24 12 34 35 48 42 38 32 27 17 15 9 13 11 21 19 23 17 16 19 20 22 21 19 20 24 22 21 19 24 24 23 22 23 21 20 17 16
50 48 46 36 27 33 22 28 25 23 20 37 48 42 38 35 29 20 15 12 9 10 17 23 19 26 22 19 15 17 22 25 24 23 24 21 19 18 18 17 18 19 19 19 22 20 17
52 45 42 46 30 28 23 16 15 31 44 48 43 38 31 24 19 16 11 8 10 12 21 23 24 26 23 19 17 21 22 24 21 15 12 15 17 17 15 17 16 16 17 17 17 17 17
56 45 46 41 36 30 25 32 45 50 48 40 35 30 25 20 17 14 6 7 12 15 22 23 24 27 22 21 20 24 24 17 11 10 15 15 14 14 14 13 16 16 17 18 18 17 15
55 52 44 35 31 33 45 45 45 38 38 33 27 21 16 13 13 8 6 14 17 18 17 19 24 28 21 18 16 16 15 10 5 7 11 11 12 12 13 12 12 12 11 10 12 12 11
45 34 24 26 39 38 39 37 34 29 28 24 18 17 15 13 9 8 14 18 18 18 17 17 16 20 20 17 17 20 15 13 8 5 6 2 1 4 5 4 4 5 7 7 8 9 9
27 22 25 26 26 30 29 26 24 23 19 18 20 17 15 11 9 14 18 21 23 26 27 27 24 18 15 12 13 13 19 17 14 17 12 9 8 7 9 8 6 6 7 8 7 7 8
24 19 20 16 20 20 18 17 17 16 13 13 16 20 17 9 12 18 20 26 26 29 31 31 32 30 27 23 21 17 13 11 11 9 10 8 8 7 4 5 6 4 5 7 8 9 12
16 14 8 9 11 9 7 9 11 13 13 15 17 18 12 6 15 18 21 26 28 28 30 30 29 28 28 29 28 26 24 24 24 23 21 21 19 17 16 15 12 9 8 4 2 2 3
8 8 8 3 4 9 6 5 7 13 17 18 14 5 7 4 11 15 19 22 24 23 23 24 24 24 24 24 24 23 23 22 21 20 19 18 17 15 13 11 10 7 9 7 3 1 3
5 12 10 6 3 5 8 6 10 9 12 13 8 3 3 4 7 13 17 18 17 17 18 18 19 19 19 20 18 18 18 17 16 15 14 13 12 11 9 9 8 6 4 2 1 4 6

GFSGBSN_500_spd_099.txt.gz
Wind_Speed
55 55 55 57 59 61 61 59 58 56 53 53 53 54 55 56 55 56 57 56 54 51 52 45 42 40 40 41 40 39 42 42 47 43 40 40 42 43 43 47 51 57 58 63 60 61 63
55 56 57 59 60 62 62 61 58 56 57 57 57 58 58 59 57 55 55 54 53 49 49 45 40 39 38 40 40 42 41 43 51 41 37 38 38 38 44 46 50 49 50 51 52 52 50
59 62 64 65 65 63 63 61 60 61 60 62 64 61 58 59 57 55 54 48 47 45 43 42 38 39 36 38 40 37 38 46 44 33 35 33 33 35 36 35 33 32 31 22 20 32 44
66 68 70 68 67 64 63 62 62 63 65 66 65 58 56 54 51 51 51 43 41 39 39 37 38 37 35 36 35 34 37 46 29 30 31 27 21 16 17 19 11 8 3 11 18 19 22
70 71 70 71 69 68 69 68 68 69 68 66 60 54 50 51 49 47 47 40 39 37 36 37 36 35 33 35 33 36 44 39 26 28 26 18 9 4 8 8 10 12 12 13 17 16 16
73 75 74 72 73 74 73 71 68 62 55 51 50 50 49 50 48 46 41 34 36 37 35 33 31 30 32 34 34 37 42 27 24 24 20 14 11 6 8 13 13 12 10 13 10 14 11
76 75 75 77 79 78 72 70 60 53 53 55 51 46 46 46 45 45 39 34 35 34 32 35 28 27 30 33 33 41 28 22 23 22 19 14 12 9 14 20 11 5 6 5 10 10 11
78 77 79 82 83 79 74 67 65 66 64 51 42 39 40 43 41 38 39 36 34 32 34 28 25 25 29 30 33 35 23 22 20 17 17 13 8 9 17 10 7 5 5 6 6 2 13
81 83 87 82 84 87 86 72 50 38 32 31 28 28 28 30 32 36 41 36 33 33 31 24 23 25 27 31 31 20 23 18 11 10 12 12 2 4 4 1 3 9 5 4 9 3 10
84 82 75 84 81 83 46 33 33 27 22 21 22 17 20 20 22 26 18 22 34 28 23 22 20 21 24 23 16 19 16 5 6 8 9 9 5 3 2 5 10 9 5 7 19 8 9
79 76 82 74 83 57 29 24 15 15 13 19 16 12 7 5 16 19 28 29 26 25 17 15 13 16 11 9 12 12 5 11 11 8 11 10 6 8 6 16 13 11 10 12 14 14 9
82 75 69 79 68 30 21 8 7 13 17 15 14 7 10 7 2 11 16 21 23 19 13 9 10 6 3 9 7 12 16 12 10 13 14 10 8 11 8 11 16 18 19 16 10 7 4
73 64 66 77 33 21 12 14 18 11 8 10 13 8 18 8 3 10 13 19 20 16 12 10 10 8 10 12 15 17 11 8 13 12 14 11 10 11 14 7 16 13 16 16 17 17 11
59 58 59 66 25 32 22 20 18 17 19 17 17 15 21 12 5 15 16 24 21 16 11 10 15 14 13 15 12 11 11 11 13 14 15 13 11 13 5 24 17 15 21 13 17 15 21
58 58 51 50 38 29 27 25 17 12 13 12 6 12 20 12 6 23 27 28 23 15 11 14 16 16 16 15 14 13 11 14 18 15 12 12 8 8 10 17 15 20 17 14 14 16 24
57 54 49 45 42 36 33 27 21 10 13 12 12 20 18 18 31 32 30 27 20 11 11 20 22 21 18 14 12 12 17 20 17 14 13 7 15 14 15 21 22 21 18 14 6 12 25
54 58 52 43 37 35 34 34 32 19 16 22 26 38 43 39 36 32 30 23 16 18 24 20 24 22 16 13 14 14 16 16 15 14 18 16 10 19 25 24 24 23 18 17 10 12 22
56 55 44 46 39 37 39 44 32 32 35 40 46 43 41 36 34 30 24 17 17 23 23 22 24 21 17 16 17 18 18 20 16 12 15 18 26 22 24 24 24 24 21 15 14 14 15
53 51 53 48 46 40 34 37 38 40 45 49 46 42 39 35 29 22 18 15 18 25 23 24 26 20 22 21 21 23 23 17 18 20 20 21 24 28 24 23 27 25 22 19 19 17 15
67 63 60 54 50 49 48 53 51 48 46 43 37 34 31 27 19 19 15 16 19 27 22 24 25 21 23 22 22 21 16 20 20 17 20 21 21 22 20 21 21 21 21 20 15 15 16
46 55 48 49 52 52 53 51 47 44 38 34 30 24 24 22 21 18 17 16 22 26 23 27 24 22 20 24 25 24 23 21 18 15 14 14 15 17 16 17 19 20 21 21 18 15 12
29 36 41 44 44 46 42 42 38 35 34 32 29 25 22 23 22 22 19 17 27 25 26 27 23 20 20 23 24 25 22 17 16 18 15 13 11 12 14 15 16 17 17 17 16 16 14
20 25 30 29 32 35 36 36 35 37 37 34 30 29 27 28 26 22 22 22 23 24 26 25 24 22 22 22 23 19 15 15 13 14 15 16 17 15 12 13 12 11 10 9 9 11 10
14 16 16 20 23 28 32 34 31 37 39 42 39 34 31 29 26 24 25 25 23 20 19 23 18 15 17 20 20 12 7 4 4 6 6 7 8 9 12 12 10 8 7 7 9 8 7
8 6 9 12 13 20 27 30 30 32 34 37 36 31 31 29 26 26 27 28 30 29 23 20 19 16 13 11 12 14 11 7 5 6 4 4 3 3 4 5 5 6 8 7 7 7 6
10 3 5 8 9 14 18 25 25 23 25 25 26 24 26 25 25 24 26 30 30 32 31 27 24 21 21 19 17 12 9 4 4 4 7 9 9 8 6 7 6 7 7 6 4 3 4
13 8 8 8 8 13 14 12 15 15 14 15 16 18 20 20 21 23 24 26 27 27 29 29 29 28 27 26 24 22 20 20 20 21 21 21 20 18 17 17 15 11 10 8 5 4 5
10 18 13 10 9 9 10 9 6 6 5 10 13 13 14 16 17 18 19 20 21 21 21 22 23 24 24 23 23 22 21 20 20 19 18 18 17 16 14 13 12 10 9 9 7 4 2
12 19 21 11 12 13 14 13 10 5 5 4 6 7 7 9 12 12 12 14 14 15 16 17 18 19 19 18 17 16 15 14 14 14 13 13 12 12 10 10 9 7 6 5 3 2 1

GFSGBSN_500_spd_102.txt.gz
Wind_Speed
60 62 62 62 62 62 63 64 64 62 60 59 62 62 61 60 58 57 57 57 56 56 55 55 54 50 44 43 42 42 43 43 41 42 41 39 37 36 37 37 41 42 44 49 54 58 61
65 66 67 68 65 63 63 65 65 64 63 61 60 62 62 60 59 59 57 57 56 56 53 51 52 46 42 40 38 40 42 41 40 39 38 35 34 33 34 39 39 38 36 37 40 47 51
70 71 70 67 65 65 67 68 68 66 65 65 65 63 64 63 60 58 54 54 54 50 45 46 48 45 44 37 36 38 38 36 36 34 34 36 34 33 36 39 35 30 31 33 38 38 41
74 73 70 68 69 71 71 71 72 69 66 63 63 63 61 60 59 54 50 49 50 47 44 33 42 40 34 33 31 34 34 34 34 33 35 36 33 32 36 31 25 24 26 21 27 25 26
77 73 70 72 73 74 73 71 71 67 65 63 52 49 48 46 44 42 42 41 41 40 38 39 37 30 30 29 28 32 33 33 32 33 34 33 31 32 28 18 16 16 15 15 13 15 19
74 72 75 77 80 68 69 75 73 69 59 54 50 49 41 37 33 32 37 39 36 32 32 36 30 28 28 26 25 28 30 31 28 32 28 29 30 29 20 16 15 11 9 7 9 11 22
75 77 78 74 72 64 73 75 77 65 38 34 32 36 35 37 33 31 31 34 33 20 25 25 28 28 23 22 23 26 26 25 32 30 27 27 28 21 15 15 18 8 6 6 7 17 13
79 67 65 63 60 69 80 77 45 26 24 27 32 30 22 16 22 29 27 33 31 33 27 19 19 18 19 22 23 24 24 29 28 26 28 26 19 12 12 12 9 5 5 4 4 15 8
68 68 70 65 61 71 51 34 22 22 15 17 13 7 7 11 6 11 13 21 19 29 29 26 16 15 18 18 19 23 24 23 23 23 22 13 10 5 5 3 4 6 6 5 4 6 6
70 74 63 64 56 57 44 30 18 12 4 2 6 7 4 8 9 13 15 15 13 16 19 16 14 13 14 15 18 20 20 20 16 12 10 15 9 7 5 4 8 7 4 4 1 6 4
74 62 58 53 51 45 33 25 16 16 8 8 4 5 3 5 7 20 21 20 16 13 12 10 10 10 11 10 10 14 17 10 8 10 16 14 8 8 5 10 11 5 2 3 6 2 7
70 55 61 56 46 47 37 28 27 16 11 8 7 14 18 13 13 21 20 31 17 20 13 9 7 6 10 4 3 7 8 15 12 12 16 10 9 9 9 7 9 8 11 13 9 4 10
70 63 58 50 38 40 39 27 19 16 11 4 7 14 16 20 20 21 19 23 26 18 14 9 8 15 10 10 14 16 14 13 10 14 12 8 6 8 12 8 17 16 16 17 19 12 9
56 51 49 47 39 47 36 23 17 19 16 5 9 15 14 17 24 31 34 32 25 19 16 9 19 16 13 13 14 11 10 11 13 13 11 10 7 9 4 17 16 11 13 10 13 20 25
65 62 54 47 43 42 35 26 17 17 20 18 25 19 18 26 32 42 33 26 25 19 11 24 20 17 18 18 15 14 16 14 12 12 10 10 8 9 18 17 16 12 18 18 16 27 34
78 78 77 75 68 64 58 49 36 35 38 37 35 39 37 37 43 36 26 26 18 11 20 27 23 20 18 19 20 18 17 13 10 13 9 6 10 11 11 15 19 17 17 17 21 33 32
70 72 73 75 74 73 72 69 66 64 61 56 50 44 40 38 37 30 25 21 16 15 26 22 21 20 19 19 18 18 15 13 15 17 8 11 12 13 19 21 18 17 17 17 24 28 28
62 60 64 64 64 65 63 61 58 55 53 50 47 42 38 35 29 24 17 13 19 26 26 23 22 21 22 19 18 15 13 13 13 11 7 15 20 20 19 24 20 19 17 19 23 23 23
55 55 55 58 60 60 57 53 49 46 44 41 37 32 28 23 20 16 12 22 26 27 28 24 25 23 23 24 20 19 13 21 17 17 22 18 21 20 17 21 22 20 23 23 19 23 22
50 52 49 52 57 58 58 59 50 45 40 37 38 33 29 24 17 15 17 24 26 29 25 26 26 26 26 25 20 19 19 21 20 20 19 20 20 19 18 22 24 21 18 19 19 19 20
44 45 45 47 47 53 53 55 55 53 49 45 42 38 33 30 25 22 25 26 25 27 26 26 23 22 22 19 21 24 22 18 16 17 19 19 19 21 19 19 19 18 19 18 19 15 17
35 41 42 44 44 46 50 52 53 54 53 54 52 48 42 34 28 26 27 26 26 25 24 22 23 23 22 22 22 20 19 18 17 17 15 13 12 13 14 15 16 15 15 16 15 17 15
31 31 32 37 40 39 42 44 47 48 49 53 52 50 47 40 33 29 27 27 25 22 19 18 21 22 23 21 19 21 19 18 17 18 17 14 11 11 11 11 12 11 10 8 8 6 8
23 25 21 24 32 34 33 36 38 38 40 42 45 44 43 41 38 32 26 23 21 20 18 18 18 16 19 17 14 14 13 12 10 11 11 12 12 11 10 10 9 9 8 8 7 6 4
22 16 18 16 18 23 24 26 28 30 33 34 35 36 38 39 38 36 35 32 27 19 13 12 11 15 15 8 8 9 6 2 1 1 2 4 6 7 10 9 11 7 7 7 7 6 5
22 16 16 15 15 15 15 17 17 21 23 25 27 29 31 34 34 34 34 34 32 31 28 22 19 15 8 6 6 7 6 4 3 5 11 13 11 9 8 8 8 8 8 8 6 6 5
21 19 14 16 14 13 12 11 11 13 15 17 19 21 23 27 29 28 28 28 28 27 27 26 25 24 24 23 23 22 21 22 20 20 21 20 21 19 18 17 15 14 11 11 8 8 13
25 17 17 16 17 17 14 9 6 7 7 8 11 14 17 20 22 24 24 24 23 22 22 20 21 21 20 20 20 20 19 19 19 18 18 18 17 17 15 14 13 12 12 12 8 7 7
26 21 18 19 18 20 21 18 10 8 5 5 6 9 11 13 16 18 19 19 19 19 18 17 16 16 16 15 14 13 13 12 12 12 12 13 13 12 11 11 10 8 7 6 6 4 2

GFSGBSN_500_spd_105.txt.gz
Wind_Speed
63 67 69 70 67 65 62 59 59 60 63 65 66 65 64 62 61 59 58 58 57 56 55 53 51 51 50 48 46 44 43 41 42 43 42 41 41 40 40 37 37 37 37 38 39 42 47
71 75 76 74 69 66 65 62 62 61 61 64 65 63 61 61 60 58 55 54 52 52 52 50 45 50 50 49 45 40 41 39 39 39 39 38 37 38 39 39 36 36 37 36 39 42 45
78 76 73 73 71 63 57 58 59 62 60 58 58 55 59 58 57 56 53 50 46 44 43 44 45 46 45 46 42 42 40 41 39 37 36 34 34 35 36 34 32 32 34 38 36 39 44
77 74 75 73 63 58 55 67 68 65 63 57 55 55 50 52 54 45 43 42 38 33 34 31 37 39 38 30 29 35 37 34 33 35 33 32 33 36 38 37 35 34 37 37 36 36 37
77 74 63 51 58 65 71 65 65 63 67 68 62 45 40 36 30 32 33 27 29 30 29 32 34 29 31 37 34 33 31 31 31 32 30 30 29 28 30 33 35 36 36 32 28 29 29
71 68 58 61 68 58 59 49 56 55 42 31 15 19 22 26 29 26 17 21 21 26 28 31 36 34 28 27 29 27 27 26 27 28 27 27 27 28 29 31 29 31 30 24 19 23 13
72 71 62 57 51 61 44 42 47 38 25 22 5 13 16 12 16 24 22 25 21 16 23 24 23 24 25 23 20 20 22 22 22 22 24 27 28 29 27 25 20 24 23 17 12 10 11
67 67 65 58 51 46 41 40 35 32 17 16 7 9 11 19 19 24 19 23 31 20 16 17 25 20 23 30 21 16 18 19 19 21 25 27 26 24 21 15 14 20 14 11 9 8 7
69 63 60 59 52 41 43 37 26 25 20 11 4 1 1 5 8 16 21 25 26 29 24 20 16 18 15 15 12 16 18 18 20 23 26 21 21 10 8 12 15 11 11 8 6 9 4
76 80 70 54 48 43 43 35 18 21 12 12 8 5 7 6 7 18 19 20 26 26 26 23 17 14 11 11 14 17 17 18 20 19 16 13 12 11 10 10 8 9 9 8 7 3 7
76 80 84 80 54 43 35 24 14 16 12 16 8 11 4 5 11 19 26 27 21 21 16 15 17 12 11 11 13 16 16 16 13 9 9 16 14 9 9 11 10 7 4 2 3 4 14
75 77 80 82 82 58 33 23 21 13 16 19 23 20 12 14 24 26 26 33 29 25 19 16 14 10 8 9 11 12 9 7 9 12 20 15 9 8 11 12 10 12 12 9 9 9 7
74 73 77 78 80 82 63 33 21 19 20 19 21 22 22 26 32 33 35 36 20 21 20 15 14 15 11 8 10 14 15 13 8 15 14 7 7 10 11 10 13 10 8 12 17 7 1
74 70 73 76 73 75 76 67 44 27 27 27 25 27 29 34 42 39 30 19 24 23 17 23 19 15 15 15 14 12 11 12 15 12 8 8 11 14 13 20 11 13 8 13 18 13 9
72 72 72 73 70 69 70 70 66 54 40 32 35 41 40 43 35 28 28 23 25 18 23 25 22 18 16 15 17 18 19 17 14 10 13 12 10 12 19 13 16 15 12 14 12 18 28
70 75 73 72 68 66 65 64 60 57 52 47 47 45 43 35 32 27 24 23 21 26 25 25 21 21 20 20 19 19 18 16 16 14 13 15 16 18 16 18 17 14 22 23 26 29 33
63 69 72 71 70 64 64 61 56 50 45 43 40 34 29 26 25 25 18 21 25 31 25 22 22 22 24 22 20 18 22 21 19 12 15 13 17 17 19 15 18 20 24 26 27 28 26
58 62 67 68 68 67 65 66 56 48 42 36 33 28 26 23 17 14 11 17 30 24 23 20 23 25 22 21 17 17 20 18 14 10 14 16 18 21 17 18 21 25 23 22 21 22 21
50 55 60 61 63 65 67 68 68 59 48 38 33 24 22 21 22 25 30 29 26 23 23 24 24 23 20 16 21 24 20 16 16 19 20 18 18 21 18 18 20 21 21 21 21 24 20
40 47 51 55 55 58 62 65 68 67 62 53 41 35 29 29 31 30 32 29 27 26 27 27 24 22 20 24 26 24 23 19 20 19 19 21 19 19 21 27 24 21 22 23 23 24 24
34 37 42 44 46 49 54 57 60 63 62 61 51 43 36 31 32 31 30 30 28 30 28 27 23 22 24 25 24 23 25 24 18 18 18 15 17 17 20 20 20 19 18 20 22 22 16
30 30 32 35 37 40 45 49 53 56 57 59 58 50 43 31 29 29 28 28 27 24 21 19 20 24 23 22 21 23 23 20 19 17 14 14 13 12 12 14 14 15 17 17 17 17 18
31 25 25 27 30 33 37 40 43 47 49 51 53 53 53 48 37 26 24 23 21 22 22 22 23 21 21 22 21 21 23 20 17 14 11 9 8 8 9 8 9 9 10 10 9 10 13
31 26 22 21 23 23 26 29 33 37 41 43 45 47 47 47 47 41 30 22 19 19 17 17 18 17 16 17 16 16 13 13 14 13 12 9 8 8 6 7 6 7 5 7 6 5 6
31 28 22 19 18 20 18 21 25 27 32 37 39 39 40 40 41 41 40 38 30 23 16 15 13 14 9 7 8 5 5 3 4 8 10 11 11 10 9 8 8 7 6 6 7 6 6
31 27 23 17 17 14 15 15 17 19 22 27 31 33 34 35 36 36 34 34 34 33 30 25 20 15 12 8 6 5 4 4 2 6 10 12 11 11 10 9 8 7 6 6 5 6 6
26 30 25 18 17 16 14 12 12 12 14 17 19 23 27 28 30 31 31 29 29 28 27 27 26 25 24 24 23 22 20 21 19 19 18 15 15 15 15 13 10 12 14 12 9 10 12
26 26 25 23 17 18 18 15 12 6 4 8 11 12 16 20 22 23 24 25 24 24 23 21 21 20 19 19 18 17 18 17 17 16 15 15 16 15 15 14 14 12 12 11 10 10 9
27 23 26 25 27 17 16 18 17 11 5 4 3 5 8 10 14 17 19 18 19 20 20 18 17 15 14 13 13 13 12 12 12 11 11 10 10 10 10 10 11 10 9 8 7 7 7

GFSGBSN_500_spd_108.txt.gz
Wind_Speed
61 64 67 66 66 65 57 55 51 52 53 58 59 57 55 54 55 50 49 48 48 48 47 49 51 51 50 49 45 45 43 41 42 41 41 41 42 40 41 44 45 43 41 40 40 42 43
66 69 66 63 63 53 52 50 50 54 52 56 56 55 55 54 51 55 49 45 44 42 41 44 43 41 47 47 46 43 40 39 41 42 43 41 42 41 40 42 43 41 41 43 41 41 42
68 64 62 59 59 60 52 59 63 58 56 54 53 48 49 43 40 40 42 45 42 37 35 31 41 43 43 40 41 41 40 39 38 39 40 40 40 39 38 39 38 37 38 38 38 40 41
69 69 64 69 61 56 49 45 45 42 40 45 49 46 41 42 35 37 39 27 26 32 28 37 38 36 29 39 39 36 35 33 35 38 38 38 38 36 36 36 36 38 40 40 38 40 45
78 74 69 71 71 57 44 41 34 34 34 35 29 27 20 26 26 30 29 32 30 25 24 26 27 29 26 27 27 25 29 31 31 29 33 34 33 32 34 34 34 36 37 43 44 43 44
82 72 74 75 74 51 41 34 30 26 28 24 14 17 8 12 12 13 16 18 24 25 32 33 27 25 29 27 29 30 26 25 25 27 29 30 29 30 32 32 32 34 37 40 42 40 46
82 77 75 75 75 53 34 27 23 22 24 17 14 9 5 7 4 14 14 19 16 29 34 32 30 30 23 23 27 31 29 24 24 25 26 27 27 30 31 33 35 36 37 32 25 32 28
83 79 74 74 78 52 33 22 15 21 22 19 9 3 5 5 10 12 13 23 21 32 29 27 26 30 29 20 19 19 21 22 21 22 24 25 29 30 30 31 32 32 25 22 19 17 13
85 81 73 74 77 58 33 26 21 21 22 18 18 12 7 3 9 9 4 28 25 28 20 18 16 12 13 21 21 19 18 17 21 24 27 27 28 25 26 24 17 17 18 14 15 11 10
85 82 76 74 75 66 35 22 25 24 24 18 16 14 14 10 9 11 17 18 35 28 25 21 17 17 15 17 19 20 19 22 25 25 25 24 20 17 12 10 9 11 10 11 9 9 13
82 81 79 71 71 71 49 25 29 28 28 26 17 16 17 21 29 27 24 31 29 27 28 22 19 18 16 16 16 18 20 21 21 21 19 15 10 12 8 7 6 9 8 6 6 10 7
78 79 83 73 68 70 67 43 36 34 36 35 29 24 22 32 38 33 29 25 22 20 21 21 15 16 14 12 13 14 15 17 15 11 10 14 12 8 6 9 9 9 6 0 4 6 7
74 76 80 75 70 66 65 60 50 47 41 42 39 34 33 40 42 40 34 28 23 24 25 21 16 11 8 8 11 11 9 9 8 10 14 10 9 8 11 9 7 8 4 9 5 9 10
71 73 76 79 72 60 61 61 58 53 52 49 47 47 46 43 36 30 30 29 29 24 19 18 14 13 12 12 15 15 13 15 15 12 10 11 8 9 10 14 7 7 8 8 5 4 1
65 68 70 75 77 67 53 53 51 51 51 46 41 38 31 30 29 28 27 23 23 24 21 18 20 17 15 18 19 18 20 19 14 14 11 10 12 12 15 11 12 11 8 6 6 9 12
56 63 65 70 74 73 65 52 44 42 43 41 36 32 31 28 26 22 18 22 31 22 20 19 20 22 22 22 20 18 18 16 16 13 11 12 14 16 11 12 15 16 11 12 16 17 20
49 55 59 64 69 72 69 61 52 42 34 32 30 28 21 22 23 26 22 31 25 23 23 26 26 25 24 20 19 18 16 12 14 17 18 18 17 15 10 15 21 16 18 23 19 17 19
42 47 52 54 61 66 68 68 58 53 46 36 35 31 29 30 29 32 26 24 24 26 29 28 24 22 19 19 21 23 22 18 17 21 19 18 17 11 14 16 22 22 17 20 16 14 23
35 39 44 47 52 58 62 63 64 56 53 47 42 40 39 37 32 26 27 28 29 29 28 26 24 23 26 25 23 24 22 23 22 22 22 20 14 11 14 18 21 20 20 19 20 25 22
32 32 36 41 44 49 54 57 59 59 56 53 45 40 41 39 38 37 35 33 31 30 28 27 28 27 27 23 23 24 24 22 22 21 20 16 12 13 16 20 20 18 19 19 20 21 18
31 27 29 33 36 40 45 50 52 54 55 55 47 42 38 39 38 36 34 32 29 28 28 27 27 27 26 25 23 21 20 20 21 18 17 14 16 17 16 16 16 17 17 20 21 21 20
33 28 24 26 29 30 34 40 45 48 50 51 50 47 41 35 32 33 29 24 22 23 24 23 24 23 23 23 21 21 19 19 16 17 17 15 15 13 11 12 14 15 16 16 14 17 17
30 30 25 21 23 25 26 30 37 41 44 44 45 46 45 43 35 33 29 27 24 23 21 21 22 21 23 22 19 15 14 12 14 15 16 14 15 12 9 10 11 12 13 12 13 14 13
28 28 27 21 17 19 20 22 26 31 34 36 39 40 40 41 41 37 32 30 25 22 19 18 16 14 13 14 16 13 9 4 6 9 13 15 13 11 11 12 10 10 11 11 12 12 12
33 25 25 26 17 15 16 16 18 20 26 29 33 34 35 35 36 37 35 34 32 28 21 16 12 9 5 3 3 4 2 6 6 7 10 13 14 12 8 10 8 6 8 8 9 9 9
31 29 22 22 22 13 13 13 11 13 16 20 25 26 28 29 29 31 31 30 30 30 29 27 25 23 19 18 14 14 9 6 6 8 9 8 9 7 6 6 7 6 5 6 4 5 8
26 30 27 23 21 18 12 11 10 9 9 12 14 18 20 21 22 23 25 25 25 25 24 24 23 22 23 22 22 20 19 18 17 15 12 12 12 11 12 12 13 15 15 13 13 11 14
25 26 30 27 22 19 18 14 10 8 7 7 8 9 13 13 14 16 17 19 19 19 19 18 18 18 17 17 17 15 15 15 14 13 11 11 10 9 10 11 9 10 11 11 9 9 10
27 25 25 28 26 19 18 18 13 10 9 9 11 10 8 6 7 9 11 13 13 15 15 15 14 13 13 13 13 12 11 10 9 7 8 7 7 7 7 6 6 7 7 7 6 6 6

GFSGBSN_500_spd_111.txt.gz
Wind_Speed
73 76 74 71 65 63 64 62 47 44 40 29 32 40 46 47 44 37 44 44 35 42 49 44 48 49 46 47 48 48 47 44 43 42 43 43 42 43 43 43 44 44 45 46 47 45 47
73 78 75 71 67 70 72 55 37 33 42 52 53 40 48 51 50 41 40 44 44 28 37 46 45 43 46 44 43 44 44 43 42 41 40 39 39 40 41 42 44 43 44 44 44 43 44
77 82 77 73 70 74 61 33 26 27 29 38 28 37 41 41 37 38 30 25 36 36 28 33 33 34 38 42 39 40 38 39 40 40 37 38 37 38 39 39 40 43 45 44 43 42 44
79 86 81 74 78 76 42 27 20 21 20 20 24 18 21 32 36 29 25 24 16 22 28 21 26 24 31 31 35 35 37 37 37 37 37 36 35 33 34 35 38 40 42 41 41 41 45
81 88 83 75 81 69 38 25 19 17 17 14 12 22 19 14 21 22 24 21 21 13 24 21 27 30 29 29 31 36 36 35 31 31 32 30 30 30 31 34 36 38 38 38 40 43 45
81 90 85 76 77 55 36 32 29 27 20 8 18 17 18 15 19 18 20 12 19 19 22 26 34 35 35 33 29 28 28 31 29 29 27 25 25 28 30 32 34 35 36 37 39 44 43
81 90 88 74 77 45 33 34 33 25 28 7 12 21 17 16 11 13 25 13 23 22 33 34 32 25 30 36 25 20 22 18 17 19 20 23 25 27 29 31 33 35 37 38 42 45 44
79 87 89 70 76 52 31 35 32 24 28 25 17 10 17 17 13 14 20 25 25 30 30 25 27 26 27 25 20 24 22 18 20 22 23 24 25 26 28 30 33 36 38 40 40 41 43
76 80 84 70 73 69 43 37 31 25 27 24 23 17 11 17 15 22 22 33 27 30 25 28 28 27 25 20 19 20 21 21 22 22 20 23 25 26 28 33 34 35 37 33 33 34 18
72 77 77 64 69 70 61 52 47 38 30 30 27 24 20 13 17 33 26 36 27 22 24 20 16 16 19 19 19 19 18 18 20 21 23 24 25 26 29 32 29 25 25 21 14 11 13
68 73 76 62 59 64 64 58 54 52 51 43 44 47 37 30 34 31 33 31 27 25 24 22 20 17 16 19 19 19 20 23 24 23 23 22 24 26 24 19 15 10 7 5 9 13 12
63 69 72 69 53 54 56 59 58 55 53 50 45 42 38 32 30 29 27 26 25 23 19 20 17 17 15 16 16 17 18 18 17 18 19 21 19 13 12 9 9 7 4 5 8 11 10
58 64 68 69 66 49 48 49 48 50 51 43 38 32 29 26 24 21 22 23 21 19 21 15 13 11 8 8 8 9 11 12 13 13 11 10 11 9 10 10 7 5 1 2 6 7 8
54 59 64 66 67 61 48 42 42 40 41 41 34 30 30 28 26 21 17 16 12 15 13 12 10 7 4 3 4 5 6 6 7 12 13 12 11 11 11 10 7 1 4 4 3 3 2
49 53 58 62 64 64 59 49 39 36 33 32 34 33 30 28 26 22 18 13 17 18 17 15 11 11 15 18 18 20 19 17 15 14 12 9 11 10 11 6 4 2 1 2 2 2 3
43 47 52 56 60 62 59 57 49 42 34 29 28 31 29 26 24 28 19 22 23 21 22 26 25 26 22 21 20 20 19 17 14 13 12 13 13 12 9 7 4 3 4 3 6 3 3
38 41 45 51 55 57 60 59 57 52 47 44 39 37 40 39 37 29 32 37 35 32 28 25 24 23 20 19 15 10 9 13 16 15 15 16 12 10 10 9 7 5 6 8 6 8 17
34 36 39 43 48 52 54 56 56 54 50 49 44 41 41 40 35 35 33 34 32 31 28 25 25 26 26 25 24 23 22 24 21 17 14 13 10 17 16 15 12 5 10 7 10 15 15
38 30 33 36 41 46 49 52 52 52 51 46 43 42 44 44 40 37 36 33 30 30 30 30 31 30 31 30 31 30 29 23 18 16 16 18 20 20 18 17 17 14 7 6 11 12 11
35 34 26 28 32 38 42 45 49 51 50 47 45 38 37 39 36 36 34 32 33 33 32 32 33 29 28 29 29 29 22 21 20 17 15 18 20 17 17 17 16 14 15 18 16 20 14
30 33 27 23 25 30 35 38 42 44 44 44 43 43 40 32 29 29 30 31 30 30 28 28 30 30 27 27 25 23 22 19 15 12 17 17 17 14 14 15 15 17 17 14 17 16 18
28 28 29 22 20 22 25 32 34 37 41 39 39 39 40 36 31 28 26 24 25 25 25 26 27 25 23 23 21 20 18 13 11 14 14 13 11 11 10 12 12 14 14 15 14 16 17
29 23 26 26 19 17 18 22 27 29 32 36 37 37 35 38 34 31 28 25 24 23 23 24 23 22 20 19 16 15 13 9 7 8 9 8 3 3 4 5 4 4 5 5 9 9 11
31 26 21 23 23 16 14 15 18 22 25 29 31 32 33 33 34 32 29 27 22 22 21 20 20 17 16 14 11 10 8 7 7 8 9 8 7 6 7 6 5 5 6 6 7 6 7
31 28 25 20 20 21 16 10 13 13 17 22 24 26 28 28 28 28 28 28 27 25 25 24 18 16 15 10 7 8 8 7 4 7 12 13 14 15 14 14 13 10 10 11 12 12 11
32 28 26 25 18 17 20 14 7 9 10 12 17 19 21 23 22 23 24 24 24 23 22 24 24 23 21 20 17 11 8 7 8 8 11 12 13 13 11 9 10 10 11 11 9 11 12
34 29 26 25 21 13 15 16 13 6 8 9 9 11 13 15 18 18 19 18 19 19 19 18 17 17 18 18 17 16 14 12 9 6 3 3 5 6 9 10 10 13 13 11 10 7 10
30 32 28 25 24 16 9 12 14 13 7 8 10 9 9 9 10 13 13 13 14 14 14 13 13 13 12 12 12 11 10 10 9 8 7 7 7 5 4 4 4 9 10 9 9 9 9
31 31 31 26 24 24 16 9 8 13 14 10 9 10 11 12 8 6 6 8 8 9 9 10 10 10 9 9 9 9 9 9 8 7 7 6 5 5 4 3 3 2 3 5 6 6 7

GFSGBSN_500_spd_114.txt.gz
Wind_Speed
72 81 85 80 82 80 59 38 31 28 25 25 31 38 24 25 30 35 39 30 40 40 46 50 50 48 51 51 46 54 54 52 50 47 45 44 43 44 44 44 45 45 46 46 47 46 49
76 84 86 83 86 66 50 36 28 18 18 14 27 33 26 22 30 33 34 31 26 35 28 44 47 39 47 50 37 46 48 46 46 46 45 43 41 42 42 42 42 41 41 44 46 49 50
75 86 86 85 83 55 46 40 31 24 17 14 17 22 20 28 28 35 41 30 30 32 39 27 45 42 41 41 44 44 43 44 44 43 42 41 40 39 38 38 39 40 41 43 47 48 50
76 87 87 81 80 57 45 41 34 30 18 14 14 15 14 19 23 27 32 27 30 34 40 30 41 50 46 44 45 40 37 36 37 36 36 36 37 37 36 36 37 38 40 39 44 45 48
74 84 82 77 78 67 44 39 33 35 19 18 21 21 18 14 18 23 25 26 23 28 32 35 30 39 43 42 45 34 33 33 31 30 29 30 32 32 32 33 34 33 36 36 39 44 46
70 78 76 71 75 76 57 33 36 30 20 15 25 27 24 22 26 26 24 28 25 26 21 28 26 24 31 32 31 29 28 28 27 25 24 25 27 29 30 29 29 30 32 35 38 43 46
68 70 72 64 68 72 70 47 37 34 32 22 27 29 25 23 25 26 25 25 24 33 30 27 25 24 27 31 25 27 32 29 28 26 24 25 25 26 25 26 27 29 31 34 38 44 42
65 69 69 59 61 66 63 63 46 41 39 29 28 34 31 21 26 26 21 27 28 25 23 24 24 22 25 23 21 21 22 25 21 20 20 20 19 19 21 24 28 30 32 35 35 42 42
64 67 67 62 56 59 55 60 55 54 47 49 45 39 37 23 23 22 31 24 24 24 31 27 24 19 25 27 21 18 18 20 15 15 14 14 17 19 22 27 28 30 31 35 37 40 42
61 64 66 63 52 51 51 49 48 43 47 45 44 41 39 36 37 34 31 34 29 27 31 26 21 23 20 19 18 17 18 15 13 14 15 16 18 21 25 27 27 29 31 32 33 37 36
57 62 64 62 57 45 45 49 41 35 37 35 35 35 34 32 26 26 29 26 22 21 23 19 16 20 19 17 17 16 15 15 15 17 18 19 21 24 24 24 24 26 25 24 18 16 16
53 58 61 63 62 52 41 38 41 40 37 33 29 27 28 29 23 21 19 21 22 17 17 17 17 15 14 15 16 16 16 17 19 20 20 20 19 20 19 19 19 15 10 10 11 15 18
49 54 57 59 62 61 52 40 34 36 36 37 32 28 26 23 22 18 18 18 16 14 18 14 12 11 10 11 12 13 13 14 12 12 13 14 15 14 13 8 5 2 5 9 10 11 12
43 49 53 55 57 60 61 50 42 35 29 28 27 28 28 26 25 20 15 12 9 15 16 12 9 7 6 5 5 4 4 6 6 8 10 8 5 5 6 3 3 3 7 8 6 9 8
38 43 48 52 53 56 58 55 47 41 37 36 35 35 36 35 29 25 26 16 21 18 15 12 11 14 14 13 11 10 6 5 6 7 7 8 10 7 6 3 2 3 3 6 5 5 11
35 37 41 46 49 51 54 55 54 49 45 41 43 45 48 44 41 39 31 41 37 33 32 30 27 27 24 23 20 17 16 15 14 14 14 13 11 8 4 0 4 5 6 4 4 8 9
40 32 35 40 44 46 48 51 51 50 49 42 39 40 44 41 39 36 34 33 30 29 26 24 23 22 18 14 15 19 21 21 20 20 17 13 10 6 5 6 8 8 7 5 8 9 11
39 34 29 33 37 42 43 46 47 48 48 43 40 36 40 40 37 33 33 31 32 30 27 28 31 27 25 25 27 27 26 26 22 17 13 9 11 10 10 8 8 7 10 10 11 10 12
32 36 27 26 30 35 38 41 43 43 43 44 36 31 34 36 34 36 37 36 35 35 36 36 34 34 34 33 31 27 24 22 21 20 19 17 15 16 13 12 10 7 10 8 10 10 16
32 32 33 24 23 28 33 36 38 39 39 41 40 33 29 30 29 29 33 36 35 35 34 36 36 34 31 27 24 24 23 22 20 21 22 20 18 16 15 15 12 11 11 7 7 8 12
34 27 29 30 21 20 25 29 33 35 37 37 38 37 34 27 29 30 28 31 32 32 34 34 33 30 27 26 24 21 19 17 19 19 19 18 18 18 17 16 16 14 11 8 5 7 13
32 31 25 25 27 18 17 21 26 30 32 33 35 35 36 33 28 26 28 26 27 26 27 27 27 26 24 23 20 17 16 16 13 12 12 14 14 14 13 12 11 13 11 7 8 11 10
30 29 26 23 23 24 16 14 17 22 26 28 30 31 31 32 32 29 28 26 23 20 20 19 19 18 18 18 16 13 11 12 11 7 5 5 5 5 5 5 6 8 6 4 3 4 3
31 28 26 25 21 21 22 14 11 14 18 21 24 25 27 27 27 29 27 25 24 20 14 11 12 9 10 9 8 6 3 3 1 2 4 5 6 6 9 10 9 8 10 9 8 8 8
29 29 24 24 22 15 19 19 12 9 10 13 16 19 22 22 22 23 24 24 23 23 20 16 10 4 2 4 5 6 8 6 7 9 12 12 12 14 16 18 16 15 13 10 11 13 14
28 28 27 24 24 16 13 15 14 10 9 8 9 10 14 16 18 18 19 19 18 18 18 19 17 14 11 9 7 3 5 7 6 8 10 11 10 9 7 7 9 14 15 16 14 17 18
27 30 28 25 23 22 15 11 10 9 8 9 9 9 7 8 9 12 14 14 14 14 14 12 12 12 11 10 9 8 7 7 8 8 7 7 6 5 5 5 6 7 6 7 6 4 7
27 29 31 27 22 23 20 16 10 9 8 8 8 11 11 8 6 5 5 8 9 9 8 8 8 7 8 7 7 7 7 7 7 7 7 7 7 6 4 3 3 2 3 2 4 4 5
32 31 31 30 26 24 23 20 17 13 10 9 10 9 12 13 13 10 7 6 6 5 5 6 5 6 4 5 6 6 7 8 9 10 8 8 8 7 7 7 5 5 4 4 4 5 5

GFSGBSN_500_spd_117.txt.gz
Wind_Speed
69 78 82 75 78 86 53 43 46 40 26 18 9 5 25 31 34 34 35 32 26 35 47 44 45 44 32 43 53 55 54 50 49 49 48 47 46 45 46 45 44 44 43 44 45 47 46
67 77 80 71 74 83 57 47 44 38 31 24 17 19 16 16 29 36 36 37 33 25 32 40 41 39 43 42 40 43 49 54 52 48 47 46 45 45 44 43 43 42 42 43 43 46 46
67 73 75 68 70 76 73 48 44 31 31 30 26 18 15 17 14 22 31 34 33 31 19 25 35 38 40 41 42 40 47 46 49 50 48 47 45 42 40 40 40 40 41 42 43 44 45
67 68 73 66 66 70 71 62 50 32 29 33 27 18 17 17 15 16 21 31 33 24 23 22 25 31 37 41 42 38 33 35 39 42 44 44 42 41 41 41 40 40 40 40 39 41 43
66 69 69 66 61 64 63 60 57 44 36 37 30 29 26 17 18 22 20 25 25 22 22 25 20 31 36 32 35 47 38 35 34 35 38 39 39 38 36 36 36 36 37 37 39 39 41
64 67 68 65 55 55 56 57 58 53 45 42 36 31 28 27 22 23 27 25 19 21 24 16 15 32 40 38 34 35 34 30 29 29 27 27 28 29 29 29 30 31 31 32 34 36 39
63 66 68 68 54 50 51 51 50 51 50 43 43 31 37 27 27 25 24 23 22 24 32 22 21 25 37 32 31 31 29 26 25 25 25 23 22 22 23 24 25 25 26 28 31 35 37
60 64 66 66 63 48 46 50 47 46 50 45 47 43 29 30 20 22 24 19 20 24 30 23 22 29 31 27 19 20 26 25 22 20 20 20 19 18 19 19 20 21 22 28 31 36 41
58 60 64 65 62 55 45 46 47 44 43 45 37 48 45 39 29 23 24 33 32 27 27 25 22 24 24 23 19 18 21 20 18 16 16 16 16 15 15 16 17 22 25 29 33 36 38
55 58 60 63 61 58 46 42 43 45 41 40 42 38 40 38 39 36 36 33 35 34 34 30 27 27 24 22 19 15 11 15 17 17 15 14 13 14 14 17 22 25 26 28 31 32 35
51 55 57 60 62 59 54 41 38 39 40 37 35 36 34 33 31 29 30 27 28 25 31 27 25 24 22 18 14 14 17 17 14 14 12 11 13 16 18 19 21 20 22 24 26 29 30
47 51 54 56 60 60 57 51 40 36 35 37 36 32 29 30 31 27 23 21 17 16 24 22 21 21 19 17 16 16 14 12 12 12 14 14 15 15 16 14 16 20 21 22 21 18 18
41 47 50 53 55 60 59 55 47 42 40 37 34 30 30 27 22 21 25 23 17 18 23 19 16 13 12 13 11 11 12 13 13 12 10 10 10 10 11 12 12 9 7 6 10 12 17
38 42 46 49 51 55 57 56 49 50 51 47 43 36 31 32 31 26 20 16 12 21 20 19 16 13 10 8 6 7 8 9 9 5 5 5 5 4 3 3 1 2 6 8 8 10 12
43 36 41 45 48 49 53 53 50 47 45 44 44 44 43 41 38 35 29 14 21 19 17 17 17 17 13 11 10 10 10 10 7 4 4 3 6 11 8 3 3 6 6 6 9 12 12
42 36 35 40 44 46 48 50 48 47 42 39 41 39 36 37 36 35 27 37 38 37 35 32 30 28 25 22 19 17 15 15 15 15 16 15 11 8 5 6 7 7 8 7 5 7 9
39 39 30 33 38 42 44 46 46 44 43 36 38 39 40 38 41 31 31 33 30 28 26 22 22 24 27 27 26 26 26 24 21 18 15 11 9 7 7 10 13 11 10 11 12 12 13
36 35 35 27 31 35 39 41 42 43 41 40 36 36 40 41 41 36 39 40 42 39 37 36 36 35 34 33 32 29 25 22 20 16 13 12 13 16 15 12 11 13 11 13 16 15 15
35 31 33 29 24 28 32 35 37 39 39 39 36 35 34 36 35 38 39 41 42 42 40 39 37 34 32 31 30 28 24 22 20 19 19 20 19 18 18 16 13 11 11 13 11 13 12
36 31 28 30 26 21 25 29 32 33 34 35 36 35 33 31 30 33 35 36 36 35 33 34 33 32 30 28 27 27 25 25 24 24 23 22 21 22 22 21 18 14 13 12 12 10 10
36 33 27 24 27 23 17 21 25 28 30 31 31 32 35 30 26 24 27 30 30 30 31 31 29 28 26 24 23 22 22 22 22 21 21 22 22 22 21 19 18 17 14 15 14 11 13
34 33 30 23 20 23 19 13 17 20 24 26 27 27 29 30 27 23 20 20 21 22 24 24 23 23 22 21 20 19 16 16 15 15 15 16 14 15 14 13 14 14 13 13 11 10 12
31 30 31 27 22 16 19 15 10 12 16 19 21 22 23 24 26 25 19 15 13 13 15 16 15 14 15 14 11 11 10 8 9 8 8 8 8 5 5 6 4 6 5 4 3 3 4
29 28 27 28 25 18 13 16 13 8 8 10 14 16 17 18 19 20 21 19 13 7 6 6 7 7 6 5 7 8 9 10 11 11 14 16 13 11 12 11 7 6 6 6 8 9 10
30 26 25 26 27 24 17 11 13 12 9 6 6 9 11 12 14 14 14 15 16 15 13 11 8 5 4 6 8 7 9 9 11 13 14 14 12 12 11 15 15 15 14 13 11 13 14
28 27 25 25 25 25 20 15 10 12 10 9 8 5 5 7 8 10 9 10 10 9 9 10 9 8 8 8 7 8 9 8 9 9 9 10 11 13 12 13 13 12 8 9 13 15 17
33 31 25 27 25 25 24 18 16 11 11 10 11 11 9 6 5 4 5 6 6 6 6 5 4 5 5 5 5 5 7 7 7 8 8 8 8 8 8 9 10 9 9 8 8 8 7
35 34 31 27 28 26 27 22 17 17 13 13 12 10 10 10 11 9 8 7 4 4 5 6 6 5 5 6 7 8 8 8 8 8 9 10 10 9 9 8 7 6 7 8 8 8 8
37 36 35 31 29 28 28 27 21 19 18 13 16 12 10 10 11 13 15 14 13 10 7 7 7 8 8 7 8 9 10 11 12 12 11 11 11 10 9 9 9 9 8 7 7 8 10